Wetterdaten: aktuell Donnerstag, 20.01.2022 22:01
Datum Zeit Auentemp. Feuchte A. Luftdruck Niederschlag Wind (50 m) Richtung Richtung Sonnenschein UV Solar Taupunkt Windchill Ben (50 m) Empfang
20.01.2022 22:01 -1,1 C 70 % 1019,6 hPa 0,0 l/m 22,2 kts (6 Bft) W-SW 254 0 min 0,0 UV-I 0 W/m -5,9 C -17,8 C 27,8 kts (7 Bft) 100,00 %
20.01.2022 22:00 -1,1 C 70 % 1019,6 hPa 0,0 l/m 23,5 kts (6 Bft) W 261 0 min 0,0 UV-I 0 W/m -5,9 C -18,3 C 33,0 kts (7 Bft) 100,00 %
20.01.2022 21:59 -1,1 C 70 % 1019,5 hPa 0,0 l/m 26,7 kts (6 Bft) W-SW 250 0 min 0,0 UV-I 0 W/m -5,9 C -19,3 C 29,5 kts (7 Bft) 98,91 %
20.01.2022 21:58 -1,1 C 70 % 1019,4 hPa 0,0 l/m 23,0 kts (6 Bft) W-SW 246 0 min 0,0 UV-I 0 W/m -5,9 C -18,1 C 28,7 kts (7 Bft) 100,00 %
20.01.2022 21:57 -1,1 C 70 % 1019,6 hPa 0,0 l/m 13,4 kts (4 Bft) W-SW 248 0 min 0,0 UV-I 0 W/m -5,9 C -13,2 C 17,4 kts (5 Bft) 97,44 %
20.01.2022 21:56 -1,1 C 70 % 1019,5 hPa 0,0 l/m 20,4 kts (5 Bft) W-SW 255 0 min 0,0 UV-I 0 W/m -5,9 C -17,1 C 23,5 kts (6 Bft) 100,00 %
20.01.2022 21:55 -1,2 C 70 % 1019,4 hPa 0,0 l/m 19,2 kts (5 Bft) W 267 0 min 0,0 UV-I 0 W/m -6,0 C -16,7 C 22,6 kts (6 Bft) 100,00 %
20.01.2022 21:54 -1,2 C 70 % 1019,4 hPa 0,0 l/m 22,8 kts (6 Bft) W-SW 243 0 min 0,0 UV-I 0 W/m -6,0 C -18,2 C 26,9 kts (6 Bft) 100,00 %
20.01.2022 21:53 -1,2 C 71 % 1019,4 hPa 0,0 l/m 18,3 kts (5 Bft) SW 232 0 min 0,0 UV-I 0 W/m -5,8 C -16,2 C 23,5 kts (6 Bft) 100,00 %
20.01.2022 21:52 -1,2 C 71 % 1019,5 hPa 0,0 l/m 21,7 kts (6 Bft) W 269 0 min 0,0 UV-I 0 W/m -5,8 C -17,7 C 25,2 kts (6 Bft) 100,00 %
20.01.2022 21:51 -1,2 C 71 % 1019,5 hPa 0,0 l/m 23,4 kts (6 Bft) W 270 0 min 0,0 UV-I 0 W/m -5,8 C -18,4 C 29,5 kts (7 Bft) 92,31 %
20.01.2022 21:50 -1,2 C 71 % 1019,4 hPa 0,0 l/m 23,8 kts (6 Bft) W-SW 253 0 min 0,0 UV-I 0 W/m -5,8 C -18,5 C 27,8 kts (7 Bft) 96,97 %
20.01.2022 21:49 -1,3 C 71 % 1019,5 hPa 0,0 l/m 19,6 kts (5 Bft) W-SW 245 0 min 0,0 UV-I 0 W/m -5,9 C -17,0 C 22,6 kts (6 Bft) 100,00 %
20.01.2022 21:48 -1,3 C 71 % 1019,4 hPa 0,0 l/m 17,5 kts (5 Bft) W-SW 250 0 min 0,0 UV-I 0 W/m -5,9 C -16,0 C 24,4 kts (6 Bft) 97,62 %
20.01.2022 21:47 -1,3 C 71 % 1019,4 hPa 0,0 l/m 19,1 kts (5 Bft) W 271 0 min 0,0 UV-I 0 W/m -5,9 C -16,8 C 20,8 kts (5 Bft) 98,92 %
20.01.2022 21:46 -1,3 C 71 % 1019,3 hPa 0,0 l/m 19,9 kts (5 Bft) W 263 0 min 0,0 UV-I 0 W/m -5,9 C -17,2 C 23,5 kts (6 Bft) 100,00 %
20.01.2022 21:45 -1,3 C 71 % 1019,4 hPa 0,0 l/m 21,2 kts (6 Bft) W-SW 250 0 min 0,0 UV-I 0 W/m -5,9 C -17,7 C 29,5 kts (7 Bft) 95,65 %
20.01.2022 21:44 -1,3 C 72 % 1019,5 hPa 0,0 l/m 20,4 kts (5 Bft) W-SW 255 0 min 0,0 UV-I 0 W/m -5,7 C -17,4 C 22,6 kts (6 Bft) 97,22 %
20.01.2022 21:43 -1,3 C 72 % 1019,5 hPa 0,0 l/m 14,3 kts (4 Bft) W 261 0 min 0,0 UV-I 0 W/m -5,7 C -14,0 C 16,5 kts (5 Bft) 97,96 %
20.01.2022 21:42 -1,3 C 72 % 1019,5 hPa 0,0 l/m 22,6 kts (6 Bft) W-SW 250 0 min 0,0 UV-I 0 W/m -5,7 C -18,2 C 24,4 kts (6 Bft) 98,93 %
20.01.2022 21:41 -1,3 C 72 % 1019,5 hPa 0,0 l/m 18,4 kts (5 Bft) W 261 0 min 0,0 UV-I 0 W/m -5,7 C -16,4 C 21,7 kts (6 Bft) 100,00 %
20.01.2022 21:40 -1,4 C 72 % 1019,4 hPa 0,0 l/m 20,6 kts (5 Bft) W-SW 240 0 min 0,0 UV-I 0 W/m -5,8 C -17,6 C 24,4 kts (6 Bft) 91,67 %
20.01.2022 21:39 -1,3 C 72 % 1019,4 hPa 0,0 l/m 17,5 kts (5 Bft) W 266 0 min 0,0 UV-I 0 W/m -5,7 C -16,0 C 20,0 kts (5 Bft) 96,55 %
20.01.2022 21:38 -1,3 C 72 % 1019,4 hPa 0,0 l/m 14,2 kts (4 Bft) SW 235 0 min 0,0 UV-I 0 W/m -5,7 C -14,0 C 19,1 kts (5 Bft) 100,00 %
20.01.2022 21:37 -1,4 C 72 % 1019,4 hPa 0,0 l/m 13,3 kts (4 Bft) W-SW 238 0 min 0,0 UV-I 0 W/m -5,8 C -13,5 C 15,7 kts (5 Bft) 96,15 %
20.01.2022 21:36 -1,4 C 72 % 1019,4 hPa 0,0 l/m 18,0 kts (5 Bft) W 266 0 min 0,0 UV-I 0 W/m -5,8 C -16,4 C 20,8 kts (5 Bft) 100,00 %
20.01.2022 21:35 -1,4 C 72 % 1019,5 hPa 0,0 l/m 14,0 kts (4 Bft) W-SW 248 0 min 0,0 UV-I 0 W/m -5,8 C -14,0 C 16,5 kts (5 Bft) 98,00 %
20.01.2022 21:34 -1,4 C 72 % 1019,5 hPa 0,0 l/m 14,3 kts (4 Bft) W 269 0 min 0,0 UV-I 0 W/m -5,8 C -14,2 C 17,4 kts (5 Bft) 98,94 %
20.01.2022 21:33 -1,4 C 72 % 1019,5 hPa 0,0 l/m 15,6 kts (5 Bft) W-SW 248 0 min 0,0 UV-I 0 W/m -5,8 C -15,0 C 20,0 kts (5 Bft) 92,86 %
20.01.2022 21:32 -1,4 C 72 % 1019,5 hPa 0,0 l/m 12,7 kts (4 Bft) W-SW 252 0 min 0,0 UV-I 0 W/m -5,8 C -13,1 C 16,5 kts (5 Bft) 100,00 %
20.01.2022 21:31 -1,4 C 73 % 1019,6 hPa 0,0 l/m 15,6 kts (4 Bft) SW 236 0 min 0,0 UV-I 0 W/m -5,6 C -15,0 C 18,3 kts (5 Bft) 100,00 %
20.01.2022 21:30 -1,4 C 73 % 1019,6 hPa 0,0 l/m 14,9 kts (4 Bft) W-SW 245 0 min 0,0 UV-I 0 W/m -5,6 C -14,6 C 19,1 kts (5 Bft) 100,00 %
20.01.2022 21:29 -1,4 C 73 % 1019,5 hPa 0,0 l/m 14,0 kts (4 Bft) W-SW 248 0 min 0,0 UV-I 0 W/m -5,6 C -14,0 C 20,0 kts (5 Bft) 100,00 %
20.01.2022 21:28 -1,4 C 73 % 1019,5 hPa 0,0 l/m 13,8 kts (4 Bft) SW 232 0 min 0,0 UV-I 0 W/m -5,6 C -13,8 C 15,7 kts (5 Bft) 96,67 %
20.01.2022 21:27 -1,4 C 72 % 1019,5 hPa 0,0 l/m 18,9 kts (5 Bft) W-SW 247 0 min 0,0 UV-I 0 W/m -5,8 C -16,8 C 21,7 kts (6 Bft) 95,00 %
20.01.2022 21:26 -1,3 C 72 % 1019,5 hPa 0,0 l/m 18,4 kts (5 Bft) W-SW 250 0 min 0,0 UV-I 0 W/m -5,7 C -16,4 C 24,4 kts (6 Bft) 100,00 %
20.01.2022 21:25 -1,4 C 72 % 1019,5 hPa 0,0 l/m 14,1 kts (4 Bft) W-SW 246 0 min 0,0 UV-I 0 W/m -5,8 C -14,0 C 19,1 kts (5 Bft) 100,00 %
20.01.2022 21:24 -1,4 C 72 % 1019,5 hPa 0,0 l/m 13,6 kts (4 Bft) W 263 0 min 0,0 UV-I 0 W/m -5,8 C -13,7 C 15,7 kts (5 Bft) 96,97 %
20.01.2022 21:23 -1,4 C 72 % 1019,5 hPa 0,0 l/m 14,8 kts (4 Bft) W-SW 254 0 min 0,0 UV-I 0 W/m -5,8 C -14,5 C 18,3 kts (5 Bft) 100,00 %
20.01.2022 21:22 -1,4 C 72 % 1019,6 hPa 0,0 l/m 17,7 kts (5 Bft) W-SW 237 0 min 0,0 UV-I 0 W/m -5,8 C -16,2 C 23,5 kts (6 Bft) 100,00 %
20.01.2022 21:21 -1,4 C 72 % 1019,6 hPa 0,0 l/m 14,8 kts (4 Bft) W-SW 251 0 min 0,0 UV-I 0 W/m -5,8 C -14,5 C 18,3 kts (5 Bft) 96,15 %
20.01.2022 21:20 -1,4 C 72 % 1019,6 hPa 0,0 l/m 16,2 kts (5 Bft) W 265 0 min 0,0 UV-I 0 W/m -5,8 C -15,4 C 19,1 kts (5 Bft) 100,00 %
20.01.2022 21:19 -1,4 C 73 % 1019,6 hPa 0,0 l/m 17,6 kts (5 Bft) W 262 0 min 0,0 UV-I 0 W/m -5,6 C -16,2 C 20,8 kts (5 Bft) 100,00 %
20.01.2022 21:18 -1,4 C 73 % 1019,5 hPa 0,0 l/m 13,9 kts (4 Bft) W 265 0 min 0,0 UV-I 0 W/m -5,6 C -13,9 C 22,6 kts (6 Bft) 100,00 %
20.01.2022 21:17 -1,4 C 73 % 1019,5 hPa 0,0 l/m 13,6 kts (4 Bft) W-SW 244 0 min 0,0 UV-I 0 W/m -5,6 C -13,7 C 18,3 kts (5 Bft) 100,00 %
20.01.2022 21:16 -1,4 C 73 % 1019,4 hPa 0,0 l/m 16,4 kts (5 Bft) SW 233 0 min 0,0 UV-I 0 W/m -5,6 C -15,5 C 18,3 kts (5 Bft) 100,00 %
20.01.2022 21:15 -1,4 C 73 % 1019,5 hPa 0,0 l/m 14,8 kts (4 Bft) W-SW 242 0 min 0,0 UV-I 0 W/m -5,6 C -14,5 C 17,4 kts (5 Bft) 100,00 %
20.01.2022 21:14 -1,5 C 73 % 1019,5 hPa 0,0 l/m 15,1 kts (4 Bft) W 267 0 min 0,0 UV-I 0 W/m -5,7 C -14,8 C 17,4 kts (5 Bft) 100,00 %
20.01.2022 21:13 -1,5 C 73 % 1019,5 hPa 0,0 l/m 11,7 kts (4 Bft) W-SW 246 0 min 0,0 UV-I 0 W/m -5,7 C -12,3 C 13,9 kts (4 Bft) 100,00 %
20.01.2022 21:12 -1,4 C 73 % 1019,6 hPa 0,0 l/m 9,1 kts (3 Bft) W 261 0 min 0,0 UV-I 0 W/m -5,6 C -9,8 C 12,1 kts (4 Bft) 100,00 %
20.01.2022 21:11 -1,5 C 73 % 1019,6 hPa 0,0 l/m 13,4 kts (4 Bft) W 260 0 min 0,0 UV-I 0 W/m -5,7 C -13,7 C 15,7 kts (5 Bft) 100,00 %
20.01.2022 21:10 -1,5 C 73 % 1019,6 hPa 0,0 l/m 15,0 kts (4 Bft) W-SW 255 0 min 0,0 UV-I 0 W/m -5,7 C -14,8 C 17,4 kts (5 Bft) 100,00 %
20.01.2022 21:09 -1,6 C 73 % 1019,6 hPa 0,0 l/m 13,0 kts (4 Bft) SW 236 0 min 0,0 UV-I 0 W/m -5,8 C -13,5 C 16,5 kts (5 Bft) 100,00 %
20.01.2022 21:08 -1,6 C 74 % 1019,5 hPa 0,0 l/m 12,4 kts (4 Bft) W-SW 240 0 min 0,0 UV-I 0 W/m -5,6 C -13,0 C 14,8 kts (4 Bft) 100,00 %
20.01.2022 21:07 -1,6 C 74 % 1019,6 hPa 0,0 l/m 13,0 kts (4 Bft) W-SW 249 0 min 0,0 UV-I 0 W/m -5,6 C -13,5 C 17,4 kts (5 Bft) 98,93 %
20.01.2022 21:06 -1,6 C 74 % 1019,6 hPa 0,0 l/m 17,7 kts (5 Bft) W 263 0 min 0,0 UV-I 0 W/m -5,6 C -16,5 C 23,5 kts (6 Bft) 100,00 %
20.01.2022 21:05 -1,6 C 74 % 1019,5 hPa 0,0 l/m 12,3 kts (4 Bft) W-SW 255 0 min 0,0 UV-I 0 W/m -5,6 C -13,0 C 18,3 kts (5 Bft) 100,00 %
20.01.2022 21:04 -1,6 C 74 % 1019,4 hPa 0,0 l/m 12,1 kts (4 Bft) W-SW 248 0 min 0,0 UV-I 0 W/m -5,6 C -12,9 C 15,7 kts (5 Bft) 100,00 %
20.01.2022 21:03 -1,6 C 74 % 1019,5 hPa 0,0 l/m 14,1 kts (4 Bft) W-SW 257 0 min 0,0 UV-I 0 W/m -5,6 C -14,3 C 18,3 kts (5 Bft) 100,00 %
20.01.2022 21:02 -1,6 C 75 % 1019,5 hPa 0,0 l/m 14,8 kts (4 Bft) W-SW 258 0 min 0,0 UV-I 0 W/m -5,4 C -14,8 C 17,4 kts (5 Bft) 100,00 %
20.01.2022 21:01 -1,6 C 75 % 1019,5 hPa 0,0 l/m 10,8 kts (4 Bft) SW 232 0 min 0,0 UV-I 0 W/m -5,4 C -11,7 C 13,0 kts (4 Bft) 95,83 %
20.01.2022 21:00 -1,6 C 75 % 1019,5 hPa 0,0 l/m 15,6 kts (5 Bft) W-SW 244 0 min 0,0 UV-I 0 W/m -5,4 C -15,3 C 17,4 kts (5 Bft) 100,00 %
20.01.2022 20:59 -1,6 C 75 % 1019,5 hPa 0,0 l/m 16,8 kts (5 Bft) W-SW 244 0 min 0,0 UV-I 0 W/m -5,4 C -16,0 C 18,3 kts (5 Bft) 98,93 %
20.01.2022 20:58 -1,6 C 75 % 1019,6 hPa 0,0 l/m 13,3 kts (4 Bft) W-SW 248 0 min 0,0 UV-I 0 W/m -5,4 C -13,8 C 15,7 kts (5 Bft) 100,00 %
20.01.2022 20:57 -1,6 C 75 % 1019,5 hPa 0,0 l/m 12,1 kts (4 Bft) W-SW 253 0 min 0,0 UV-I 0 W/m -5,4 C -12,9 C 14,8 kts (4 Bft) 100,00 %
20.01.2022 20:56 -1,6 C 75 % 1019,5 hPa 0,0 l/m 13,9 kts (4 Bft) W-SW 253 0 min 0,0 UV-I 0 W/m -5,4 C -14,2 C 16,5 kts (5 Bft) 100,00 %
20.01.2022 20:55 -1,6 C 75 % 1019,5 hPa 0,0 l/m 13,9 kts (4 Bft) W 261 0 min 0,0 UV-I 0 W/m -5,4 C -14,2 C 15,7 kts (5 Bft) 100,00 %
20.01.2022 20:54 -1,6 C 75 % 1019,5 hPa 0,0 l/m 14,5 kts (4 Bft) W-SW 252 0 min 0,0 UV-I 0 W/m -5,4 C -14,6 C 19,1 kts (5 Bft) 100,00 %
20.01.2022 20:53 -1,6 C 76 % 1019,5 hPa 0,0 l/m 9,0 kts (3 Bft) W-SW 257 0 min 0,0 UV-I 0 W/m -5,3 C -9,9 C 12,1 kts (4 Bft) 100,00 %
20.01.2022 20:52 -1,6 C 76 % 1019,6 hPa 0,0 l/m 10,6 kts (3 Bft) W 262 0 min 0,0 UV-I 0 W/m -5,3 C -11,6 C 12,1 kts (4 Bft) 100,00 %
20.01.2022 20:51 -1,6 C 76 % 1019,5 hPa 0,0 l/m 9,6 kts (3 Bft) W 268 0 min 0,0 UV-I 0 W/m -5,3 C -10,5 C 11,3 kts (4 Bft) 100,00 %
20.01.2022 20:50 -1,6 C 76 % 1019,5 hPa 0,0 l/m 14,8 kts (4 Bft) SW 236 0 min 0,0 UV-I 0 W/m -5,3 C -14,8 C 20,8 kts (5 Bft) 100,00 %
20.01.2022 20:49 -1,6 C 76 % 1019,5 hPa 0,0 l/m 17,1 kts (5 Bft) W-SW 254 0 min 0,0 UV-I 0 W/m -5,3 C -16,2 C 22,6 kts (6 Bft) 100,00 %
20.01.2022 20:48 -1,6 C 76 % 1019,5 hPa 0,0 l/m 11,8 kts (4 Bft) W-SW 250 0 min 0,0 UV-I 0 W/m -5,3 C -12,5 C 15,7 kts (5 Bft) 100,00 %
20.01.2022 20:47 -1,6 C 76 % 1019,5 hPa 0,0 l/m 11,3 kts (4 Bft) W 278 0 min 0,0 UV-I 0 W/m -5,3 C -12,1 C 14,8 kts (4 Bft) 100,00 %
20.01.2022 20:46 -1,6 C 76 % 1019,5 hPa 0,0 l/m 13,4 kts (4 Bft) W 274 0 min 0,0 UV-I 0 W/m -5,3 C -13,8 C 14,8 kts (4 Bft) 100,00 %
20.01.2022 20:45 -1,6 C 76 % 1019,4 hPa 0,0 l/m 14,7 kts (4 Bft) W 265 0 min 0,0 UV-I 0 W/m -5,3 C -14,7 C 17,4 kts (5 Bft) 100,00 %
20.01.2022 20:44 -1,6 C 76 % 1019,5 hPa 0,0 l/m 14,0 kts (4 Bft) W-NW 283 0 min 0,0 UV-I 0 W/m -5,3 C -14,3 C 19,1 kts (5 Bft) 100,00 %
20.01.2022 20:43 -1,6 C 76 % 1019,5 hPa 0,0 l/m 11,5 kts (4 Bft) W-NW 295 0 min 0,0 UV-I 0 W/m -5,3 C -12,3 C 13,9 kts (4 Bft) 100,00 %
20.01.2022 20:42 -1,6 C 76 % 1019,5 hPa 0,0 l/m 15,2 kts (4 Bft) NW 310 0 min 0,0 UV-I 0 W/m -5,3 C -15,1 C 20,0 kts (5 Bft) 100,00 %
20.01.2022 20:41 -1,6 C 76 % 1019,5 hPa 0,0 l/m 13,8 kts (4 Bft) W 270 0 min 0,0 UV-I 0 W/m -5,3 C -14,1 C 20,0 kts (5 Bft) 97,14 %
20.01.2022 20:40 -1,6 C 76 % 1019,5 hPa 0,0 l/m 16,2 kts (5 Bft) W-NW 290 0 min 0,0 UV-I 0 W/m -5,3 C -15,7 C 21,7 kts (6 Bft) 100,00 %
20.01.2022 20:39 -1,6 C 76 % 1019,5 hPa 0,0 l/m 18,8 kts (5 Bft) W 269 0 min 0,0 UV-I 0 W/m -5,3 C -17,1 C 23,5 kts (6 Bft) 96,15 %
20.01.2022 20:38 -1,5 C 75 % 1019,6 hPa 0,0 l/m 21,3 kts (6 Bft) W 262 0 min 0,0 UV-I 0 W/m -5,3 C -18,0 C 26,9 kts (6 Bft) 100,00 %
20.01.2022 20:37 -1,5 C 75 % 1019,6 hPa 0,0 l/m 16,1 kts (5 Bft) W 279 0 min 0,0 UV-I 0 W/m -5,3 C -15,5 C 19,1 kts (5 Bft) 95,65 %
20.01.2022 20:36 -1,5 C 75 % 1019,6 hPa 0,0 l/m 17,3 kts (5 Bft) W 278 0 min 0,0 UV-I 0 W/m -5,3 C -16,2 C 21,7 kts (6 Bft) 100,00 %
20.01.2022 20:35 -1,5 C 75 % 1019,7 hPa 0,0 l/m 17,2 kts (5 Bft) W 271 0 min 0,0 UV-I 0 W/m -5,3 C -16,1 C 21,7 kts (6 Bft) 94,44 %
20.01.2022 20:34 -1,4 C 75 % 1019,6 hPa 0,0 l/m 19,3 kts (5 Bft) W 279 0 min 0,0 UV-I 0 W/m -5,2 C -17,0 C 22,6 kts (6 Bft) 100,00 %
20.01.2022 20:33 -1,4 C 75 % 1019,6 hPa 0,0 l/m 18,8 kts (5 Bft) W-NW 286 0 min 0,0 UV-I 0 W/m -5,2 C -16,8 C 21,7 kts (6 Bft) 95,65 %
20.01.2022 20:32 -1,4 C 74 % 1019,6 hPa 0,0 l/m 18,3 kts (5 Bft) W 280 0 min 0,0 UV-I 0 W/m -5,4 C -16,5 C 20,0 kts (5 Bft) 100,00 %
20.01.2022 20:31 -1,4 C 74 % 1019,6 hPa 0,0 l/m 19,1 kts (5 Bft) W-NW 288 0 min 0,0 UV-I 0 W/m -5,4 C -16,9 C 20,8 kts (5 Bft) 90,91 %
20.01.2022 20:30 -1,4 C 74 % 1019,6 hPa 0,0 l/m 20,5 kts (5 Bft) W 273 0 min 0,0 UV-I 0 W/m -5,4 C -17,6 C 24,4 kts (6 Bft) 100,00 %
20.01.2022 20:29 -1,5 C 74 % 1019,5 hPa 0,0 l/m 19,3 kts (5 Bft) W 270 0 min 0,0 UV-I 0 W/m -5,5 C -17,2 C 24,4 kts (6 Bft) 96,55 %
20.01.2022 20:28 -1,5 C 74 % 1019,5 hPa 0,0 l/m 20,4 kts (5 Bft) W-NW 283 0 min 0,0 UV-I 0 W/m -5,5 C -17,6 C 26,9 kts (6 Bft) 100,00 %
20.01.2022 20:27 -1,5 C 74 % 1019,6 hPa 0,0 l/m 23,3 kts (6 Bft) W 264 0 min 0,0 UV-I 0 W/m -5,5 C -18,8 C 30,4 kts (7 Bft) 91,30 %
20.01.2022 20:26 -1,5 C 74 % 1019,6 hPa 0,0 l/m 18,4 kts (5 Bft) W 273 0 min 0,0 UV-I 0 W/m -5,5 C -16,7 C 22,6 kts (6 Bft) 100,00 %
20.01.2022 20:25 -1,5 C 74 % 1019,7 hPa 0,0 l/m 16,4 kts (5 Bft) W-NW 288 0 min 0,0 UV-I 0 W/m -5,5 C -15,6 C 18,3 kts (5 Bft) 91,67 %
20.01.2022 20:24 -1,5 C 74 % 1019,7 hPa 0,0 l/m 18,2 kts (5 Bft) W 280 0 min 0,0 UV-I 0 W/m -5,5 C -16,6 C 22,6 kts (6 Bft) 100,00 %
20.01.2022 20:23 -1,5 C 75 % 1019,6 hPa 0,0 l/m 13,8 kts (4 Bft) W-NW 288 0 min 0,0 UV-I 0 W/m -5,3 C -13,9 C 15,7 kts (5 Bft) 100,00 %
20.01.2022 20:22 -1,5 C 75 % 1019,6 hPa 0,0 l/m 12,9 kts (4 Bft) W-NW 286 0 min 0,0 UV-I 0 W/m -5,3 C -13,3 C 16,5 kts (5 Bft) 100,00 %
20.01.2022 20:21 -1,5 C 75 % 1019,7 hPa 0,0 l/m 24,7 kts (6 Bft) W 269 0 min 0,0 UV-I 0 W/m -5,3 C -19,3 C 28,7 kts (7 Bft) 100,00 %
20.01.2022 20:20 -1,6 C 75 % 1019,7 hPa 0,0 l/m 21,0 kts (5 Bft) W 262 0 min 0,0 UV-I 0 W/m -5,4 C -18,0 C 26,1 kts (6 Bft) 97,56 %
20.01.2022 20:19 -1,6 C 75 % 1019,7 hPa 0,0 l/m 19,7 kts (5 Bft) W 259 0 min 0,0 UV-I 0 W/m -5,4 C -17,5 C 29,5 kts (7 Bft) 98,93 %
20.01.2022 20:18 -1,6 C 75 % 1019,7 hPa 0,0 l/m 20,4 kts (5 Bft) W 262 0 min 0,0 UV-I 0 W/m -5,4 C -17,8 C 26,9 kts (6 Bft) 100,00 %
20.01.2022 20:17 -1,6 C 75 % 1019,7 hPa 0,0 l/m 19,4 kts (5 Bft) W 263 0 min 0,0 UV-I 0 W/m -5,4 C -17,4 C 23,5 kts (6 Bft) 100,00 %
20.01.2022 20:16 -1,6 C 75 % 1019,9 hPa 0,0 l/m 16,8 kts (5 Bft) W 265 0 min 0,0 UV-I 0 W/m -5,4 C -16,0 C 22,6 kts (6 Bft) 100,00 %
20.01.2022 20:15 -1,6 C 75 % 1019,9 hPa 0,0 l/m 18,6 kts (5 Bft) W 260 0 min 0,0 UV-I 0 W/m -5,4 C -17,0 C 24,4 kts (6 Bft) 100,00 %
20.01.2022 20:14 -1,6 C 75 % 1019,8 hPa 0,0 l/m 20,0 kts (5 Bft) W 271 0 min 0,0 UV-I 0 W/m -5,4 C -17,6 C 26,9 kts (6 Bft) 100,00 %
20.01.2022 20:13 -1,6 C 76 % 1019,8 hPa 0,0 l/m 22,2 kts (6 Bft) W 261 0 min 0,0 UV-I 0 W/m -5,3 C -18,6 C 31,3 kts (7 Bft) 100,00 %
20.01.2022 20:12 -1,7 C 76 % 1019,8 hPa 0,0 l/m 24,2 kts (6 Bft) W 267 0 min 0,0 UV-I 0 W/m -5,4 C -19,4 C 30,4 kts (7 Bft) 100,00 %
20.01.2022 20:11 -1,7 C 76 % 1019,7 hPa 0,0 l/m 21,8 kts (6 Bft) W 268 0 min 0,0 UV-I 0 W/m -5,4 C -18,5 C 26,1 kts (6 Bft) 100,00 %
20.01.2022 20:10 -1,7 C 76 % 1019,8 hPa 0,0 l/m 20,5 kts (5 Bft) W 275 0 min 0,0 UV-I 0 W/m -5,4 C -18,0 C 25,2 kts (6 Bft) 100,00 %
20.01.2022 20:09 -1,7 C 76 % 1019,8 hPa 0,0 l/m 17,0 kts (5 Bft) W 270 0 min 0,0 UV-I 0 W/m -5,4 C -16,3 C 20,8 kts (5 Bft) 100,00 %
20.01.2022 20:08 -1,7 C 77 % 1019,7 hPa 0,0 l/m 19,0 kts (5 Bft) W 259 0 min 0,0 UV-I 0 W/m -5,2 C -17,3 C 23,5 kts (6 Bft) 100,00 %
20.01.2022 20:07 -1,7 C 77 % 1019,7 hPa 0,0 l/m 16,0 kts (5 Bft) W 271 0 min 0,0 UV-I 0 W/m -5,2 C -15,7 C 20,0 kts (5 Bft) 100,00 %
20.01.2022 20:06 -1,7 C 77 % 1019,6 hPa 0,0 l/m 15,9 kts (5 Bft) W 259 0 min 0,0 UV-I 0 W/m -5,2 C -15,6 C 20,0 kts (5 Bft) 100,00 %
20.01.2022 20:05 -1,7 C 77 % 1019,6 hPa 0,0 l/m 15,6 kts (4 Bft) W-SW 252 0 min 0,0 UV-I 0 W/m -5,2 C -15,4 C 18,3 kts (5 Bft) 95,83 %
20.01.2022 20:04 -1,7 C 77 % 1019,6 hPa 0,0 l/m 18,2 kts (5 Bft) W-NW 283 0 min 0,0 UV-I 0 W/m -5,2 C -16,9 C 21,7 kts (6 Bft) 96,15 %
20.01.2022 20:03 -1,7 C 77 % 1019,6 hPa 0,0 l/m 20,4 kts (5 Bft) W 271 0 min 0,0 UV-I 0 W/m -5,2 C -18,0 C 24,4 kts (6 Bft) 100,00 %
20.01.2022 20:02 -1,7 C 77 % 1019,6 hPa 0,0 l/m 19,8 kts (5 Bft) W 271 0 min 0,0 UV-I 0 W/m -5,2 C -17,7 C 22,6 kts (6 Bft) 100,00 %
20.01.2022 20:01 -1,8 C 77 % 1019,5 hPa 0,0 l/m 16,6 kts (5 Bft) W 264 0 min 0,0 UV-I 0 W/m -5,3 C -16,2 C 19,1 kts (5 Bft) 98,92 %
20.01.2022 20:00 -1,7 C 77 % 1019,6 hPa 0,0 l/m 17,4 kts (5 Bft) W 271 0 min 0,0 UV-I 0 W/m -5,2 C -16,5 C 21,7 kts (6 Bft) 100,00 %
20.01.2022 19:59 -1,8 C 77 % 1019,6 hPa 0,0 l/m 18,0 kts (5 Bft) W-SW 251 0 min 0,0 UV-I 0 W/m -5,3 C -17,0 C 25,2 kts (6 Bft) 100,00 %
20.01.2022 19:58 -1,8 C 77 % 1019,6 hPa 0,0 l/m 20,0 kts (5 Bft) W-SW 257 0 min 0,0 UV-I 0 W/m -5,3 C -17,9 C 22,6 kts (6 Bft) 100,00 %
20.01.2022 19:57 -1,8 C 77 % 1019,6 hPa 0,0 l/m 19,3 kts (5 Bft) W-SW 254 0 min 0,0 UV-I 0 W/m -5,3 C -17,6 C 26,9 kts (6 Bft) 100,00 %
20.01.2022 19:56 -1,8 C 78 % 1019,7 hPa 0,0 l/m 23,5 kts (6 Bft) W-SW 255 0 min 0,0 UV-I 0 W/m -5,1 C -19,3 C 26,1 kts (6 Bft) 100,00 %
20.01.2022 19:55 -1,8 C 78 % 1019,7 hPa 0,0 l/m 17,5 kts (5 Bft) W 278 0 min 0,0 UV-I 0 W/m -5,1 C -16,7 C 22,6 kts (6 Bft) 100,00 %
20.01.2022 19:54 -1,9 C 78 % 1019,8 hPa 0,0 l/m 14,9 kts (4 Bft) W-SW 254 0 min 0,0 UV-I 0 W/m -5,2 C -15,3 C 18,3 kts (5 Bft) 100,00 %
20.01.2022 19:53 -1,9 C 78 % 1019,7 hPa 0,0 l/m 14,4 kts (4 Bft) W-SW 242 0 min 0,0 UV-I 0 W/m -5,2 C -14,9 C 17,4 kts (5 Bft) 100,00 %
20.01.2022 19:52 -1,9 C 78 % 1019,6 hPa 0,0 l/m 17,2 kts (5 Bft) W 261 0 min 0,0 UV-I 0 W/m -5,2 C -16,7 C 21,7 kts (6 Bft) 91,30 %
20.01.2022 19:51 -1,9 C 78 % 1019,7 hPa 0,0 l/m 14,5 kts (4 Bft) W-SW 254 0 min 0,0 UV-I 0 W/m -5,2 C -15,0 C 19,1 kts (5 Bft) 100,00 %
20.01.2022 19:50 -1,9 C 78 % 1019,9 hPa 0,0 l/m 16,7 kts (5 Bft) W-NW 288 0 min 0,0 UV-I 0 W/m -5,2 C -16,4 C 23,5 kts (6 Bft) 100,00 %
20.01.2022 19:49 -1,9 C 78 % 1019,7 hPa 0,0 l/m 17,1 kts (5 Bft) W 267 0 min 0,0 UV-I 0 W/m -5,2 C -16,6 C 19,1 kts (5 Bft) 100,00 %
20.01.2022 19:48 -1,9 C 78 % 1019,5 hPa 0,0 l/m 18,7 kts (5 Bft) W-SW 246 0 min 0,0 UV-I 0 W/m -5,2 C -17,4 C 22,6 kts (6 Bft) 100,00 %
20.01.2022 19:47 -1,9 C 79 % 1019,5 hPa 0,0 l/m 15,3 kts (4 Bft) W-SW 250 0 min 0,0 UV-I 0 W/m -5,0 C -15,5 C 23,5 kts (6 Bft) 100,00 %
20.01.2022 19:46 -2,0 C 79 % 1019,5 hPa 0,0 l/m 17,1 kts (5 Bft) W 259 0 min 0,0 UV-I 0 W/m -5,1 C -16,7 C 20,8 kts (5 Bft) 92,86 %
20.01.2022 19:45 -2,0 C 79 % 1019,5 hPa 0,0 l/m 20,5 kts (5 Bft) W 266 0 min 0,0 UV-I 0 W/m -5,1 C -18,4 C 23,5 kts (6 Bft) 100,00 %
20.01.2022 19:44 -2,0 C 79 % 1019,5 hPa 0,0 l/m 18,0 kts (5 Bft) W-SW 254 0 min 0,0 UV-I 0 W/m -5,1 C -17,2 C 26,1 kts (6 Bft) 100,00 %
20.01.2022 19:43 -2,0 C 79 % 1019,4 hPa 0,0 l/m 16,6 kts (5 Bft) W 259 0 min 0,0 UV-I 0 W/m -5,1 C -16,5 C 19,1 kts (5 Bft) 100,00 %
20.01.2022 19:42 -2,0 C 79 % 1019,5 hPa 0,0 l/m 18,7 kts (5 Bft) W 266 0 min 0,0 UV-I 0 W/m -5,1 C -17,6 C 23,5 kts (6 Bft) 100,00 %
20.01.2022 19:41 -2,0 C 79 % 1019,5 hPa 0,0 l/m 19,3 kts (5 Bft) W 261 0 min 0,0 UV-I 0 W/m -5,1 C -17,9 C 23,5 kts (6 Bft) 96,15 %
20.01.2022 19:40 -2,0 C 79 % 1019,5 hPa 0,0 l/m 17,0 kts (5 Bft) W-SW 256 0 min 0,0 UV-I 0 W/m -5,1 C -16,7 C 20,8 kts (5 Bft) 100,00 %
20.01.2022 19:39 -1,9 C 79 % 1019,5 hPa 0,0 l/m 18,5 kts (5 Bft) W-SW 257 0 min 0,0 UV-I 0 W/m -5,0 C -17,3 C 24,4 kts (6 Bft) 98,91 %
20.01.2022 19:38 -1,9 C 79 % 1019,6 hPa 0,0 l/m 18,7 kts (5 Bft) W-SW 246 0 min 0,0 UV-I 0 W/m -5,0 C -17,5 C 22,6 kts (6 Bft) 100,00 %
20.01.2022 19:37 -2,0 C 79 % 1019,6 hPa 0,0 l/m 16,5 kts (5 Bft) W-SW 250 0 min 0,0 UV-I 0 W/m -5,1 C -16,4 C 20,8 kts (5 Bft) 100,00 %
20.01.2022 19:36 -2,0 C 79 % 1019,7 hPa 0,0 l/m 17,0 kts (5 Bft) W 276 0 min 0,0 UV-I 0 W/m -5,1 C -16,7 C 21,7 kts (6 Bft) 100,00 %
20.01.2022 19:35 -2,0 C 79 % 1019,6 hPa 0,0 l/m 18,3 kts (5 Bft) W 259 0 min 0,0 UV-I 0 W/m -5,1 C -17,4 C 20,8 kts (5 Bft) 100,00 %
20.01.2022 19:34 -2,0 C 79 % 1020,0 hPa 0,0 l/m 17,1 kts (5 Bft) W-SW 245 0 min 0,0 UV-I 0 W/m -5,1 C -16,7 C 20,8 kts (5 Bft) 100,00 %
20.01.2022 19:33 -2,0 C 79 % 1019,6 hPa 0,0 l/m 17,5 kts (5 Bft) W-SW 257 0 min 0,0 UV-I 0 W/m -5,1 C -17,0 C 22,6 kts (6 Bft) 96,55 %
20.01.2022 19:32 -2,0 C 79 % 1019,6 hPa 0,0 l/m 14,8 kts (4 Bft) W 262 0 min 0,0 UV-I 0 W/m -5,1 C -15,4 C 19,1 kts (5 Bft) 96,97 %
20.01.2022 19:31 -2,0 C 79 % 1019,5 hPa 0,0 l/m 19,3 kts (5 Bft) SW 226 0 min 0,0 UV-I 0 W/m -5,1 C -17,9 C 21,7 kts (6 Bft) 100,00 %
20.01.2022 19:30 -2,0 C 79 % 1019,5 hPa 0,0 l/m 17,7 kts (5 Bft) W 272 0 min 0,0 UV-I 0 W/m -5,1 C -17,0 C 25,2 kts (6 Bft) 100,00 %
20.01.2022 19:29 -2,1 C 79 % 1019,5 hPa 0,0 l/m 20,3 kts (5 Bft) W-NW 287 0 min 0,0 UV-I 0 W/m -5,2 C -18,5 C 23,5 kts (6 Bft) 96,15 %
20.01.2022 19:28 -2,0 C 78 % 1019,6 hPa 0,0 l/m 20,6 kts (5 Bft) W 260 0 min 0,0 UV-I 0 W/m -5,3 C -18,5 C 26,1 kts (6 Bft) 100,00 %
20.01.2022 19:27 -2,0 C 78 % 1019,6 hPa 0,0 l/m 21,1 kts (6 Bft) W 265 0 min 0,0 UV-I 0 W/m -5,3 C -18,7 C 26,1 kts (6 Bft) 96,00 %
20.01.2022 19:26 -2,0 C 78 % 1019,6 hPa 0,0 l/m 19,3 kts (5 Bft) W 260 0 min 0,0 UV-I 0 W/m -5,3 C -17,9 C 25,2 kts (6 Bft) 100,00 %
20.01.2022 19:25 -2,0 C 78 % 1019,7 hPa 0,0 l/m 21,1 kts (6 Bft) W 259 0 min 0,0 UV-I 0 W/m -5,3 C -18,7 C 27,8 kts (7 Bft) 95,65 %
20.01.2022 19:24 -2,0 C 78 % 1019,5 hPa 0,0 l/m 14,6 kts (4 Bft) W-SW 249 0 min 0,0 UV-I 0 W/m -5,3 C -15,2 C 18,3 kts (5 Bft) 100,00 %
20.01.2022 19:23 -2,0 C 78 % 1019,6 hPa 0,0 l/m 16,9 kts (5 Bft) W-SW 250 0 min 0,0 UV-I 0 W/m -5,3 C -16,6 C 21,7 kts (6 Bft) 95,65 %
20.01.2022 19:22 -2,0 C 78 % 1019,6 hPa 0,0 l/m 15,8 kts (5 Bft) W-SW 254 0 min 0,0 UV-I 0 W/m -5,3 C -16,0 C 18,3 kts (5 Bft) 100,00 %
20.01.2022 19:21 -2,0 C 78 % 1019,6 hPa 0,0 l/m 13,5 kts (4 Bft) W 267 0 min 0,0 UV-I 0 W/m -5,3 C -14,4 C 20,0 kts (5 Bft) 95,65 %
20.01.2022 19:20 -2,0 C 78 % 1019,6 hPa 0,0 l/m 11,3 kts (4 Bft) W-SW 250 0 min 0,0 UV-I 0 W/m -5,3 C -12,7 C 13,9 kts (4 Bft) 100,00 %
20.01.2022 19:19 -2,0 C 78 % 1019,5 hPa 0,0 l/m 13,4 kts (4 Bft) W 261 0 min 0,0 UV-I 0 W/m -5,3 C -14,4 C 16,5 kts (5 Bft) 96,55 %
20.01.2022 19:18 -2,1 C 78 % 1019,5 hPa 0,0 l/m 13,2 kts (4 Bft) W 267 0 min 0,0 UV-I 0 W/m -5,4 C -14,4 C 17,4 kts (5 Bft) 96,15 %
20.01.2022 19:17 -2,1 C 77 % 1019,4 hPa 0,0 l/m 15,2 kts (4 Bft) SW 234 0 min 0,0 UV-I 0 W/m -5,6 C -15,7 C 22,6 kts (6 Bft) 95,83 %
20.01.2022 19:16 -2,1 C 77 % 1019,4 hPa 0,0 l/m 15,0 kts (4 Bft) W-SW 244 0 min 0,0 UV-I 0 W/m -5,6 C -15,6 C 16,5 kts (5 Bft) 100,00 %
20.01.2022 19:15 -2,1 C 77 % 1019,5 hPa 0,0 l/m 14,6 kts (4 Bft) W-SW 244 0 min 0,0 UV-I 0 W/m -5,6 C -15,3 C 18,3 kts (5 Bft) 96,15 %
20.01.2022 19:14 -2,1 C 77 % 1019,5 hPa 0,0 l/m 14,0 kts (4 Bft) W 269 0 min 0,0 UV-I 0 W/m -5,6 C -14,9 C 17,4 kts (5 Bft) 100,00 %
20.01.2022 19:13 -2,1 C 77 % 1019,6 hPa 0,0 l/m 15,7 kts (5 Bft) W-SW 254 0 min 0,0 UV-I 0 W/m -5,6 C -16,1 C 19,1 kts (5 Bft) 96,00 %
20.01.2022 19:12 -2,1 C 77 % 1019,5 hPa 0,0 l/m 15,2 kts (4 Bft) W-SW 250 0 min 0,0 UV-I 0 W/m -5,6 C -15,7 C 18,3 kts (5 Bft) 95,83 %
20.01.2022 19:11 -2,1 C 77 % 1019,5 hPa 0,0 l/m 16,8 kts (5 Bft) W 267 0 min 0,0 UV-I 0 W/m -5,6 C -16,7 C 19,1 kts (5 Bft) 95,65 %
20.01.2022 19:10 -2,1 C 76 % 1019,6 hPa 0,0 l/m 14,5 kts (4 Bft) W 264 0 min 0,0 UV-I 0 W/m -5,7 C -15,3 C 20,0 kts (5 Bft) 100,00 %
20.01.2022 19:09 -2,1 C 77 % 1019,5 hPa 0,0 l/m 14,9 kts (4 Bft) W-SW 256 0 min 0,0 UV-I 0 W/m -5,6 C -15,5 C 19,1 kts (5 Bft) 100,00 %
20.01.2022 19:08 -2,1 C 76 % 1019,5 hPa 0,0 l/m 13,4 kts (4 Bft) SW 236 0 min 0,0 UV-I 0 W/m -5,7 C -14,5 C 18,3 kts (5 Bft) 100,00 %
20.01.2022 19:07 -2,1 C 76 % 1019,5 hPa 0,0 l/m 16,2 kts (5 Bft) W 268 0 min 0,0 UV-I 0 W/m -5,7 C -16,4 C 19,1 kts (5 Bft) 92,86 %
20.01.2022 19:06 -2,1 C 76 % 1019,5 hPa 0,0 l/m 16,7 kts (5 Bft) W-SW 252 0 min 0,0 UV-I 0 W/m -5,7 C -16,6 C 21,7 kts (6 Bft) 100,00 %
20.01.2022 19:05 -2,1 C 76 % 1019,5 hPa 0,0 l/m 15,0 kts (4 Bft) W 280 0 min 0,0 UV-I 0 W/m -5,7 C -15,6 C 17,4 kts (5 Bft) 100,00 %
20.01.2022 19:04 -2,1 C 76 % 1019,5 hPa 0,0 l/m 15,0 kts (4 Bft) W-SW 238 0 min 0,0 UV-I 0 W/m -5,7 C -15,6 C 19,1 kts (5 Bft) 100,00 %
20.01.2022 19:03 -2,1 C 76 % 1019,4 hPa 0,0 l/m 20,7 kts (5 Bft) W 261 0 min 0,0 UV-I 0 W/m -5,7 C -18,7 C 26,1 kts (6 Bft) 100,00 %
20.01.2022 19:01 -2,0 C 76 % 1019,3 hPa 0,0 l/m 18,0 kts (5 Bft) W 263 0 min 0,0 UV-I 0 W/m -5,6 C -17,2 C 24,4 kts (6 Bft) 100,00 %
20.01.2022 19:00 -2,0 C 76 % 1019,3 hPa 0,0 l/m 20,6 kts (5 Bft) W 259 0 min 0,0 UV-I 0 W/m -5,6 C -18,5 C 25,2 kts (6 Bft) 100,00 %
20.01.2022 18:59 -2,0 C 76 % 1019,2 hPa 0,0 l/m 19,7 kts (5 Bft) W-SW 252 0 min 0,0 UV-I 0 W/m -5,6 C -18,1 C 27,8 kts (7 Bft) 100,00 %
20.01.2022 18:58 -2,0 C 76 % 1019,4 hPa 0,0 l/m 19,7 kts (5 Bft) W-SW 252 0 min 0,0 UV-I 0 W/m -5,6 C -18,1 C 24,4 kts (6 Bft) 100,00 %
20.01.2022 18:57 -2,0 C 76 % 1019,3 hPa 0,0 l/m 18,8 kts (5 Bft) W-SW 254 0 min 0,0 UV-I 0 W/m -5,6 C -17,7 C 22,6 kts (6 Bft) 100,00 %
20.01.2022 18:56 -2,1 C 76 % 1019,3 hPa 0,0 l/m 22,2 kts (6 Bft) W-SW 253 0 min 0,0 UV-I 0 W/m -5,7 C -19,3 C 31,3 kts (7 Bft) 100,00 %
20.01.2022 18:55 -2,0 C 75 % 1019,2 hPa 0,0 l/m 21,7 kts (6 Bft) W 267 0 min 0,0 UV-I 0 W/m -5,8 C -18,9 C 26,1 kts (6 Bft) 100,00 %
20.01.2022 18:54 -2,0 C 75 % 1019,3 hPa 0,0 l/m 23,7 kts (6 Bft) W-SW 254 0 min 0,0 UV-I 0 W/m -5,8 C -19,7 C 25,2 kts (6 Bft) 100,00 %
20.01.2022 18:53 -2,1 C 75 % 1019,3 hPa 0,0 l/m 22,9 kts (6 Bft) W 265 0 min 0,0 UV-I 0 W/m -5,9 C -19,6 C 26,1 kts (6 Bft) 100,00 %
20.01.2022 18:52 -2,0 C 75 % 1019,3 hPa 0,0 l/m 19,8 kts (5 Bft) W 265 0 min 0,0 UV-I 0 W/m -5,8 C -18,1 C 23,5 kts (6 Bft) 100,00 %
20.01.2022 18:51 -2,1 C 75 % 1019,3 hPa 0,0 l/m 21,6 kts (6 Bft) W-SW 252 0 min 0,0 UV-I 0 W/m -5,9 C -19,0 C 24,4 kts (6 Bft) 100,00 %
20.01.2022 18:50 -2,1 C 75 % 1019,3 hPa 0,0 l/m 19,0 kts (5 Bft) W-NW 286 0 min 0,0 UV-I 0 W/m -5,9 C -17,9 C 22,6 kts (6 Bft) 100,00 %
20.01.2022 18:49 -2,1 C 75 % 1019,3 hPa 0,0 l/m 23,0 kts (6 Bft) W 260 0 min 0,0 UV-I 0 W/m -5,9 C -19,6 C 26,1 kts (6 Bft) 95,65 %
20.01.2022 18:48 -2,1 C 75 % 1019,3 hPa 0,0 l/m 20,8 kts (5 Bft) W 279 0 min 0,0 UV-I 0 W/m -5,9 C -18,7 C 25,2 kts (6 Bft) 100,00 %
20.01.2022 18:47 -2,1 C 75 % 1019,2 hPa 0,0 l/m 19,8 kts (5 Bft) W 263 0 min 0,0 UV-I 0 W/m -5,9 C -18,2 C 23,5 kts (6 Bft) 100,00 %
20.01.2022 18:46 -2,1 C 75 % 1019,3 hPa 0,0 l/m 22,6 kts (6 Bft) W-SW 250 0 min 0,0 UV-I 0 W/m -5,9 C -19,4 C 25,2 kts (6 Bft) 100,00 %
20.01.2022 18:45 -2,1 C 74 % 1019,2 hPa 0,0 l/m 17,0 kts (5 Bft) W-SW 254 0 min 0,0 UV-I 0 W/m -6,1 C -16,8 C 24,4 kts (6 Bft) 100,00 %
20.01.2022 18:44 -2,1 C 74 % 1019,3 hPa 0,0 l/m 18,3 kts (5 Bft) W-SW 242 0 min 0,0 UV-I 0 W/m -6,1 C -17,5 C 23,5 kts (6 Bft) 100,00 %
20.01.2022 18:43 -2,2 C 74 % 1019,3 hPa 0,0 l/m 16,8 kts (5 Bft) W-SW 243 0 min 0,0 UV-I 0 W/m -6,2 C -16,9 C 21,7 kts (6 Bft) 100,00 %
20.01.2022 18:42 -2,2 C 74 % 1019,3 hPa 0,0 l/m 18,6 kts (5 Bft) W-SW 245 0 min 0,0 UV-I 0 W/m -6,2 C -17,8 C 26,9 kts (6 Bft) 100,00 %
20.01.2022 18:40 -2,2 C 74 % 1019,3 hPa 0,0 l/m 18,0 kts (5 Bft) W-NW 284 0 min 0,0 UV-I 0 W/m -6,2 C -17,5 C 20,8 kts (5 Bft) 96,15 %
20.01.2022 18:39 -2,2 C 74 % 1019,2 hPa 0,0 l/m 22,4 kts (6 Bft) W 263 0 min 0,0 UV-I 0 W/m -6,2 C -19,5 C 27,8 kts (7 Bft) 100,00 %
20.01.2022 18:38 -2,2 C 74 % 1019,2 hPa 0,0 l/m 19,2 kts (5 Bft) W-SW 245 0 min 0,0 UV-I 0 W/m -6,2 C -18,1 C 23,5 kts (6 Bft) 100,00 %
20.01.2022 18:37 -2,1 C 74 % 1019,3 hPa 0,0 l/m 19,2 kts (5 Bft) W-SW 257 0 min 0,0 UV-I 0 W/m -6,1 C -18,0 C 23,5 kts (6 Bft) 100,00 %
20.01.2022 18:36 -2,1 C 74 % 1019,2 hPa 0,0 l/m 15,6 kts (4 Bft) W-SW 258 0 min 0,0 UV-I 0 W/m -6,1 C -16,0 C 19,1 kts (5 Bft) 100,00 %
20.01.2022 18:35 -2,1 C 73 % 1019,2 hPa 0,0 l/m 16,1 kts (5 Bft) W-SW 258 0 min 0,0 UV-I 0 W/m -6,3 C -16,3 C 20,0 kts (5 Bft) 100,00 %
20.01.2022 18:34 -2,1 C 73 % 1019,2 hPa 0,0 l/m 16,7 kts (5 Bft) W 269 0 min 0,0 UV-I 0 W/m -6,3 C -16,7 C 20,0 kts (5 Bft) 100,00 %
20.01.2022 18:33 -2,1 C 73 % 1019,1 hPa 0,0 l/m 16,4 kts (5 Bft) W-SW 250 0 min 0,0 UV-I 0 W/m -6,3 C -16,5 C 18,3 kts (5 Bft) 100,00 %
20.01.2022 18:32 -2,1 C 73 % 1019,1 hPa 0,0 l/m 19,8 kts (5 Bft) W-SW 243 0 min 0,0 UV-I 0 W/m -6,3 C -18,3 C 25,2 kts (6 Bft) 100,00 %
20.01.2022 18:30 -2,1 C 73 % 1019,0 hPa 0,0 l/m 19,2 kts (5 Bft) W-SW 254 0 min 0,0 UV-I 0 W/m -6,3 C -18,0 C 20,8 kts (5 Bft) 100,00 %
20.01.2022 18:29 -2,1 C 73 % 1019,0 hPa 0,0 l/m 15,7 kts (5 Bft) W-SW 246 0 min 0,0 UV-I 0 W/m -6,3 C -16,0 C 18,3 kts (5 Bft) 100,00 %
20.01.2022 18:28 -2,1 C 73 % 1019,0 hPa 0,0 l/m 15,3 kts (4 Bft) W 261 0 min 0,0 UV-I 0 W/m -6,3 C -15,8 C 18,3 kts (5 Bft) 100,00 %
20.01.2022 18:27 -2,1 C 73 % 1019,0 hPa 0,0 l/m 16,0 kts (5 Bft) W-SW 248 0 min 0,0 UV-I 0 W/m -6,3 C -16,3 C 20,0 kts (5 Bft) 100,00 %
20.01.2022 18:26 -2,1 C 73 % 1019,0 hPa 0,0 l/m 19,0 kts (5 Bft) W-SW 258 0 min 0,0 UV-I 0 W/m -6,3 C -17,9 C 20,8 kts (5 Bft) 96,15 %
20.01.2022 18:25 -2,1 C 73 % 1019,0 hPa 0,0 l/m 19,0 kts (5 Bft) W 261 0 min 0,0 UV-I 0 W/m -6,3 C -17,9 C 22,6 kts (6 Bft) 95,83 %
20.01.2022 18:24 -2,1 C 73 % 1019,0 hPa 0,0 l/m 17,3 kts (5 Bft) W 259 0 min 0,0 UV-I 0 W/m -6,3 C -17,0 C 20,8 kts (5 Bft) 100,00 %
20.01.2022 18:23 -2,1 C 72 % 1019,2 hPa 0,0 l/m 20,6 kts (5 Bft) W 259 0 min 0,0 UV-I 0 W/m -6,5 C -18,6 C 25,2 kts (6 Bft) 91,67 %
20.01.2022 18:22 -2,1 C 72 % 1019,2 hPa 0,0 l/m 18,7 kts (5 Bft) W 281 0 min 0,0 UV-I 0 W/m -6,5 C -17,7 C 25,2 kts (6 Bft) 95,74 %
20.01.2022 18:20 -2,1 C 72 % 1019,1 hPa 0,0 l/m 14,6 kts (4 Bft) W-SW 258 0 min 0,0 UV-I 0 W/m -6,5 C -15,3 C 17,4 kts (5 Bft) 96,15 %
20.01.2022 18:19 -2,1 C 72 % 1019,0 hPa 0,0 l/m 17,4 kts (5 Bft) W 268 0 min 0,0 UV-I 0 W/m -6,5 C -17,1 C 22,6 kts (6 Bft) 96,15 %
20.01.2022 18:18 -2,1 C 72 % 1019,3 hPa 0,0 l/m 20,6 kts (5 Bft) W-SW 257 0 min 0,0 UV-I 0 W/m -6,5 C -18,6 C 23,5 kts (6 Bft) 100,00 %
20.01.2022 18:17 -2,1 C 72 % 1019,3 hPa 0,0 l/m 13,1 kts (4 Bft) W-SW 254 0 min 0,0 UV-I 0 W/m -6,5 C -14,3 C 15,7 kts (5 Bft) 95,65 %
20.01.2022 18:16 -2,1 C 72 % 1019,3 hPa 0,0 l/m 17,5 kts (5 Bft) W-SW 250 0 min 0,0 UV-I 0 W/m -6,5 C -17,1 C 21,7 kts (6 Bft) 93,33 %
20.01.2022 18:15 -2,1 C 72 % 1019,0 hPa 0,0 l/m 15,6 kts (5 Bft) W 259 0 min 0,0 UV-I 0 W/m -6,5 C -16,0 C 18,3 kts (5 Bft) 100,00 %
20.01.2022 18:14 -2,1 C 72 % 1019,1 hPa 0,0 l/m 14,5 kts (4 Bft) W 261 0 min 0,0 UV-I 0 W/m -6,5 C -15,3 C 20,0 kts (5 Bft) 97,87 %
20.01.2022 18:13 -2,1 C 72 % 1019,1 hPa 0,0 l/m 14,9 kts (4 Bft) W-SW 250 0 min 0,0 UV-I 0 W/m -6,5 C -15,5 C 16,5 kts (5 Bft) 98,95 %
20.01.2022 18:12 -2,1 C 72 % 1019,0 hPa 0,0 l/m 18,6 kts (5 Bft) W 261 0 min 0,0 UV-I 0 W/m -6,5 C -17,7 C 21,7 kts (6 Bft) 100,00 %
20.01.2022 18:11 -2,1 C 72 % 1019,0 hPa 0,0 l/m 15,7 kts (5 Bft) W-SW 251 0 min 0,0 UV-I 0 W/m -6,5 C -16,1 C 21,7 kts (6 Bft) 91,67 %
20.01.2022 18:10 -2,1 C 72 % 1019,0 hPa 0,0 l/m 15,8 kts (5 Bft) W 264 0 min 0,0 UV-I 0 W/m -6,5 C -16,1 C 20,8 kts (5 Bft) 100,00 %
20.01.2022 18:09 -2,1 C 72 % 1019,0 hPa 0,0 l/m 14,1 kts (4 Bft) W-NW 294 0 min 0,0 UV-I 0 W/m -6,5 C -15,0 C 15,7 kts (5 Bft) 95,83 %
20.01.2022 18:08 -2,1 C 72 % 1019,0 hPa 0,0 l/m 11,3 kts (4 Bft) W-SW 253 0 min 0,0 UV-I 0 W/m -6,5 C -12,8 C 15,7 kts (5 Bft) 100,00 %
20.01.2022 18:07 -2,1 C 72 % 1018,9 hPa 0,0 l/m 13,9 kts (4 Bft) W 272 0 min 0,0 UV-I 0 W/m -6,5 C -14,9 C 16,5 kts (5 Bft) 96,55 %
20.01.2022 18:06 -2,1 C 72 % 1019,0 hPa 0,0 l/m 15,9 kts (5 Bft) W 265 0 min 0,0 UV-I 0 W/m -6,5 C -16,2 C 17,4 kts (5 Bft) 96,97 %
20.01.2022 18:05 -2,1 C 72 % 1019,0 hPa 0,0 l/m 15,9 kts (5 Bft) W 269 0 min 0,0 UV-I 0 W/m -6,5 C -16,2 C 21,7 kts (6 Bft) 98,96 %
20.01.2022 18:04 -2,1 C 72 % 1018,9 hPa 0,0 l/m 14,5 kts (4 Bft) W-SW 257 0 min 0,0 UV-I 0 W/m -6,5 C -15,3 C 17,4 kts (5 Bft) 96,15 %
20.01.2022 18:03 -2,1 C 72 % 1018,9 hPa 0,0 l/m 15,3 kts (4 Bft) W 265 0 min 0,0 UV-I 0 W/m -6,5 C -15,8 C 18,3 kts (5 Bft) 100,00 %
20.01.2022 18:02 -2,1 C 72 % 1018,9 hPa 0,0 l/m 15,9 kts (5 Bft) W-SW 252 0 min 0,0 UV-I 0 W/m -6,5 C -16,2 C 20,0 kts (5 Bft) 100,00 %
20.01.2022 18:01 -2,1 C 72 % 1018,8 hPa 0,0 l/m 16,4 kts (5 Bft) W 264 0 min 0,0 UV-I 0 W/m -6,5 C -16,5 C 20,8 kts (5 Bft) 100,00 %
20.01.2022 18:00 -2,0 C 72 % 1018,8 hPa 0,0 l/m 15,4 kts (4 Bft) W 261 0 min 0,0 UV-I 0 W/m -6,4 C -15,7 C 17,4 kts (5 Bft) 96,55 %
20.01.2022 17:59 -2,1 C 72 % 1018,8 hPa 0,0 l/m 17,5 kts (5 Bft) W-SW 253 0 min 0,0 UV-I 0 W/m -6,5 C -17,1 C 20,8 kts (5 Bft) 100,00 %
20.01.2022 17:58 -2,1 C 73 % 1018,8 hPa 0,0 l/m 18,7 kts (5 Bft) W 260 0 min 0,0 UV-I 0 W/m -6,3 C -17,7 C 21,7 kts (6 Bft) 100,00 %
20.01.2022 17:57 -2,1 C 72 % 1018,9 hPa 0,0 l/m 20,4 kts (5 Bft) W 266 0 min 0,0 UV-I 0 W/m -6,5 C -18,5 C 24,4 kts (6 Bft) 100,00 %
20.01.2022 17:56 -2,1 C 73 % 1018,8 hPa 0,0 l/m 19,4 kts (5 Bft) W 261 0 min 0,0 UV-I 0 W/m -6,3 C -18,1 C 21,7 kts (6 Bft) 100,00 %
20.01.2022 17:55 -2,1 C 73 % 1018,8 hPa 0,0 l/m 14,1 kts (4 Bft) W 261 0 min 0,0 UV-I 0 W/m -6,3 C -15,0 C 19,1 kts (5 Bft) 98,96 %
20.01.2022 17:54 -2,0 C 73 % 1018,8 hPa 0,0 l/m 15,9 kts (5 Bft) W 259 0 min 0,0 UV-I 0 W/m -6,2 C -16,1 C 20,0 kts (5 Bft) 100,00 %
20.01.2022 17:53 -2,0 C 73 % 1018,7 hPa 0,0 l/m 15,9 kts (5 Bft) W 264 0 min 0,0 UV-I 0 W/m -6,2 C -16,0 C 20,8 kts (5 Bft) 100,00 %
20.01.2022 17:52 -2,1 C 74 % 1018,8 hPa 0,0 l/m 17,9 kts (5 Bft) W-NW 286 0 min 0,0 UV-I 0 W/m -6,1 C -17,3 C 20,8 kts (5 Bft) 100,00 %
20.01.2022 17:51 -2,0 C 74 % 1018,8 hPa 0,0 l/m 19,5 kts (5 Bft) W 273 0 min 0,0 UV-I 0 W/m -6,0 C -18,0 C 23,5 kts (6 Bft) 100,00 %
20.01.2022 17:50 -2,0 C 74 % 1018,9 hPa 0,0 l/m 16,7 kts (5 Bft) W 265 0 min 0,0 UV-I 0 W/m -6,0 C -16,5 C 20,0 kts (5 Bft) 100,00 %
20.01.2022 17:49 -2,0 C 74 % 1018,8 hPa 0,0 l/m 19,0 kts (5 Bft) W 263 0 min 0,0 UV-I 0 W/m -6,0 C -17,7 C 22,6 kts (6 Bft) 100,00 %
20.01.2022 17:48 -2,0 C 74 % 1018,7 hPa 0,0 l/m 17,1 kts (5 Bft) W-SW 257 0 min 0,0 UV-I 0 W/m -6,0 C -16,7 C 18,3 kts (5 Bft) 100,00 %
20.01.2022 17:47 -2,0 C 75 % 1018,7 hPa 0,0 l/m 15,1 kts (4 Bft) W 270 0 min 0,0 UV-I 0 W/m -5,8 C -15,5 C 20,8 kts (5 Bft) 100,00 %
20.01.2022 17:46 -2,0 C 75 % 1018,7 hPa 0,0 l/m 17,4 kts (5 Bft) W-SW 257 0 min 0,0 UV-I 0 W/m -5,8 C -16,9 C 22,6 kts (6 Bft) 100,00 %
20.01.2022 17:45 -2,0 C 75 % 1018,6 hPa 0,0 l/m 16,5 kts (5 Bft) W 261 0 min 0,0 UV-I 0 W/m -5,8 C -16,4 C 20,0 kts (5 Bft) 100,00 %
20.01.2022 17:44 -2,0 C 75 % 1018,7 hPa 0,0 l/m 14,6 kts (4 Bft) W 269 0 min 0,0 UV-I 0 W/m -5,8 C -15,2 C 19,1 kts (5 Bft) 100,00 %
20.01.2022 17:43 -1,9 C 76 % 1018,7 hPa 0,0 l/m 15,8 kts (5 Bft) W-SW 257 0 min 0,0 UV-I 0 W/m -5,6 C -15,8 C 19,1 kts (5 Bft) 96,55 %
20.01.2022 17:42 -1,9 C 76 % 1018,7 hPa 0,0 l/m 15,3 kts (4 Bft) W 273 0 min 0,0 UV-I 0 W/m -5,6 C -15,5 C 19,1 kts (5 Bft) 100,00 %
20.01.2022 17:41 -1,9 C 76 % 1018,7 hPa 0,0 l/m 20,7 kts (5 Bft) W-NW 286 0 min 0,0 UV-I 0 W/m -5,6 C -18,4 C 24,4 kts (6 Bft) 100,00 %
20.01.2022 17:40 -1,9 C 76 % 1018,6 hPa 0,0 l/m 16,0 kts (5 Bft) W 266 0 min 0,0 UV-I 0 W/m -5,6 C -15,9 C 22,6 kts (6 Bft) 100,00 %
20.01.2022 17:39 -1,9 C 76 % 1018,5 hPa 0,0 l/m 16,5 kts (5 Bft) W 271 0 min 0,0 UV-I 0 W/m -5,6 C -16,2 C 20,0 kts (5 Bft) 100,00 %
20.01.2022 17:38 -1,9 C 76 % 1018,5 hPa 0,0 l/m 16,4 kts (5 Bft) W 273 0 min 0,0 UV-I 0 W/m -5,6 C -16,2 C 18,3 kts (5 Bft) 100,00 %
20.01.2022 17:37 -1,8 C 76 % 1018,6 hPa 0,0 l/m 16,1 kts (5 Bft) W 263 0 min 0,0 UV-I 0 W/m -5,5 C -15,9 C 19,1 kts (5 Bft) 100,00 %
20.01.2022 17:36 -1,8 C 77 % 1018,5 hPa 0,0 l/m 17,7 kts (5 Bft) W 261 0 min 0,0 UV-I 0 W/m -5,3 C -16,8 C 20,8 kts (5 Bft) 100,00 %
20.01.2022 17:35 -1,8 C 77 % 1018,5 hPa 0,0 l/m 15,6 kts (4 Bft) W-SW 258 0 min 0,0 UV-I 0 W/m -5,3 C -15,5 C 17,4 kts (5 Bft) 95,65 %
20.01.2022 17:34 -1,8 C 77 % 1018,5 hPa 0,0 l/m 15,9 kts (5 Bft) W 271 0 min 0,0 UV-I 0 W/m -5,3 C -15,7 C 18,3 kts (5 Bft) 100,00 %
20.01.2022 17:33 -1,8 C 77 % 1018,6 hPa 0,0 l/m 14,3 kts (4 Bft) W 263 0 min 0,0 UV-I 0 W/m -5,3 C -14,7 C 17,4 kts (5 Bft) 100,00 %
20.01.2022 17:32 -1,8 C 77 % 1018,6 hPa 0,0 l/m 15,0 kts (4 Bft) W 278 0 min 0,0 UV-I 0 W/m -5,3 C -15,2 C 18,3 kts (5 Bft) 100,00 %
20.01.2022 17:31 -1,7 C 77 % 1018,5 hPa 0,0 l/m 14,6 kts (4 Bft) W 280 0 min 0,0 UV-I 0 W/m -5,2 C -14,8 C 17,4 kts (5 Bft) 100,00 %
20.01.2022 17:30 -1,7 C 78 % 1018,6 hPa 0,0 l/m 14,0 kts (4 Bft) W-SW 258 0 min 0,0 UV-I 0 W/m -5,0 C -14,4 C 16,5 kts (5 Bft) 100,00 %
20.01.2022 17:29 -1,7 C 78 % 1018,5 hPa 0,0 l/m 13,8 kts (4 Bft) W 268 0 min 0,0 UV-I 0 W/m -5,0 C -14,2 C 17,4 kts (5 Bft) 100,00 %
20.01.2022 17:28 -1,7 C 78 % 1018,5 hPa 0,0 l/m 14,1 kts (4 Bft) W 271 0 min 0,0 UV-I 0 W/m -5,0 C -14,5 C 16,5 kts (5 Bft) 100,00 %
20.01.2022 17:27 -1,7 C 78 % 1018,5 hPa 0,0 l/m 15,1 kts (4 Bft) W 271 0 min 0,0 UV-I 0 W/m -5,0 C -15,1 C 17,4 kts (5 Bft) 100,00 %
20.01.2022 17:26 -1,7 C 79 % 1018,5 hPa 0,0 l/m 13,7 kts (4 Bft) W 266 0 min 0,0 UV-I 0 W/m -4,8 C -14,1 C 18,3 kts (5 Bft) 100,00 %
20.01.2022 17:25 -1,7 C 79 % 1018,5 hPa 0,0 l/m 16,7 kts (5 Bft) W 264 0 min 0,0 UV-I 0 W/m -4,8 C -16,1 C 20,8 kts (5 Bft) 100,00 %
20.01.2022 17:24 -1,7 C 79 % 1018,5 hPa 0,0 l/m 15,6 kts (4 Bft) W 267 0 min 0,0 UV-I 0 W/m -4,8 C -15,4 C 20,8 kts (5 Bft) 100,00 %
20.01.2022 17:23 -1,7 C 80 % 1018,5 hPa 0,0 l/m 14,5 kts (4 Bft) W 278 0 min 0,0 UV-I 0 W/m -4,7 C -14,7 C 18,3 kts (5 Bft) 100,00 %
20.01.2022 17:22 -1,6 C 80 % 1018,6 hPa 0,0 l/m 15,4 kts (4 Bft) W 279 0 min 0,0 UV-I 0 W/m -4,6 C -15,2 C 19,1 kts (5 Bft) 100,00 %
20.01.2022 17:21 -1,6 C 80 % 1018,5 hPa 0,0 l/m 16,9 kts (5 Bft) W-NW 283 0 min 0,0 UV-I 0 W/m -4,6 C -16,1 C 20,8 kts (5 Bft) 96,55 %
20.01.2022 17:20 -1,6 C 81 % 1018,5 hPa 0,0 l/m 15,2 kts (4 Bft) W 280 0 min 0,0 UV-I 0 W/m -4,4 C -15,0 C 18,3 kts (5 Bft) 100,00 %
20.01.2022 17:19 -1,6 C 81 % 1018,4 hPa 0,0 l/m 14,8 kts (4 Bft) W 275 0 min 0,0 UV-I 0 W/m -4,4 C -14,8 C 19,1 kts (5 Bft) 100,00 %
20.01.2022 17:18 -1,6 C 81 % 1018,4 hPa 0,0 l/m 16,3 kts (5 Bft) W 267 0 min 0,0 UV-I 0 W/m -4,4 C -15,7 C 20,8 kts (5 Bft) 93,55 %
20.01.2022 17:17 -1,6 C 81 % 1018,4 hPa 0,0 l/m 15,9 kts (5 Bft) W-NW 282 0 min 0,0 UV-I 0 W/m -4,4 C -15,5 C 21,7 kts (6 Bft) 100,00 %
20.01.2022 17:16 -1,5 C 81 % 1018,3 hPa 0,0 l/m 15,6 kts (4 Bft) W 271 0 min 0,0 UV-I 0 W/m -4,3 C -15,1 C 20,0 kts (5 Bft) 100,00 %
20.01.2022 17:15 -1,5 C 81 % 1018,4 hPa 0,0 l/m 17,0 kts (5 Bft) W 279 0 min 0,0 UV-I 0 W/m -4,3 C -16,0 C 20,8 kts (5 Bft) 96,55 %
20.01.2022 17:14 -1,5 C 82 % 1018,4 hPa 0,0 l/m 12,3 kts (4 Bft) W-NW 286 0 min 0,0 UV-I 0 W/m -4,2 C -12,9 C 20,0 kts (5 Bft) 90,62 %
20.01.2022 17:13 -1,4 C 82 % 1018,3 hPa 0,0 l/m 11,3 kts (4 Bft) W 272 0 min 0,0 UV-I 0 W/m -4,1 C -11,9 C 13,9 kts (4 Bft) 100,00 %
20.01.2022 17:12 -1,4 C 82 % 1018,4 hPa 0,0 l/m 11,6 kts (4 Bft) W-NW 290 0 min 0,0 UV-I 0 W/m -4,1 C -12,1 C 15,7 kts (5 Bft) 96,00 %
20.01.2022 17:10 -1,3 C 82 % 1018,4 hPa 0,0 l/m 12,4 kts (4 Bft) W-NW 283 0 min 0,0 UV-I 0 W/m -4,0 C -12,7 C 14,8 kts (4 Bft) 100,00 %
20.01.2022 17:09 -1,3 C 82 % 1018,5 hPa 0,0 l/m 12,6 kts (4 Bft) W 274 0 min 0,0 UV-I 0 W/m -4,0 C -12,8 C 14,8 kts (4 Bft) 97,44 %
20.01.2022 17:08 -1,2 C 82 % 1018,5 hPa 0,0 l/m 12,0 kts (4 Bft) W 266 0 min 0,0 UV-I 0 W/m -3,9 C -12,2 C 13,9 kts (4 Bft) 100,00 %
20.01.2022 17:07 -1,3 C 82 % 1018,5 hPa 0,0 l/m 12,6 kts (4 Bft) W 262 0 min 0,0 UV-I 0 W/m -4,0 C -12,8 C 13,9 kts (4 Bft) 91,67 %
20.01.2022 17:06 -1,2 C 82 % 1018,5 hPa 0,0 l/m 12,9 kts (4 Bft) W 267 0 min 0,0 UV-I 0 W/m -3,9 C -12,9 C 14,8 kts (4 Bft) 100,00 %
20.01.2022 17:05 -1,2 C 82 % 1018,5 hPa 0,0 l/m 13,9 kts (4 Bft) W 269 0 min 0,0 UV-I 0 W/m -3,9 C -13,6 C 15,7 kts (5 Bft) 98,21 %
20.01.2022 17:04 -1,2 C 82 % 1018,5 hPa 0,0 l/m 16,4 kts (5 Bft) W 265 0 min 0,0 UV-I 0 W/m -3,9 C -15,2 C 17,4 kts (5 Bft) 98,96 %
20.01.2022 17:03 -1,2 C 83 % 1018,4 hPa 0,0 l/m 10,7 kts (3 Bft) W-SW 246 0 min 0,0 UV-I 0 W/m -3,7 C -11,1 C 12,1 kts (4 Bft) 92,86 %
20.01.2022 17:02 -1,2 C 83 % 1018,5 hPa 0,0 l/m 9,8 kts (3 Bft) W 274 0 min 0,0 UV-I 0 W/m -3,7 C -10,3 C 12,1 kts (4 Bft) 100,00 %
20.01.2022 17:01 -1,2 C 83 % 1018,4 hPa 0,0 l/m 11,7 kts (4 Bft) W 267 0 min 0,0 UV-I 0 W/m -3,7 C -11,9 C 14,8 kts (4 Bft) 96,15 %
20.01.2022 17:00 -1,1 C 83 % 1018,4 hPa 0,0 l/m 12,0 kts (4 Bft) W 267 0 min 0,0 UV-I 0 W/m -3,6 C -12,1 C 13,0 kts (4 Bft) 100,00 %
20.01.2022 16:59 -1,2 C 83 % 1018,5 hPa 0,0 l/m 11,1 kts (4 Bft) W-SW 257 0 min 0,0 UV-I 0 W/m -3,7 C -11,4 C 13,0 kts (4 Bft) 96,30 %
20.01.2022 16:58 -1,1 C 83 % 1018,4 hPa 0,0 l/m 11,5 kts (4 Bft) W 267 0 min 0,0 UV-I 0 W/m -3,6 C -11,7 C 14,8 kts (4 Bft) 100,00 %
20.01.2022 16:57 -1,1 C 83 % 1018,5 hPa 0,0 l/m 11,5 kts (4 Bft) W-SW 238 0 min 0,0 UV-I 0 W/m -3,6 C -11,7 C 13,9 kts (4 Bft) 100,00 %
20.01.2022 16:56 -1,1 C 83 % 1018,4 hPa 0,0 l/m 12,4 kts (4 Bft) W 276 0 min 0,0 UV-I 0 W/m -3,6 C -12,4 C 13,9 kts (4 Bft) 100,00 %
20.01.2022 16:55 -1,1 C 83 % 1018,4 hPa 0,0 l/m 12,8 kts (4 Bft) W-SW 254 0 min 0,0 UV-I 0 W/m -3,6 C -12,7 C 15,7 kts (5 Bft) 100,00 %
20.01.2022 16:54 -1,1 C 83 % 1018,4 hPa 0,0 l/m 14,3 kts (4 Bft) W 263 0 min 0,0 UV-I 0 W/m -3,6 C -13,7 C 16,5 kts (5 Bft) 100,00 %
20.01.2022 16:53 -1,1 C 83 % 1018,4 hPa 0,0 l/m 12,0 kts (4 Bft) W 259 0 min 0,0 UV-I 0 W/m -3,6 C -12,1 C 14,8 kts (4 Bft) 100,00 %
20.01.2022 16:52 -1,1 C 83 % 1018,5 hPa 0,0 l/m 9,6 kts (3 Bft) W 261 0 min 0,0 UV-I 0 W/m -3,6 C -9,9 C 10,4 kts (3 Bft) 100,00 %
20.01.2022 16:51 -1,1 C 83 % 1018,5 hPa 0,0 l/m 11,4 kts (4 Bft) W-NW 286 0 min 0,0 UV-I 0 W/m -3,6 C -11,6 C 13,9 kts (4 Bft) 100,00 %
20.01.2022 16:50 -1,1 C 83 % 1018,5 hPa 0,0 l/m 9,9 kts (3 Bft) W 259 0 min 0,0 UV-I 0 W/m -3,6 C -10,3 C 12,1 kts (4 Bft) 100,00 %
20.01.2022 16:49 -1,1 C 83 % 1018,5 hPa 0,0 l/m 9,8 kts (3 Bft) W 279 0 min 0,0 UV-I 0 W/m -3,6 C -10,1 C 12,1 kts (4 Bft) 100,00 %
20.01.2022 16:48 -1,1 C 83 % 1018,5 hPa 0,0 l/m 10,0 kts (3 Bft) W-SW 246 0 min 0,0 UV-I 0 W/m -3,6 C -10,4 C 14,8 kts (4 Bft) 100,00 %
20.01.2022 16:47 -1,1 C 83 % 1018,4 hPa 0,0 l/m 11,7 kts (4 Bft) W 268 0 min 0,0 UV-I 0 W/m -3,6 C -11,8 C 14,8 kts (4 Bft) 100,00 %
20.01.2022 16:46 -1,1 C 83 % 1018,4 hPa 0,0 l/m 10,9 kts (4 Bft) W 277 0 min 0,0 UV-I 0 W/m -3,6 C -11,1 C 12,1 kts (4 Bft) 95,12 %
20.01.2022 16:45 -1,1 C 83 % 1018,3 hPa 0,0 l/m 12,9 kts (4 Bft) W-SW 257 0 min 0,0 UV-I 0 W/m -3,6 C -12,8 C 15,7 kts (5 Bft) 98,97 %
20.01.2022 16:44 -1,1 C 83 % 1018,3 hPa 0,0 l/m 11,1 kts (4 Bft) W 279 0 min 0,0 UV-I 0 W/m -3,6 C -11,3 C 13,0 kts (4 Bft) 100,00 %
20.01.2022 16:43 -1,1 C 83 % 1018,3 hPa 0,0 l/m 11,2 kts (4 Bft) W 277 0 min 0,0 UV-I 0 W/m -3,6 C -11,4 C 13,0 kts (4 Bft) 100,00 %
20.01.2022 16:42 -1,1 C 83 % 1018,2 hPa 0,0 l/m 11,8 kts (4 Bft) W-SW 251 0 min 0,0 UV-I 0 W/m -3,6 C -11,9 C 13,0 kts (4 Bft) 100,00 %
20.01.2022 16:41 -1,1 C 83 % 1018,2 hPa 0,0 l/m 12,4 kts (4 Bft) W 267 0 min 0,0 UV-I 0 W/m -3,6 C -12,4 C 14,8 kts (4 Bft) 100,00 %
20.01.2022 16:40 -1,1 C 84 % 1018,3 hPa 0,0 l/m 8,1 kts (3 Bft) W-SW 252 0 min 0,0 UV-I 0 W/m -3,4 C -8,3 C 9,6 kts (3 Bft) 100,00 %
20.01.2022 16:39 -1,1 C 84 % 1018,3 hPa 0,0 l/m 10,5 kts (3 Bft) W 259 0 min 0,0 UV-I 0 W/m -3,4 C -10,8 C 13,9 kts (4 Bft) 100,00 %
20.01.2022 16:38 -1,1 C 84 % 1018,3 hPa 0,0 l/m 13,6 kts (4 Bft) W 267 0 min 0,0 UV-I 0 W/m -3,4 C -13,2 C 16,5 kts (5 Bft) 100,00 %
20.01.2022 16:37 -1,1 C 84 % 1018,4 hPa 0,0 l/m 11,9 kts (4 Bft) W 265 0 min 0,0 UV-I 0 W/m -3,4 C -12,0 C 13,0 kts (4 Bft) 100,00 %
20.01.2022 16:36 -1,1 C 84 % 1018,3 hPa 0,0 l/m 13,7 kts (4 Bft) W-SW 247 0 min 0,0 UV-I 0 W/m -3,4 C -13,3 C 16,5 kts (5 Bft) 100,00 %
20.01.2022 16:35 -1,1 C 84 % 1018,3 hPa 0,0 l/m 13,7 kts (4 Bft) W 279 0 min 0,0 UV-I 0 W/m -3,4 C -13,4 C 16,5 kts (5 Bft) 100,00 %
20.01.2022 16:34 -1,1 C 84 % 1018,3 hPa 0,0 l/m 12,6 kts (4 Bft) W 265 0 min 0,0 UV-I 0 W/m -3,4 C -12,5 C 14,8 kts (4 Bft) 100,00 %
20.01.2022 16:33 -1,1 C 84 % 1018,3 hPa 0,0 l/m 15,1 kts (4 Bft) W-SW 248 0 min 0,0 UV-I 0 W/m -3,4 C -14,3 C 17,4 kts (5 Bft) 96,15 %
20.01.2022 16:32 -1,1 C 84 % 1018,3 hPa 0,0 l/m 13,8 kts (4 Bft) W-SW 247 0 min 0,0 UV-I 0 W/m -3,4 C -13,4 C 18,3 kts (5 Bft) 100,00 %
20.01.2022 16:31 -1,1 C 84 % 1018,3 hPa 0,0 l/m 11,2 kts (4 Bft) W 275 0 min 0,0 UV-I 0 W/m -3,4 C -11,4 C 12,1 kts (4 Bft) 94,44 %
20.01.2022 16:30 -1,1 C 84 % 1018,3 hPa 0,0 l/m 15,7 kts (5 Bft) W 265 0 min 0,0 UV-I 0 W/m -3,4 C -14,7 C 20,0 kts (5 Bft) 100,00 %
20.01.2022 16:29 -1,1 C 84 % 1018,3 hPa 0,0 l/m 18,3 kts (5 Bft) W 259 0 min 0,0 UV-I 0 W/m -3,4 C -16,1 C 20,0 kts (5 Bft) 100,00 %
20.01.2022 16:28 -1,1 C 84 % 1018,2 hPa 0,0 l/m 17,0 kts (5 Bft) W-SW 251 0 min 0,0 UV-I 0 W/m -3,4 C -15,4 C 19,1 kts (5 Bft) 100,00 %
20.01.2022 16:27 -1,1 C 84 % 1018,2 hPa 0,0 l/m 11,5 kts (4 Bft) W 263 0 min 0,0 UV-I 0 W/m -3,4 C -11,7 C 13,9 kts (4 Bft) 100,00 %
20.01.2022 16:26 -1,1 C 84 % 1018,2 hPa 0,0 l/m 9,0 kts (3 Bft) W 278 0 min 0,0 UV-I 0 W/m -3,4 C -9,3 C 11,3 kts (4 Bft) 95,65 %
20.01.2022 16:25 -1,1 C 84 % 1018,2 hPa 0,0 l/m 11,1 kts (4 Bft) W-SW 252 0 min 0,0 UV-I 5 W/m -3,4 C -11,3 C 15,7 kts (5 Bft) 96,30 %
20.01.2022 16:24 -1,1 C 84 % 1018,2 hPa 0,0 l/m 13,2 kts (4 Bft) W 262 0 min 0,0 UV-I 0 W/m -3,4 C -13,0 C 15,7 kts (5 Bft) 100,00 %
20.01.2022 16:23 -1,1 C 84 % 1018,2 hPa 0,0 l/m 11,1 kts (4 Bft) W 278 0 min 0,0 UV-I 5 W/m -3,4 C -11,3 C 13,9 kts (4 Bft) 100,00 %
20.01.2022 16:22 -1,1 C 84 % 1018,2 hPa 0,0 l/m 11,3 kts (4 Bft) W 269 0 min 0,0 UV-I 5 W/m -3,4 C -11,5 C 13,0 kts (4 Bft) 97,37 %
20.01.2022 16:21 -1,1 C 83 % 1018,1 hPa 0,0 l/m 8,6 kts (3 Bft) W 275 0 min 0,0 UV-I 5 W/m -3,6 C -8,9 C 9,6 kts (3 Bft) 98,96 %
20.01.2022 16:20 -1,1 C 83 % 1018,1 hPa 0,0 l/m 10,0 kts (3 Bft) W-SW 240 0 min 0,0 UV-I 5 W/m -3,6 C -10,3 C 12,1 kts (4 Bft) 100,00 %
20.01.2022 16:19 -1,1 C 83 % 1018,1 hPa 0,0 l/m 11,6 kts (4 Bft) W 265 0 min 0,0 UV-I 7 W/m -3,6 C -11,8 C 13,9 kts (4 Bft) 100,00 %
20.01.2022 16:18 -1,1 C 83 % 1018,0 hPa 0,0 l/m 9,1 kts (3 Bft) W 260 0 min 0,0 UV-I 9 W/m -3,6 C -9,4 C 11,3 kts (4 Bft) 100,00 %
20.01.2022 16:17 -1,1 C 83 % 1018,0 hPa 0,0 l/m 11,9 kts (4 Bft) W-SW 257 0 min 0,0 UV-I 9 W/m -3,6 C -12,0 C 13,9 kts (4 Bft) 100,00 %
20.01.2022 16:16 -1,1 C 83 % 1018,0 hPa 0,0 l/m 12,6 kts (4 Bft) W 272 0 min 0,0 UV-I 9 W/m -3,6 C -12,6 C 15,7 kts (5 Bft) 100,00 %
20.01.2022 16:15 -1,2 C 83 % 1018,0 hPa 0,0 l/m 14,5 kts (4 Bft) W 277 0 min 0,0 UV-I 9 W/m -3,7 C -14,1 C 19,1 kts (5 Bft) 100,00 %
20.01.2022 16:14 -1,2 C 83 % 1017,9 hPa 0,0 l/m 15,1 kts (4 Bft) W 264 0 min 0,0 UV-I 9 W/m -3,7 C -14,4 C 18,3 kts (5 Bft) 100,00 %
20.01.2022 16:13 -1,2 C 83 % 1017,9 hPa 0,0 l/m 11,2 kts (4 Bft) W 269 0 min 0,0 UV-I 9 W/m -3,7 C -11,6 C 13,9 kts (4 Bft) 100,00 %
20.01.2022 16:12 -1,2 C 84 % 1017,8 hPa 0,0 l/m 10,4 kts (3 Bft) W-SW 250 0 min 0,0 UV-I 11 W/m -3,5 C -10,8 C 12,1 kts (4 Bft) 100,00 %
20.01.2022 16:11 -1,2 C 84 % 1017,9 hPa 0,0 l/m 11,2 kts (4 Bft) W 269 0 min 0,0 UV-I 11 W/m -3,5 C -11,5 C 16,5 kts (5 Bft) 100,00 %
20.01.2022 16:10 -1,3 C 84 % 1017,9 hPa 0,0 l/m 13,8 kts (4 Bft) W 271 0 min 0,0 UV-I 12 W/m -3,6 C -13,7 C 17,4 kts (5 Bft) 96,15 %
20.01.2022 16:09 -1,3 C 84 % 1017,8 hPa 0,0 l/m 17,7 kts (5 Bft) W 267 0 min 0,0 UV-I 12 W/m -3,6 C -16,0 C 21,7 kts (6 Bft) 100,00 %
20.01.2022 16:08 -1,3 C 84 % 1018,0 hPa 0,0 l/m 16,0 kts (5 Bft) W 264 0 min 0,0 UV-I 14 W/m -3,6 C -15,1 C 20,8 kts (5 Bft) 100,00 %
20.01.2022 16:07 -1,3 C 84 % 1017,9 hPa 0,0 l/m 12,2 kts (4 Bft) W 265 0 min 0,0 UV-I 16 W/m -3,6 C -12,5 C 14,8 kts (4 Bft) 95,83 %
20.01.2022 16:06 -1,3 C 84 % 1018,0 hPa 0,0 l/m 14,8 kts (4 Bft) W-NW 287 0 min 0,0 UV-I 16 W/m -3,6 C -14,4 C 20,0 kts (5 Bft) 100,00 %
20.01.2022 16:05 -1,3 C 84 % 1017,9 hPa 0,0 l/m 11,0 kts (4 Bft) W 267 0 min 0,0 UV-I 16 W/m -3,6 C -11,5 C 14,8 kts (4 Bft) 95,83 %
20.01.2022 16:04 -1,3 C 84 % 1017,8 hPa 0,0 l/m 14,6 kts (4 Bft) W 277 0 min 0,0 UV-I 18 W/m -3,6 C -14,2 C 20,8 kts (5 Bft) 100,00 %
20.01.2022 16:03 -1,3 C 85 % 1017,9 hPa 0,0 l/m 16,0 kts (5 Bft) W 273 0 min 0,0 UV-I 16 W/m -3,5 C -15,1 C 21,7 kts (6 Bft) 96,55 %
20.01.2022 16:02 -1,3 C 85 % 1017,8 hPa 0,0 l/m 16,8 kts (5 Bft) W 265 0 min 0,0 UV-I 16 W/m -3,5 C -15,6 C 20,8 kts (5 Bft) 100,00 %
20.01.2022 16:01 -1,3 C 85 % 1017,7 hPa 0,0 l/m 17,0 kts (5 Bft) W-NW 290 0 min 0,0 UV-I 16 W/m -3,5 C -15,7 C 22,6 kts (6 Bft) 88,46 %
20.01.2022 16:00 -1,3 C 85 % 1017,7 hPa 0,0 l/m 14,6 kts (4 Bft) W 270 0 min 0,0 UV-I 16 W/m -3,5 C -14,3 C 18,3 kts (5 Bft) 100,00 %
20.01.2022 15:59 -1,3 C 85 % 1017,7 hPa 0,0 l/m 16,5 kts (5 Bft) W-NW 284 0 min 0,0 UV-I 18 W/m -3,5 C -15,4 C 19,1 kts (5 Bft) 92,31 %
20.01.2022 15:58 -1,3 C 85 % 1017,7 hPa 0,0 l/m 13,7 kts (4 Bft) W 263 0 min 0,0 UV-I 19 W/m -3,5 C -13,6 C 19,1 kts (5 Bft) 96,67 %
20.01.2022 15:57 -1,3 C 85 % 1017,7 hPa 0,0 l/m 8,6 kts (3 Bft) W-SW 257 0 min 0,0 UV-I 18 W/m -3,5 C -9,2 C 10,4 kts (3 Bft) 100,00 %
20.01.2022 15:56 -1,3 C 84 % 1017,8 hPa 0,0 l/m 8,6 kts (3 Bft) W-NW 283 0 min 0,0 UV-I 16 W/m -3,6 C -9,2 C 11,3 kts (4 Bft) 100,00 %
20.01.2022 15:55 -1,3 C 84 % 1017,9 hPa 0,0 l/m 9,7 kts (3 Bft) W 262 0 min 0,0 UV-I 14 W/m -3,6 C -10,3 C 11,3 kts (4 Bft) 95,65 %
20.01.2022 15:54 -1,3 C 84 % 1017,9 hPa 0,0 l/m 10,2 kts (3 Bft) W 271 0 min 0,0 UV-I 14 W/m -3,6 C -10,7 C 13,0 kts (4 Bft) 100,00 %
20.01.2022 15:53 -1,3 C 84 % 1017,8 hPa 0,0 l/m 11,3 kts (4 Bft) W 261 0 min 0,0 UV-I 12 W/m -3,6 C -11,8 C 13,0 kts (4 Bft) 95,65 %
20.01.2022 15:52 -1,3 C 84 % 1017,8 hPa 0,0 l/m 12,4 kts (4 Bft) W 262 0 min 0,0 UV-I 12 W/m -3,6 C -12,6 C 17,4 kts (5 Bft) 97,22 %
20.01.2022 15:51 -1,3 C 84 % 1017,8 hPa 0,0 l/m 10,6 kts (3 Bft) W-NW 287 0 min 0,0 UV-I 12 W/m -3,6 C -11,2 C 13,0 kts (4 Bft) 100,00 %
20.01.2022 15:50 -1,3 C 84 % 1017,8 hPa 0,0 l/m 10,9 kts (4 Bft) W 270 0 min 0,0 UV-I 14 W/m -3,6 C -11,4 C 14,8 kts (4 Bft) 100,00 %
20.01.2022 15:49 -1,2 C 84 % 1017,8 hPa 0,0 l/m 12,3 kts (4 Bft) W 265 0 min 0,0 UV-I 16 W/m -3,5 C -12,5 C 15,7 kts (5 Bft) 95,65 %
20.01.2022 15:48 -1,3 C 84 % 1017,8 hPa 0,0 l/m 10,3 kts (3 Bft) W 275 0 min 0,0 UV-I 18 W/m -3,6 C -10,8 C 11,3 kts (4 Bft) 100,00 %
20.01.2022 15:47 -1,3 C 83 % 1017,8 hPa 0,0 l/m 14,9 kts (4 Bft) W 272 0 min 0,0 UV-I 19 W/m -3,8 C -14,4 C 17,4 kts (5 Bft) 100,00 %
20.01.2022 15:46 -1,3 C 83 % 1017,8 hPa 0,0 l/m 17,0 kts (5 Bft) W 269 0 min 0,0 UV-I 21 W/m -3,8 C -15,7 C 20,8 kts (5 Bft) 100,00 %
20.01.2022 15:45 -1,3 C 83 % 1017,7 hPa 0,0 l/m 13,7 kts (4 Bft) W 259 0 min 0,0 UV-I 25 W/m -3,8 C -13,6 C 19,1 kts (5 Bft) 88,24 %
20.01.2022 15:44 -1,3 C 83 % 1017,8 hPa 0,0 l/m 15,0 kts (4 Bft) W 269 0 min 0,0 UV-I 25 W/m -3,8 C -14,5 C 20,8 kts (5 Bft) 100,00 %
20.01.2022 15:43 -1,2 C 83 % 1017,7 hPa 0,0 l/m 16,6 kts (5 Bft) W 267 0 min 0,0 UV-I 23 W/m -3,7 C -15,3 C 20,0 kts (5 Bft) 100,00 %
20.01.2022 15:42 -1,2 C 83 % 1017,6 hPa 0,0 l/m 15,0 kts (4 Bft) W 269 0 min 0,0 UV-I 21 W/m -3,7 C -14,3 C 21,7 kts (6 Bft) 100,00 %
20.01.2022 15:41 -1,3 C 83 % 1017,6 hPa 0,0 l/m 12,7 kts (4 Bft) W 265 0 min 0,0 UV-I 19 W/m -3,8 C -12,9 C 15,7 kts (5 Bft) 100,00 %
20.01.2022 15:40 -1,2 C 83 % 1017,7 hPa 0,0 l/m 12,0 kts (4 Bft) W 271 0 min 0,0 UV-I 21 W/m -3,7 C -12,2 C 13,9 kts (4 Bft) 100,00 %
20.01.2022 15:39 -1,2 C 83 % 1017,6 hPa 0,0 l/m 11,7 kts (4 Bft) W 276 0 min 0,0 UV-I 26 W/m -3,7 C -12,0 C 13,9 kts (4 Bft) 100,00 %
20.01.2022 15:38 -1,2 C 82 % 1017,7 hPa 0,0 l/m 12,1 kts (4 Bft) W 268 0 min 0,0 UV-I 30 W/m -3,9 C -12,3 C 15,7 kts (5 Bft) 100,00 %
20.01.2022 15:37 -1,2 C 82 % 1017,7 hPa 0,0 l/m 15,4 kts (4 Bft) W 264 0 min 0,0 UV-I 26 W/m -3,9 C -14,6 C 22,6 kts (6 Bft) 100,00 %
20.01.2022 15:36 -1,2 C 82 % 1017,7 hPa 0,0 l/m 15,1 kts (4 Bft) W 271 0 min 0,0 UV-I 21 W/m -3,9 C -14,4 C 22,6 kts (6 Bft) 100,00 %
20.01.2022 15:35 -1,2 C 82 % 1017,8 hPa 0,0 l/m 16,5 kts (5 Bft) NW 304 0 min 0,0 UV-I 19 W/m -3,9 C -15,3 C 21,7 kts (6 Bft) 96,15 %
20.01.2022 15:34 -1,2 C 82 % 1017,8 hPa 0,0 l/m 11,8 kts (4 Bft) W 267 0 min 0,0 UV-I 18 W/m -3,9 C -12,0 C 13,9 kts (4 Bft) 100,00 %
20.01.2022 15:33 -1,2 C 82 % 1017,7 hPa 0,0 l/m 11,9 kts (4 Bft) W 261 0 min 0,0 UV-I 21 W/m -3,9 C -12,1 C 13,9 kts (4 Bft) 100,00 %
20.01.2022 15:32 -1,2 C 82 % 1017,8 hPa 0,0 l/m 13,1 kts (4 Bft) W 278 0 min 0,0 UV-I 26 W/m -3,9 C -13,0 C 15,7 kts (5 Bft) 100,00 %
20.01.2022 15:31 -1,2 C 82 % 1017,8 hPa 0,0 l/m 13,9 kts (4 Bft) W 269 0 min 0,0 UV-I 35 W/m -3,9 C -13,6 C 16,5 kts (5 Bft) 100,00 %
20.01.2022 15:30 -1,2 C 82 % 1017,8 hPa 0,0 l/m 14,8 kts (4 Bft) W-NW 286 0 min 0,0 UV-I 40 W/m -3,9 C -14,2 C 18,3 kts (5 Bft) 100,00 %
20.01.2022 15:29 -1,2 C 82 % 1017,7 hPa 0,0 l/m 16,0 kts (5 Bft) W-NW 282 0 min 0,0 UV-I 39 W/m -3,9 C -15,0 C 20,8 kts (5 Bft) 100,00 %
20.01.2022 15:28 -1,2 C 81 % 1017,8 hPa 0,0 l/m 13,4 kts (4 Bft) W-NW 294 0 min 0,0 UV-I 37 W/m -4,0 C -13,3 C 14,8 kts (4 Bft) 100,00 %
20.01.2022 15:27 -1,2 C 81 % 1017,8 hPa 0,0 l/m 12,2 kts (4 Bft) W 267 0 min 0,0 UV-I 35 W/m -4,0 C -12,4 C 15,7 kts (5 Bft) 100,00 %
20.01.2022 15:25 -1,2 C 81 % 1017,5 hPa 0,0 l/m 10,6 kts (3 Bft) W 271 0 min 0,0 UV-I 44 W/m -4,0 C -11,0 C 13,0 kts (4 Bft) 98,98 %
20.01.2022 15:24 -1,2 C 81 % 1017,5 hPa 0,0 l/m 13,4 kts (4 Bft) W-NW 296 0 min 0,0 UV-I 46 W/m -4,0 C -13,3 C 16,5 kts (5 Bft) 100,00 %
20.01.2022 15:23 -1,2 C 81 % 1017,5 hPa 0,0 l/m 15,6 kts (5 Bft) W-NW 301 0 min 0,0 UV-I 46 W/m -4,0 C -14,7 C 20,0 kts (5 Bft) 100,00 %
20.01.2022 15:22 -1,2 C 81 % 1017,5 hPa 0,0 l/m 11,6 kts (4 Bft) W-NW 288 0 min 0,0 UV-I 42 W/m -4,0 C -11,9 C 13,9 kts (4 Bft) 95,65 %
20.01.2022 15:21 -1,2 C 81 % 1017,5 hPa 0,0 l/m 12,3 kts (4 Bft) W 267 0 min 0,0 UV-I 39 W/m -4,0 C -12,4 C 14,8 kts (4 Bft) 100,00 %
20.01.2022 15:20 -1,2 C 81 % 1017,4 hPa 0,0 l/m 14,7 kts (4 Bft) W 265 0 min 0,0 UV-I 39 W/m -4,0 C -14,2 C 17,4 kts (5 Bft) 100,00 %
20.01.2022 15:19 -1,2 C 81 % 1017,4 hPa 0,0 l/m 13,1 kts (4 Bft) W 272 0 min 0,0 UV-I 42 W/m -4,0 C -13,1 C 15,7 kts (5 Bft) 100,00 %
20.01.2022 15:18 -1,2 C 81 % 1017,5 hPa 0,0 l/m 11,0 kts (4 Bft) W-NW 286 0 min 0,0 UV-I 39 W/m -4,0 C -11,4 C 13,9 kts (4 Bft) 100,00 %
20.01.2022 15:17 -1,2 C 81 % 1017,5 hPa 0,0 l/m 11,0 kts (4 Bft) W-NW 286 0 min 0,0 UV-I 33 W/m -4,0 C -11,3 C 13,0 kts (4 Bft) 100,00 %
20.01.2022 15:16 -1,2 C 81 % 1017,5 hPa 0,0 l/m 9,7 kts (3 Bft) W 279 0 min 0,0 UV-I 33 W/m -4,0 C -10,1 C 11,3 kts (4 Bft) 100,00 %
20.01.2022 15:15 -1,2 C 81 % 1017,5 hPa 0,0 l/m 10,9 kts (4 Bft) W 269 0 min 0,0 UV-I 33 W/m -4,0 C -11,3 C 13,0 kts (4 Bft) 95,65 %
20.01.2022 15:14 -1,2 C 81 % 1017,5 hPa 0,0 l/m 10,5 kts (3 Bft) W 275 0 min 0,0 UV-I 33 W/m -4,0 C -10,9 C 14,8 kts (4 Bft) 100,00 %
20.01.2022 15:13 -1,2 C 81 % 1017,6 hPa 0,0 l/m 10,6 kts (3 Bft) W 276 0 min 0,0 UV-I 33 W/m -4,0 C -11,0 C 12,1 kts (4 Bft) 100,00 %
20.01.2022 15:12 -1,2 C 81 % 1017,5 hPa 0,0 l/m 12,2 kts (4 Bft) W 280 0 min 0,0 UV-I 35 W/m -4,0 C -12,4 C 15,7 kts (5 Bft) 96,55 %
20.01.2022 15:11 -1,2 C 81 % 1017,5 hPa 0,0 l/m 15,0 kts (4 Bft) W 281 0 min 0,0 UV-I 37 W/m -4,0 C -14,4 C 17,4 kts (5 Bft) 100,00 %
20.01.2022 15:10 -1,2 C 81 % 1017,5 hPa 0,0 l/m 14,0 kts (4 Bft) W-NW 282 0 min 0,0 UV-I 40 W/m -4,0 C -13,7 C 16,5 kts (5 Bft) 100,00 %
20.01.2022 15:09 -1,2 C 81 % 1017,4 hPa 0,0 l/m 14,4 kts (4 Bft) W 274 0 min 0,0 UV-I 42 W/m -4,0 C -13,9 C 17,4 kts (5 Bft) 100,00 %
20.01.2022 15:08 -1,3 C 81 % 1017,4 hPa 0,0 l/m 10,5 kts (3 Bft) W 275 0 min 0,0 UV-I 42 W/m -4,1 C -11,1 C 12,1 kts (4 Bft) 98,97 %
20.01.2022 15:07 -1,2 C 81 % 1017,3 hPa 0,0 l/m 12,7 kts (4 Bft) W-NW 287 0 min 0,0 UV-I 42 W/m -4,0 C -12,8 C 16,5 kts (5 Bft) 100,00 %
20.01.2022 15:06 -1,3 C 81 % 1017,4 hPa 0,0 l/m 10,5 kts (3 Bft) W-NW 298 0 min 0,0 UV-I 46 W/m -4,1 C -11,1 C 13,9 kts (4 Bft) 100,00 %
20.01.2022 15:05 -1,3 C 81 % 1017,4 hPa 0,0 l/m 13,2 kts (4 Bft) W-NW 284 0 min 0,0 UV-I 49 W/m -4,1 C -13,3 C 14,8 kts (4 Bft) 100,00 %
20.01.2022 15:04 -1,3 C 81 % 1017,3 hPa 0,0 l/m 12,2 kts (4 Bft) W 276 0 min 0,0 UV-I 51 W/m -4,1 C -12,5 C 13,9 kts (4 Bft) 100,00 %
20.01.2022 15:03 -1,3 C 81 % 1017,3 hPa 0,0 l/m 10,6 kts (3 Bft) W-NW 285 0 min 0,0 UV-I 53 W/m -4,1 C -11,1 C 14,8 kts (4 Bft) 100,00 %
20.01.2022 15:02 -1,3 C 81 % 1017,3 hPa 0,0 l/m 13,5 kts (4 Bft) W-NW 296 0 min 0,0 UV-I 54 W/m -4,1 C -13,5 C 18,3 kts (5 Bft) 100,00 %
20.01.2022 15:01 -1,3 C 81 % 1017,3 hPa 0,0 l/m 13,4 kts (4 Bft) W-NW 287 0 min 0,0 UV-I 54 W/m -4,1 C -13,4 C 15,7 kts (5 Bft) 100,00 %
20.01.2022 15:00 -1,3 C 81 % 1017,3 hPa 0,0 l/m 15,7 kts (5 Bft) W 279 0 min 0,0 UV-I 53 W/m -4,1 C -14,9 C 20,8 kts (5 Bft) 100,00 %
20.01.2022 14:59 -1,3 C 81 % 1017,2 hPa 0,0 l/m 15,2 kts (4 Bft) W-NW 282 0 min 0,0 UV-I 51 W/m -4,1 C -14,6 C 20,8 kts (5 Bft) 100,00 %
20.01.2022 14:58 -1,3 C 81 % 1017,3 hPa 0,0 l/m 13,0 kts (4 Bft) W-SW 245 0 min 0,0 UV-I 47 W/m -4,1 C -13,1 C 15,7 kts (5 Bft) 100,00 %
20.01.2022 14:57 -1,3 C 81 % 1017,3 hPa 0,0 l/m 18,1 kts (5 Bft) W 272 0 min 0,0 UV-I 42 W/m -4,1 C -16,3 C 21,7 kts (6 Bft) 100,00 %
20.01.2022 14:56 -1,3 C 81 % 1017,3 hPa 0,0 l/m 12,0 kts (4 Bft) W 270 0 min 0,0 UV-I 40 W/m -4,1 C -12,3 C 18,3 kts (5 Bft) 100,00 %
20.01.2022 14:55 -1,3 C 81 % 1017,2 hPa 0,0 l/m 13,4 kts (4 Bft) W 270 0 min 0,0 UV-I 44 W/m -4,1 C -13,4 C 15,7 kts (5 Bft) 94,44 %
20.01.2022 14:54 -1,3 C 81 % 1017,3 hPa 0,0 l/m 14,2 kts (4 Bft) W-NW 284 0 min 0,0 UV-I 47 W/m -4,1 C -14,0 C 16,5 kts (5 Bft) 95,65 %
20.01.2022 14:53 -1,3 C 81 % 1017,2 hPa 0,0 l/m 15,7 kts (5 Bft) W-NW 283 0 min 0,0 UV-I 49 W/m -4,1 C -14,9 C 20,8 kts (5 Bft) 95,65 %
20.01.2022 14:52 -1,3 C 81 % 1017,1 hPa 0,0 l/m 15,9 kts (5 Bft) W 273 0 min 0,0 UV-I 47 W/m -4,1 C -15,1 C 20,0 kts (5 Bft) 100,00 %
20.01.2022 14:51 -1,3 C 81 % 1017,2 hPa 0,0 l/m 17,4 kts (5 Bft) W 263 0 min 0,0 UV-I 46 W/m -4,1 C -15,9 C 21,7 kts (6 Bft) 92,86 %
20.01.2022 14:50 -1,3 C 82 % 1017,3 hPa 0,0 l/m 17,8 kts (5 Bft) W 281 0 min 0,0 UV-I 44 W/m -4,0 C -16,1 C 21,7 kts (6 Bft) 100,00 %
20.01.2022 14:49 -1,3 C 82 % 1017,2 hPa 0,0 l/m 14,3 kts (4 Bft) W-NW 300 0 min 0,0 UV-I 42 W/m -4,0 C -14,0 C 20,8 kts (5 Bft) 97,14 %
20.01.2022 14:48 -1,3 C 82 % 1017,3 hPa 0,0 l/m 16,7 kts (5 Bft) W-NW 282 0 min 0,0 UV-I 44 W/m -4,0 C -15,5 C 20,0 kts (5 Bft) 100,00 %
20.01.2022 14:47 -1,3 C 82 % 1017,2 hPa 0,0 l/m 17,1 kts (5 Bft) NW 309 0 min 0,0 UV-I 46 W/m -4,0 C -15,8 C 23,5 kts (6 Bft) 95,65 %
20.01.2022 14:46 -1,3 C 82 % 1017,2 hPa 0,0 l/m 18,5 kts (5 Bft) W-NW 288 0 min 0,0 UV-I 49 W/m -4,0 C -16,5 C 21,7 kts (6 Bft) 100,00 %
20.01.2022 14:45 -1,3 C 82 % 1017,2 hPa 0,0 l/m 15,9 kts (5 Bft) W-NW 283 0 min 0,0 UV-I 56 W/m -4,0 C -15,0 C 20,0 kts (5 Bft) 95,65 %
20.01.2022 14:44 -1,3 C 82 % 1017,0 hPa 0,0 l/m 15,7 kts (5 Bft) W 279 0 min 0,0 UV-I 56 W/m -4,0 C -14,9 C 20,8 kts (5 Bft) 100,00 %
20.01.2022 14:43 -1,2 C 82 % 1017,1 hPa 0,0 l/m 15,7 kts (5 Bft) W-NW 285 0 min 0,0 UV-I 62 W/m -3,9 C -14,8 C 20,0 kts (5 Bft) 90,91 %
20.01.2022 14:42 -1,2 C 82 % 1017,1 hPa 0,0 l/m 18,9 kts (5 Bft) W-NW 300 0 min 0,0 UV-I 62 W/m -3,9 C -16,5 C 25,2 kts (6 Bft) 95,83 %
20.01.2022 14:41 -1,3 C 82 % 1017,2 hPa 0,0 l/m 13,8 kts (4 Bft) W-NW 303 0 min 0,0 UV-I 62 W/m -4,0 C -13,7 C 19,1 kts (5 Bft) 95,00 %
20.01.2022 14:40 -1,2 C 83 % 1017,2 hPa 0,0 l/m 13,7 kts (4 Bft) NW 304 0 min 0,0 UV-I 62 W/m -3,7 C -13,5 C 18,3 kts (5 Bft) 96,97 %
20.01.2022 14:39 -1,3 C 83 % 1017,2 hPa 0,0 l/m 16,6 kts (5 Bft) W 273 0 min 0,0 UV-I 63 W/m -3,8 C -15,5 C 20,0 kts (5 Bft) 95,65 %
20.01.2022 14:38 -1,3 C 83 % 1017,3 hPa 0,0 l/m 19,0 kts (5 Bft) W 277 0 min 0,0 UV-I 69 W/m -3,8 C -16,7 C 23,5 kts (6 Bft) 100,00 %
20.01.2022 14:37 -1,3 C 83 % 1017,2 hPa 0,0 l/m 15,8 kts (5 Bft) W 267 0 min 0,0 UV-I 77 W/m -3,8 C -15,0 C 19,1 kts (5 Bft) 97,06 %
20.01.2022 14:36 -1,3 C 83 % 1017,2 hPa 0,0 l/m 16,4 kts (5 Bft) W 264 0 min 0,0 UV-I 83 W/m -3,8 C -15,4 C 19,1 kts (5 Bft) 100,00 %
20.01.2022 14:35 -1,4 C 83 % 1017,1 hPa 0,0 l/m 14,4 kts (4 Bft) W-NW 292 0 min 0,0 UV-I 86 W/m -3,9 C -14,3 C 17,4 kts (5 Bft) 100,00 %
20.01.2022 14:34 -1,3 C 84 % 1017,1 hPa 0,0 l/m 12,9 kts (4 Bft) W-NW 300 0 min 0,0 UV-I 88 W/m -3,6 C -13,0 C 18,3 kts (5 Bft) 100,00 %
20.01.2022 14:33 -1,4 C 83 % 1017,1 hPa 0,0 l/m 12,7 kts (4 Bft) W 281 0 min 0,0 UV-I 88 W/m -3,9 C -13,1 C 16,5 kts (5 Bft) 100,00 %
20.01.2022 14:32 -1,4 C 84 % 1017,2 hPa 0,0 l/m 12,0 kts (4 Bft) W 277 0 min 0,0 UV-I 90 W/m -3,7 C -12,5 C 13,9 kts (4 Bft) 100,00 %
20.01.2022 14:31 -1,4 C 84 % 1017,1 hPa 0,0 l/m 13,5 kts (4 Bft) W 271 0 min 0,0 UV-I 91 W/m -3,7 C -13,6 C 19,1 kts (5 Bft) 100,00 %
20.01.2022 14:30 -1,5 C 84 % 1017,1 hPa 0,0 l/m 17,7 kts (5 Bft) W-NW 292 0 min 0,0 UV-I 91 W/m -3,8 C -16,4 C 20,8 kts (5 Bft) 100,00 %
20.01.2022 14:29 -1,6 C 85 % 1017,2 hPa 0,0 l/m 17,5 kts (5 Bft) W-NW 288 0 min 0,0 UV-I 95 W/m -3,8 C -16,4 C 21,7 kts (6 Bft) 97,14 %
20.01.2022 14:28 -1,6 C 85 % 1017,2 hPa 0,0 l/m 16,6 kts (5 Bft) W 273 0 min 0,0 UV-I 100 W/m -3,8 C -15,9 C 20,8 kts (5 Bft) 100,00 %
20.01.2022 14:27 -1,6 C 85 % 1017,1 hPa 0,0 l/m 18,8 kts (5 Bft) W-NW 288 0 min 0,0 UV-I 105 W/m -3,8 C -17,1 C 21,7 kts (6 Bft) 95,65 %
20.01.2022 14:26 -1,7 C 85 % 1017,1 hPa 0,0 l/m 15,8 kts (5 Bft) NW 309 0 min 0,0 UV-I 102 W/m -3,9 C -15,6 C 20,8 kts (5 Bft) 100,00 %
20.01.2022 14:25 -1,8 C 85 % 1017,1 hPa 0,0 l/m 14,6 kts (4 Bft) NW 306 0 min 0,0 UV-I 97 W/m -4,0 C -14,9 C 17,4 kts (5 Bft) 100,00 %
20.01.2022 14:24 -1,8 C 86 % 1017,0 hPa 0,0 l/m 16,6 kts (5 Bft) W 275 0 min 0,0 UV-I 95 W/m -3,8 C -16,2 C 21,7 kts (6 Bft) 100,00 %
20.01.2022 14:23 -1,9 C 86 % 1017,1 hPa 0,0 l/m 13,4 kts (4 Bft) W 273 0 min 0,0 UV-I 88 W/m -3,9 C -14,2 C 18,3 kts (5 Bft) 100,00 %
20.01.2022 14:22 -1,9 C 86 % 1017,1 hPa 0,0 l/m 15,6 kts (4 Bft) W 277 0 min 0,0 UV-I 72 W/m -3,9 C -15,7 C 19,1 kts (5 Bft) 100,00 %
20.01.2022 14:21 -2,0 C 86 % 1017,1 hPa 0,0 l/m 16,0 kts (5 Bft) W-NW 294 0 min 0,0 UV-I 58 W/m -4,0 C -16,1 C 20,0 kts (5 Bft) 100,00 %
20.01.2022 14:20 -2,0 C 86 % 1017,0 hPa 0,0 l/m 13,2 kts (4 Bft) W 269 0 min 0,0 UV-I 49 W/m -4,0 C -14,2 C 16,5 kts (5 Bft) 100,00 %
20.01.2022 14:19 -2,0 C 86 % 1017,0 hPa 0,0 l/m 17,5 kts (5 Bft) W-NW 290 0 min 0,0 UV-I 44 W/m -4,0 C -17,0 C 21,7 kts (6 Bft) 100,00 %
20.01.2022 14:18 -2,0 C 86 % 1017,0 hPa 0,0 l/m 17,5 kts (5 Bft) W-NW 295 0 min 0,0 UV-I 37 W/m -4,0 C -17,0 C 21,7 kts (6 Bft) 100,00 %
20.01.2022 14:17 -2,1 C 86 % 1017,0 hPa 0,0 l/m 17,9 kts (5 Bft) W-NW 282 0 min 0,0 UV-I 28 W/m -4,1 C -17,3 C 22,6 kts (6 Bft) 100,00 %
20.01.2022 14:16 -2,0 C 86 % 1017,0 hPa 0,0 l/m 12,6 kts (4 Bft) W 267 0 min 0,0 UV-I 23 W/m -4,0 C -13,7 C 16,5 kts (5 Bft) 100,00 %
20.01.2022 14:15 -2,0 C 86 % 1017,0 hPa 0,0 l/m 15,0 kts (4 Bft) W-NW 285 0 min 0,0 UV-I 21 W/m -4,0 C -15,5 C 16,5 kts (5 Bft) 100,00 %
20.01.2022 14:14 -1,9 C 86 % 1017,0 hPa 0,0 l/m 17,9 kts (5 Bft) W 279 0 min 0,0 UV-I 19 W/m -3,9 C -17,0 C 23,5 kts (6 Bft) 100,00 %
20.01.2022 14:13 -1,9 C 85 % 1017,1 hPa 0,0 l/m 19,9 kts (5 Bft) W-NW 289 0 min 0,0 UV-I 18 W/m -4,1 C -18,0 C 26,9 kts (6 Bft) 100,00 %
20.01.2022 14:12 -1,9 C 85 % 1017,0 hPa 0,0 l/m 20,5 kts (5 Bft) W-NW 293 0 min 0,0 UV-I 16 W/m -4,1 C -18,3 C 26,9 kts (6 Bft) 96,15 %
20.01.2022 14:11 -1,9 C 85 % 1017,1 hPa 0,0 l/m 19,3 kts (5 Bft) W-NW 290 0 min 0,0 UV-I 16 W/m -4,1 C -17,7 C 24,4 kts (6 Bft) 100,00 %
20.01.2022 14:10 -1,8 C 85 % 1017,0 hPa 0,0 l/m 16,9 kts (5 Bft) W-NW 283 0 min 0,0 UV-I 16 W/m -4,0 C -16,3 C 21,7 kts (6 Bft) 100,00 %
20.01.2022 14:09 -1,8 C 85 % 1016,9 hPa 0,0 l/m 14,4 kts (4 Bft) W-NW 282 0 min 0,0 UV-I 19 W/m -4,0 C -14,8 C 21,7 kts (6 Bft) 100,00 %
20.01.2022 14:08 -1,7 C 84 % 1016,9 hPa 0,0 l/m 13,2 kts (4 Bft) NW 313 0 min 0,0 UV-I 26 W/m -4,0 C -13,8 C 15,7 kts (5 Bft) 100,00 %
20.01.2022 14:07 -1,7 C 84 % 1017,0 hPa 0,0 l/m 11,3 kts (4 Bft) W-NW 301 0 min 0,0 UV-I 26 W/m -4,0 C -12,3 C 15,7 kts (5 Bft) 95,83 %
20.01.2022 14:06 -1,7 C 84 % 1017,0 hPa 0,0 l/m 13,8 kts (4 Bft) NW 313 0 min 0,0 UV-I 26 W/m -4,0 C -14,2 C 22,6 kts (6 Bft) 100,00 %
20.01.2022 14:05 -1,6 C 84 % 1017,0 hPa 0,0 l/m 17,2 kts (5 Bft) W-NW 292 0 min 0,0 UV-I 25 W/m -3,9 C -16,2 C 26,1 kts (6 Bft) 100,00 %
20.01.2022 14:04 -1,6 C 84 % 1017,0 hPa 0,0 l/m 20,0 kts (5 Bft) W-NW 296 0 min 0,0 UV-I 23 W/m -3,9 C -17,6 C 21,7 kts (6 Bft) 100,00 %
20.01.2022 14:03 -1,4 C 83 % 1016,9 hPa 0,0 l/m 21,7 kts (6 Bft) N 360 0 min 0,0 UV-I 23 W/m -3,9 C -18,1 C 21,7 kts (6 Bft) 100,00 %
20.01.2022 14:02 -1,4 C 83 % 1016,9 hPa 0,0 l/m 21,7 kts (6 Bft) N 360 0 min 0,0 UV-I 21 W/m -3,9 C -18,1 C 21,7 kts (6 Bft) 100,00 %
20.01.2022 14:01 -1,3 C 83 % 1016,8 hPa 0,0 l/m 21,9 kts (6 Bft) N 360 0 min 0,0 UV-I 19 W/m -3,8 C -18,0 C 24,4 kts (6 Bft) 100,00 %
20.01.2022 14:00 -1,2 C 82 % 1016,8 hPa 0,0 l/m 17,2 kts (5 Bft) N 360 0 min 0,0 UV-I 19 W/m -3,9 C -15,6 C 21,7 kts (6 Bft) 100,00 %
20.01.2022 13:59 -1,1 C 81 % 1016,8 hPa 0,0 l/m 18,8 kts (5 Bft) NW 313 0 min 0,0 UV-I 21 W/m -3,9 C -16,3 C 20,0 kts (5 Bft) 98,98 %
20.01.2022 13:58 -1,0 C 81 % 1016,8 hPa 0,0 l/m 19,1 kts (5 Bft) NW 315 0 min 0,0 UV-I 21 W/m -3,8 C -16,3 C 20,8 kts (5 Bft) 100,00 %
20.01.2022 13:57 -0,9 C 80 % 1016,8 hPa 0,0 l/m 21,6 kts (6 Bft) NW 315 0 min 0,0 UV-I 21 W/m -3,9 C -17,3 C 29,5 kts (7 Bft) 100,00 %
20.01.2022 13:56 -0,8 C 80 % 1016,9 hPa 0,0 l/m 21,3 kts (6 Bft) NW 313 0 min 0,0 UV-I 25 W/m -3,8 C -17,0 C 27,8 kts (7 Bft) 100,00 %
20.01.2022 13:55 -0,6 C 79 % 1016,7 hPa 0,0 l/m 19,7 kts (5 Bft) W-NW 296 0 min 0,0 UV-I 23 W/m -3,8 C -16,0 C 27,8 kts (7 Bft) 94,44 %
20.01.2022 13:54 -0,3 C 78 % 1016,7 hPa 0,0 l/m 20,8 kts (5 Bft) W-NW 302 0 min 0,0 UV-I 23 W/m -3,7 C -16,1 C 25,2 kts (6 Bft) 100,00 %
20.01.2022 13:53 -0,1 C 77 % 1016,7 hPa 0,0 l/m 21,7 kts (6 Bft) NW 313 0 min 0,0 UV-I 21 W/m -3,6 C -16,1 C 24,4 kts (6 Bft) 100,00 %
20.01.2022 13:52 0,1 C 76 % 1016,8 hPa 0,0 l/m 20,7 kts (5 Bft) W-NW 301 0 min 0,0 UV-I 21 W/m -3,6 C -15,4 C 24,4 kts (6 Bft) 100,00 %
20.01.2022 13:51 0,3 C 75 % 1016,8 hPa 0,0 l/m 21,0 kts (6 Bft) NW 306 0 min 0,0 UV-I 18 W/m -3,6 C -15,3 C 23,5 kts (6 Bft) 100,00 %
20.01.2022 13:50 0,6 C 74 % 1016,8 hPa 0,0 l/m 25,4 kts (6 Bft) N-NW 327 0 min 0,0 UV-I 14 W/m -3,5 C -16,3 C 33,9 kts (8 Bft) 100,00 %
20.01.2022 13:49 0,8 C 74 % 1016,8 hPa 0,0 l/m 22,2 kts (6 Bft) NW 314 0 min 0,0 UV-I 14 W/m -3,3 C -15,0 C 31,3 kts (7 Bft) 100,00 %
20.01.2022 13:48 1,2 C 72 % 1016,7 hPa 0,0 l/m 22,1 kts (6 Bft) N-NW 327 0 min 0,0 UV-I 14 W/m -3,3 C -14,4 C 25,2 kts (6 Bft) 98,96 %
20.01.2022 13:47 1,5 C 72 % 1016,7 hPa 0,0 l/m 28,1 kts (7 Bft) NW 312 0 min 0,0 UV-I 12 W/m -3,0 C -15,6 C 32,1 kts (7 Bft) 91,67 %
20.01.2022 13:46 1,7 C 71 % 1016,6 hPa 0,0 l/m 25,3 kts (6 Bft) N-NW 327 0 min 0,0 UV-I 11 W/m -3,0 C -14,6 C 29,5 kts (7 Bft) 100,00 %
20.01.2022 13:45 2,0 C 71 % 1016,6 hPa 0,0 l/m 16,6 kts (5 Bft) W-NW 302 0 min 0,0 UV-I 11 W/m -2,7 C -10,8 C 25,2 kts (6 Bft) 100,00 %
20.01.2022 13:44 2,1 C 72 % 1016,8 hPa 0,0 l/m 16,9 kts (5 Bft) W 281 0 min 0,0 UV-I 14 W/m -2,4 C -10,8 C 24,4 kts (6 Bft) 100,00 %
20.01.2022 13:43 2,2 C 72 % 1016,7 hPa 0,0 l/m 13,1 kts (4 Bft) N-NW 338 0 min 0,0 UV-I 16 W/m -2,3 C -8,5 C 18,3 kts (5 Bft) 100,00 %
20.01.2022 13:42 2,2 C 72 % 1016,4 hPa 0,0 l/m 17,6 kts (5 Bft) W 273 0 min 0,0 UV-I 19 W/m -2,3 C -11,0 C 20,0 kts (5 Bft) 100,00 %
20.01.2022 13:41 2,2 C 72 % 1016,3 hPa 0,0 l/m 20,4 kts (5 Bft) W-SW 249 0 min 0,0 UV-I 21 W/m -2,3 C -12,2 C 26,1 kts (6 Bft) 100,00 %
20.01.2022 13:40 2,2 C 72 % 1016,2 hPa 0,0 l/m 15,9 kts (5 Bft) W-SW 250 0 min 0,0 UV-I 25 W/m -2,3 C -10,1 C 20,0 kts (5 Bft) 100,00 %
20.01.2022 13:39 2,2 C 72 % 1016,1 hPa 0,0 l/m 19,3 kts (5 Bft) W-SW 250 0 min 0,0 UV-I 39 W/m -2,3 C -11,8 C 25,2 kts (6 Bft) 100,00 %
20.01.2022 13:38 2,2 C 71 % 1016,2 hPa 0,0 l/m 19,8 kts (5 Bft) W-SW 238 0 min 0,0 UV-I 49 W/m -2,5 C -12,0 C 26,9 kts (6 Bft) 95,83 %
20.01.2022 13:37 2,3 C 71 % 1016,1 hPa 0,0 l/m 22,5 kts (6 Bft) W-SW 247 0 min 0,0 UV-I 49 W/m -2,4 C -12,8 C 28,7 kts (7 Bft) 96,88 %
20.01.2022 13:36 2,3 C 71 % 1016,0 hPa 0,0 l/m 25,3 kts (6 Bft) W 271 0 min 0,0 UV-I 47 W/m -2,4 C -13,7 C 30,4 kts (7 Bft) 100,00 %
20.01.2022 13:35 2,3 C 71 % 1016,1 hPa 0,0 l/m 26,1 kts (6 Bft) W-SW 238 0 min 0,0 UV-I 42 W/m -2,4 C -13,9 C 29,5 kts (7 Bft) 96,55 %
20.01.2022 13:34 2,3 C 70 % 1015,9 hPa 0,0 l/m 17,9 kts (5 Bft) W-SW 241 0 min 0,0 UV-I 40 W/m -2,6 C -11,0 C 26,1 kts (6 Bft) 100,00 %
20.01.2022 13:33 2,3 C 70 % 1016,0 hPa 0,0 l/m 15,2 kts (4 Bft) SW 217 0 min 0,0 UV-I 60 W/m -2,6 C -9,6 C 19,1 kts (5 Bft) 96,15 %
20.01.2022 13:32 2,4 C 70 % 1016,0 hPa 0,0 l/m 18,7 kts (5 Bft) SW 222 0 min 0,0 UV-I 63 W/m -2,5 C -11,2 C 27,8 kts (7 Bft) 100,00 %
20.01.2022 13:31 2,4 C 70 % 1016,1 hPa 0,0 l/m 25,8 kts (6 Bft) SW 230 0 min 0,0 UV-I 62 W/m -2,5 C -13,7 C 32,1 kts (7 Bft) 92,31 %
20.01.2022 13:30 2,4 C 70 % 1016,1 hPa 0,0 l/m 23,7 kts (6 Bft) W-SW 245 0 min 0,0 UV-I 62 W/m -2,5 C -13,1 C 30,4 kts (7 Bft) 100,00 %
20.01.2022 13:29 2,4 C 69 % 1016,0 hPa 0,0 l/m 20,2 kts (5 Bft) SW 225 0 min 0,0 UV-I 69 W/m -2,7 C -11,8 C 25,2 kts (6 Bft) 96,55 %
20.01.2022 13:28 2,4 C 69 % 1015,9 hPa 0,0 l/m 17,2 kts (5 Bft) W-SW 238 0 min 0,0 UV-I 62 W/m -2,7 C -10,5 C 23,5 kts (6 Bft) 100,00 %
20.01.2022 13:27 2,5 C 69 % 1015,9 hPa 0,0 l/m 21,4 kts (6 Bft) W-SW 255 0 min 0,0 UV-I 62 W/m -2,6 C -12,2 C 25,2 kts (6 Bft) 95,65 %
20.01.2022 13:26 2,5 C 69 % 1016,0 hPa 0,0 l/m 27,9 kts (7 Bft) W-SW 242 0 min 0,0 UV-I 56 W/m -2,6 C -14,0 C 36,5 kts (8 Bft) 100,00 %
20.01.2022 13:25 2,6 C 69 % 1016,0 hPa 0,0 l/m 28,6 kts (7 Bft) W-SW 242 0 min 0,0 UV-I 56 W/m -2,5 C -14,0 C 35,6 kts (8 Bft) 96,55 %
20.01.2022 13:24 2,6 C 68 % 1016,0 hPa 0,0 l/m 22,9 kts (6 Bft) SW 227 0 min 0,0 UV-I 65 W/m -2,7 C -12,5 C 33,0 kts (7 Bft) 100,00 %
20.01.2022 13:23 2,6 C 68 % 1016,0 hPa 0,0 l/m 18,1 kts (5 Bft) W-SW 240 0 min 0,0 UV-I 72 W/m -2,7 C -10,7 C 21,7 kts (6 Bft) 95,83 %
20.01.2022 13:22 2,6 C 68 % 1016,0 hPa 0,0 l/m 21,4 kts (6 Bft) SW 231 0 min 0,0 UV-I 79 W/m -2,7 C -12,0 C 24,4 kts (6 Bft) 96,43 %
20.01.2022 13:21 2,6 C 68 % 1015,9 hPa 0,0 l/m 18,8 kts (5 Bft) S-SW 201 0 min 0,0 UV-I 70 W/m -2,7 C -11,0 C 26,1 kts (6 Bft) 100,00 %
20.01.2022 13:20 2,6 C 68 % 1016,0 hPa 0,0 l/m 22,1 kts (6 Bft) W-SW 238 0 min 0,0 UV-I 69 W/m -2,7 C -12,2 C 25,2 kts (6 Bft) 100,00 %
20.01.2022 13:19 2,6 C 68 % 1015,9 hPa 0,0 l/m 26,1 kts (6 Bft) W-SW 242 0 min 0,0 UV-I 63 W/m -2,7 C -13,4 C 28,7 kts (7 Bft) 93,33 %
20.01.2022 13:18 2,6 C 68 % 1016,1 hPa 0,0 l/m 26,7 kts (6 Bft) SW 235 0 min 0,0 UV-I 63 W/m -2,7 C -13,6 C 33,0 kts (7 Bft) 100,00 %
20.01.2022 13:17 2,7 C 68 % 1015,9 hPa 0,0 l/m 23,4 kts (6 Bft) SW 236 0 min 0,0 UV-I 60 W/m -2,6 C -12,5 C 29,5 kts (7 Bft) 96,30 %
20.01.2022 13:16 2,7 C 68 % 1016,1 hPa 0,0 l/m 24,5 kts (6 Bft) W-SW 245 0 min 0,0 UV-I 62 W/m -2,6 C -12,9 C 29,5 kts (7 Bft) 100,00 %
20.01.2022 13:15 2,7 C 68 % 1016,1 hPa 0,0 l/m 22,0 kts (6 Bft) W-SW 242 0 min 0,0 UV-I 69 W/m -2,6 C -12,1 C 27,8 kts (7 Bft) 100,00 %
20.01.2022 13:14 2,7 C 68 % 1016,1 hPa 0,0 l/m 17,9 kts (5 Bft) SW 221 0 min 0,0 UV-I 70 W/m -2,6 C -10,5 C 21,7 kts (6 Bft) 100,00 %
20.01.2022 13:13 2,7 C 68 % 1016,1 hPa 0,0 l/m 19,7 kts (5 Bft) SW 229 0 min 0,0 UV-I 86 W/m -2,6 C -11,2 C 26,1 kts (6 Bft) 100,00 %
20.01.2022 13:12 2,7 C 68 % 1016,2 hPa 0,0 l/m 21,5 kts (6 Bft) W-SW 248 0 min 0,0 UV-I 118 W/m -2,6 C -11,9 C 28,7 kts (7 Bft) 100,00 %
20.01.2022 13:11 2,7 C 68 % 1016,2 hPa 0,0 l/m 19,4 kts (5 Bft) W-SW 256 0 min 0,0 UV-I 116 W/m -2,6 C -11,1 C 23,5 kts (6 Bft) 93,33 %
20.01.2022 13:10 2,7 C 68 % 1016,4 hPa 0,0 l/m 27,4 kts (7 Bft) W 260 0 min 0,0 UV-I 98 W/m -2,6 C -13,6 C 31,3 kts (7 Bft) 100,00 %
20.01.2022 13:09 2,7 C 68 % 1016,2 hPa 0,0 l/m 27,3 kts (7 Bft) W-SW 244 0 min 0,0 UV-I 111 W/m -2,6 C -13,6 C 31,3 kts (7 Bft) 92,31 %
20.01.2022 13:08 2,7 C 68 % 1016,2 hPa 0,0 l/m 19,2 kts (5 Bft) W-SW 244 0 min 0,0 UV-I 105 W/m -2,6 C -11,0 C 24,4 kts (6 Bft) 100,00 %
20.01.2022 13:07 2,7 C 68 % 1016,4 hPa 0,0 l/m 21,7 kts (6 Bft) SW 225 0 min 0,0 UV-I 102 W/m -2,6 C -12,0 C 28,7 kts (7 Bft) 100,00 %
20.01.2022 13:06 2,7 C 67 % 1016,3 hPa 0,0 l/m 26,3 kts (6 Bft) W-SW 248 0 min 0,0 UV-I 111 W/m -2,8 C -13,3 C 30,4 kts (7 Bft) 100,00 %
20.01.2022 13:05 2,7 C 67 % 1016,2 hPa 0,0 l/m 23,9 kts (6 Bft) W-SW 249 0 min 0,0 UV-I 135 W/m -2,8 C -12,7 C 26,1 kts (6 Bft) 100,00 %
20.01.2022 13:04 2,8 C 67 % 1016,3 hPa 0,0 l/m 24,0 kts (6 Bft) SW 229 0 min 0,0 UV-I 137 W/m -2,7 C -12,6 C 29,5 kts (7 Bft) 100,00 %
20.01.2022 13:03 2,8 C 67 % 1016,3 hPa 0,0 l/m 24,9 kts (6 Bft) W-SW 256 0 min 0,0 UV-I 125 W/m -2,7 C -12,8 C 34,8 kts (8 Bft) 100,00 %
20.01.2022 13:02 2,8 C 67 % 1016,4 hPa 0,0 l/m 21,7 kts (6 Bft) SW 231 0 min 0,0 UV-I 141 W/m -2,7 C -11,8 C 29,5 kts (7 Bft) 100,00 %
20.01.2022 13:01 2,8 C 67 % 1016,3 hPa 0,0 l/m 26,8 kts (6 Bft) W-SW 256 1 min 0,0 UV-I 156 W/m -2,7 C -13,3 C 32,1 kts (7 Bft) 100,00 %
20.01.2022 13:00 2,8 C 67 % 1016,2 hPa 0,0 l/m 24,5 kts (6 Bft) W-SW 253 1 min 0,0 UV-I 162 W/m -2,7 C -12,7 C 32,1 kts (7 Bft) 100,00 %
20.01.2022 12:59 2,8 C 67 % 1016,3 hPa 0,0 l/m 25,3 kts (6 Bft) W 261 1 min 0,0 UV-I 171 W/m -2,7 C -12,9 C 29,5 kts (7 Bft) 100,00 %
20.01.2022 12:58 2,7 C 67 % 1016,3 hPa 0,0 l/m 27,0 kts (6 Bft) W-SW 241 1 min 0,0 UV-I 192 W/m -2,8 C -13,5 C 32,1 kts (7 Bft) 100,00 %
20.01.2022 12:57 2,7 C 67 % 1016,2 hPa 0,0 l/m 23,7 kts (6 Bft) W-SW 238 1 min 0,5 UV-I 192 W/m -2,8 C -12,6 C 30,4 kts (7 Bft) 100,00 %
20.01.2022 12:56 2,7 C 67 % 1016,2 hPa 0,0 l/m 23,1 kts (6 Bft) SW 236 1 min 0,6 UV-I 192 W/m -2,8 C -12,4 C 30,4 kts (7 Bft) 100,00 %
20.01.2022 12:55 2,7 C 67 % 1016,2 hPa 0,0 l/m 31,3 kts (7 Bft) W-SW 244 1 min 0,0 UV-I 192 W/m -2,8 C -14,4 C 33,9 kts (8 Bft) 100,00 %
20.01.2022 12:54 2,8 C 67 % 1016,2 hPa 0,0 l/m 29,4 kts (7 Bft) W-SW 248 0 min 0,0 UV-I 148 W/m -2,7 C -13,9 C 36,5 kts (8 Bft) 100,00 %
20.01.2022 12:53 2,8 C 66 % 1016,3 hPa 0,0 l/m 21,1 kts (6 Bft) W-SW 246 1 min 0,0 UV-I 153 W/m -2,9 C -11,6 C 27,8 kts (7 Bft) 100,00 %
20.01.2022 12:52 2,8 C 66 % 1016,2 hPa 0,0 l/m 21,5 kts (6 Bft) W 267 0 min 0,0 UV-I 128 W/m -2,9 C -11,7 C 27,8 kts (7 Bft) 100,00 %
20.01.2022 12:51 2,8 C 66 % 1016,3 hPa 0,0 l/m 21,6 kts (6 Bft) W-SW 249 0 min 0,0 UV-I 93 W/m -2,9 C -11,8 C 26,1 kts (6 Bft) 95,65 %
20.01.2022 12:50 2,8 C 66 % 1016,3 hPa 0,0 l/m 22,0 kts (6 Bft) W-SW 253 0 min 0,0 UV-I 81 W/m -2,9 C -11,9 C 26,1 kts (6 Bft) 100,00 %
20.01.2022 12:49 2,8 C 66 % 1016,4 hPa 0,0 l/m 24,9 kts (6 Bft) W-SW 241 0 min 0,0 UV-I 72 W/m -2,9 C -12,8 C 31,3 kts (7 Bft) 100,00 %
20.01.2022 12:48 2,8 C 66 % 1016,4 hPa 0,0 l/m 18,3 kts (5 Bft) W-SW 258 0 min 0,0 UV-I 72 W/m -2,9 C -10,5 C 22,6 kts (6 Bft) 100,00 %
20.01.2022 12:47 2,8 C 66 % 1016,4 hPa 0,0 l/m 18,5 kts (5 Bft) W-SW 237 0 min 0,0 UV-I 65 W/m -2,9 C -10,6 C 24,4 kts (6 Bft) 100,00 %
20.01.2022 12:46 2,8 C 66 % 1016,4 hPa 0,0 l/m 18,6 kts (5 Bft) S-SW 209 0 min 0,0 UV-I 76 W/m -2,9 C -10,6 C 23,5 kts (6 Bft) 100,00 %
20.01.2022 12:45 2,8 C 66 % 1016,4 hPa 0,0 l/m 20,0 kts (5 Bft) W 275 0 min 0,0 UV-I 62 W/m -2,9 C -11,2 C 25,2 kts (6 Bft) 100,00 %
20.01.2022 12:44 2,8 C 65 % 1016,4 hPa 0,0 l/m 17,5 kts (5 Bft) W-SW 244 0 min 0,0 UV-I 54 W/m -3,1 C -10,1 C 26,9 kts (6 Bft) 100,00 %
20.01.2022 12:43 2,8 C 65 % 1016,6 hPa 0,0 l/m 18,1 kts (5 Bft) W-SW 242 0 min 0,0 UV-I 56 W/m -3,1 C -10,4 C 20,8 kts (5 Bft) 100,00 %
20.01.2022 12:42 2,8 C 66 % 1016,4 hPa 0,0 l/m 21,1 kts (6 Bft) W 270 0 min 0,0 UV-I 58 W/m -2,9 C -11,6 C 28,7 kts (7 Bft) 100,00 %
20.01.2022 12:41 2,9 C 65 % 1016,5 hPa 0,0 l/m 18,4 kts (5 Bft) W-SW 239 0 min 0,0 UV-I 53 W/m -3,0 C -10,4 C 20,8 kts (5 Bft) 100,00 %
20.01.2022 12:40 2,9 C 65 % 1016,4 hPa 0,0 l/m 15,2 kts (4 Bft) W-SW 239 0 min 0,0 UV-I 49 W/m -3,0 C -8,8 C 21,7 kts (6 Bft) 100,00 %
20.01.2022 12:39 2,9 C 66 % 1016,7 hPa 0,0 l/m 22,4 kts (6 Bft) W-SW 239 0 min 0,0 UV-I 56 W/m -2,8 C -11,9 C 25,2 kts (6 Bft) 100,00 %
20.01.2022 12:38 2,9 C 66 % 1016,5 hPa 0,0 l/m 16,2 kts (5 Bft) W 261 0 min 0,0 UV-I 56 W/m -2,8 C -9,3 C 21,7 kts (6 Bft) 100,00 %
20.01.2022 12:37 2,9 C 66 % 1016,6 hPa 0,0 l/m 17,2 kts (5 Bft) S-SW 213 0 min 0,0 UV-I 62 W/m -2,8 C -9,8 C 22,6 kts (6 Bft) 100,00 %
20.01.2022 12:36 2,9 C 66 % 1016,6 hPa 0,0 l/m 22,4 kts (6 Bft) W 268 0 min 0,0 UV-I 67 W/m -2,8 C -11,9 C 26,9 kts (6 Bft) 100,00 %
20.01.2022 12:35 2,9 C 66 % 1016,5 hPa 0,0 l/m 21,4 kts (6 Bft) W-SW 249 0 min 0,0 UV-I 67 W/m -2,8 C -11,6 C 26,1 kts (6 Bft) 100,00 %
20.01.2022 12:34 2,9 C 66 % 1016,6 hPa 0,0 l/m 19,8 kts (5 Bft) W-SW 248 0 min 0,0 UV-I 79 W/m -2,8 C -11,0 C 25,2 kts (6 Bft) 100,00 %
20.01.2022 12:33 2,9 C 66 % 1016,7 hPa 0,0 l/m 19,9 kts (5 Bft) W-SW 243 0 min 0,0 UV-I 72 W/m -2,8 C -11,0 C 25,2 kts (6 Bft) 100,00 %
20.01.2022 12:32 2,8 C 66 % 1016,6 hPa 0,0 l/m 17,9 kts (5 Bft) W-SW 255 0 min 0,0 UV-I 67 W/m -2,9 C -10,3 C 22,6 kts (6 Bft) 95,83 %
20.01.2022 12:31 2,8 C 66 % 1016,6 hPa 0,0 l/m 15,0 kts (4 Bft) W 259 0 min 0,0 UV-I 77 W/m -2,9 C -8,8 C 18,3 kts (5 Bft) 100,00 %
20.01.2022 12:30 2,9 C 66 % 1016,6 hPa 0,0 l/m 14,6 kts (4 Bft) W 262 0 min 0,0 UV-I 69 W/m -2,8 C -8,4 C 18,3 kts (5 Bft) 100,00 %
20.01.2022 12:29 2,8 C 66 % 1016,7 hPa 0,0 l/m 21,8 kts (6 Bft) W 280 0 min 0,0 UV-I 54 W/m -2,9 C -11,9 C 25,2 kts (6 Bft) 100,00 %
20.01.2022 12:28 2,8 C 66 % 1016,6 hPa 0,0 l/m 15,1 kts (4 Bft) W-SW 242 0 min 0,0 UV-I 46 W/m -2,9 C -8,9 C 24,4 kts (6 Bft) 100,00 %
20.01.2022 12:27 2,9 C 66 % 1016,6 hPa 0,0 l/m 12,6 kts (4 Bft) W-SW 257 0 min 0,0 UV-I 49 W/m -2,8 C -7,2 C 14,8 kts (4 Bft) 100,00 %
20.01.2022 12:26 2,8 C 67 % 1016,7 hPa 0,0 l/m 13,0 kts (4 Bft) W 259 0 min 0,0 UV-I 56 W/m -2,7 C -7,6 C 17,4 kts (5 Bft) 100,00 %
20.01.2022 12:25 2,8 C 67 % 1016,6 hPa 0,0 l/m 18,8 kts (5 Bft) W-SW 243 0 min 0,0 UV-I 81 W/m -2,7 C -10,7 C 23,5 kts (6 Bft) 100,00 %
20.01.2022 12:24 2,8 C 67 % 1016,5 hPa 0,0 l/m 22,1 kts (6 Bft) W 259 0 min 0,0 UV-I 91 W/m -2,7 C -12,0 C 26,9 kts (6 Bft) 100,00 %
20.01.2022 12:23 2,8 C 67 % 1016,8 hPa 0,0 l/m 17,9 kts (5 Bft) W 272 0 min 0,0 UV-I 62 W/m -2,7 C -10,3 C 23,5 kts (6 Bft) 100,00 %
20.01.2022 12:22 2,9 C 67 % 1016,7 hPa 0,0 l/m 21,0 kts (5 Bft) W-SW 244 0 min 0,0 UV-I 49 W/m -2,6 C -11,4 C 23,5 kts (6 Bft) 100,00 %
20.01.2022 12:21 2,9 C 67 % 1016,6 hPa 0,0 l/m 19,0 kts (5 Bft) W-SW 241 0 min 0,0 UV-I 67 W/m -2,6 C -10,6 C 24,4 kts (6 Bft) 93,33 %
20.01.2022 12:20 2,9 C 67 % 1016,7 hPa 0,0 l/m 20,5 kts (5 Bft) W 267 0 min 0,0 UV-I 91 W/m -2,6 C -11,2 C 24,4 kts (6 Bft) 100,00 %
20.01.2022 12:19 2,9 C 67 % 1016,7 hPa 0,0 l/m 19,4 kts (5 Bft) W-SW 254 0 min 0,0 UV-I 98 W/m -2,6 C -10,8 C 25,2 kts (6 Bft) 100,00 %
20.01.2022 12:18 2,8 C 67 % 1016,6 hPa 0,0 l/m 15,4 kts (4 Bft) W-SW 248 0 min 0,0 UV-I 90 W/m -2,7 C -9,0 C 17,4 kts (5 Bft) 98,95 %
20.01.2022 12:17 2,8 C 66 % 1016,7 hPa 0,0 l/m 18,8 kts (5 Bft) W-SW 257 0 min 0,0 UV-I 97 W/m -2,9 C -10,7 C 24,4 kts (6 Bft) 95,83 %
20.01.2022 12:16 2,9 C 66 % 1016,8 hPa 0,0 l/m 18,6 kts (5 Bft) W 266 0 min 0,0 UV-I 74 W/m -2,8 C -10,5 C 23,5 kts (6 Bft) 100,00 %
20.01.2022 12:15 2,9 C 66 % 1016,7 hPa 0,0 l/m 20,0 kts (5 Bft) W-SW 246 0 min 0,0 UV-I 47 W/m -2,8 C -11,1 C 24,4 kts (6 Bft) 90,00 %
20.01.2022 12:14 2,9 C 67 % 1016,7 hPa 0,0 l/m 16,7 kts (5 Bft) W 261 0 min 0,0 UV-I 39 W/m -2,6 C -9,6 C 20,8 kts (5 Bft) 96,15 %
20.01.2022 12:13 2,9 C 67 % 1016,8 hPa 0,0 l/m 17,4 kts (5 Bft) W-SW 255 0 min 0,0 UV-I 32 W/m -2,6 C -9,9 C 20,0 kts (5 Bft) 94,44 %
20.01.2022 12:12 2,9 C 66 % 1016,7 hPa 0,0 l/m 20,5 kts (5 Bft) W 278 0 min 0,0 UV-I 32 W/m -2,8 C -11,2 C 22,6 kts (6 Bft) 100,00 %
20.01.2022 12:11 2,9 C 66 % 1016,8 hPa 0,0 l/m 18,8 kts (5 Bft) W 259 0 min 0,0 UV-I 54 W/m -2,8 C -10,5 C 24,4 kts (6 Bft) 94,44 %
20.01.2022 12:10 2,9 C 67 % 1016,7 hPa 0,0 l/m 20,8 kts (5 Bft) W 263 0 min 0,0 UV-I 58 W/m -2,6 C -11,3 C 29,5 kts (7 Bft) 100,00 %
20.01.2022 12:09 3,0 C 67 % 1016,8 hPa 0,0 l/m 23,1 kts (6 Bft) W 261 0 min 0,0 UV-I 63 W/m -2,5 C -12,0 C 31,3 kts (7 Bft) 93,10 %
20.01.2022 12:08 3,1 C 66 % 1016,7 hPa 0,0 l/m 27,6 kts (7 Bft) W 259 0 min 0,0 UV-I 70 W/m -2,6 C -13,0 C 29,5 kts (7 Bft) 100,00 %
20.01.2022 12:07 3,1 C 66 % 1016,7 hPa 0,0 l/m 19,9 kts (5 Bft) W-SW 248 0 min 0,0 UV-I 67 W/m -2,6 C -10,7 C 26,1 kts (6 Bft) 96,30 %
20.01.2022 12:06 3,1 C 67 % 1016,8 hPa 0,0 l/m 21,0 kts (5 Bft) W-SW 252 0 min 0,0 UV-I 67 W/m -2,4 C -11,1 C 29,5 kts (7 Bft) 100,00 %
20.01.2022 12:05 3,1 C 66 % 1016,7 hPa 0,0 l/m 24,5 kts (6 Bft) W-SW 258 0 min 0,0 UV-I 72 W/m -2,6 C -12,2 C 27,8 kts (7 Bft) 96,30 %
20.01.2022 12:04 3,1 C 67 % 1016,8 hPa 0,0 l/m 21,8 kts (6 Bft) SW 233 0 min 0,0 UV-I 74 W/m -2,4 C -11,4 C 29,5 kts (7 Bft) 100,00 %
20.01.2022 12:03 3,1 C 67 % 1016,8 hPa 0,0 l/m 22,9 kts (6 Bft) SW 232 0 min 0,0 UV-I 77 W/m -2,4 C -11,8 C 30,4 kts (7 Bft) 95,65 %
20.01.2022 12:02 3,2 C 67 % 1016,8 hPa 0,0 l/m 25,8 kts (6 Bft) W-SW 240 0 min 0,0 UV-I 93 W/m -2,3 C -12,5 C 29,5 kts (7 Bft) 96,55 %
20.01.2022 12:01 3,2 C 67 % 1016,8 hPa 0,0 l/m 20,8 kts (5 Bft) W-SW 257 0 min 0,0 UV-I 104 W/m -2,3 C -10,9 C 31,3 kts (7 Bft) 96,30 %
20.01.2022 12:00 3,3 C 67 % 1016,7 hPa 0,0 l/m 25,1 kts (6 Bft) W-SW 248 0 min 0,0 UV-I 132 W/m -2,2 C -12,1 C 27,8 kts (7 Bft) 100,00 %
20.01.2022 11:59 3,3 C 66 % 1016,7 hPa 0,0 l/m 24,5 kts (6 Bft) W-SW 243 0 min 0,0 UV-I 151 W/m -2,4 C -11,9 C 29,5 kts (7 Bft) 96,67 %
20.01.2022 11:58 3,3 C 66 % 1016,7 hPa 0,0 l/m 23,1 kts (6 Bft) SW 232 0 min 0,0 UV-I 148 W/m -2,4 C -11,5 C 26,9 kts (6 Bft) 100,00 %
20.01.2022 11:57 3,3 C 66 % 1016,7 hPa 0,0 l/m 20,1 kts (5 Bft) SW 226 1 min 0,0 UV-I 162 W/m -2,4 C -10,5 C 25,2 kts (6 Bft) 95,83 %
20.01.2022 11:56 3,4 C 66 % 1016,7 hPa 0,0 l/m 17,9 kts (5 Bft) W-SW 248 1 min 0,0 UV-I 153 W/m -2,3 C -9,4 C 22,6 kts (6 Bft) 100,00 %
20.01.2022 11:55 3,4 C 66 % 1016,7 hPa 0,0 l/m 26,7 kts (6 Bft) SW 234 0 min 0,0 UV-I 135 W/m -2,3 C -12,4 C 30,4 kts (7 Bft) 91,67 %
20.01.2022 11:54 3,4 C 66 % 1016,8 hPa 0,0 l/m 20,6 kts (5 Bft) W-SW 251 0 min 0,0 UV-I 121 W/m -2,3 C -10,5 C 25,2 kts (6 Bft) 100,00 %
20.01.2022 11:53 3,4 C 67 % 1016,7 hPa 0,0 l/m 20,2 kts (5 Bft) SW 222 1 min 0,0 UV-I 167 W/m -2,1 C -10,4 C 25,2 kts (6 Bft) 100,00 %
20.01.2022 11:52 3,4 C 67 % 1016,8 hPa 0,0 l/m 17,5 kts (5 Bft) W-SW 239 1 min 0,5 UV-I 478 W/m -2,1 C -9,3 C 20,8 kts (5 Bft) 100,00 %
20.01.2022 11:51 3,4 C 67 % 1016,9 hPa 0,0 l/m 24,4 kts (6 Bft) W-SW 248 1 min 0,8 UV-I 478 W/m -2,1 C -11,8 C 28,7 kts (7 Bft) 100,00 %
20.01.2022 11:50 3,4 C 67 % 1016,8 hPa 0,0 l/m 22,1 kts (6 Bft) SW 219 1 min 0,8 UV-I 466 W/m -2,1 C -11,1 C 26,1 kts (6 Bft) 100,00 %
20.01.2022 11:49 3,4 C 67 % 1016,8 hPa 0,0 l/m 23,3 kts (6 Bft) W-SW 249 1 min 0,8 UV-I 454 W/m -2,1 C -11,5 C 28,7 kts (7 Bft) 100,00 %
20.01.2022 11:48 3,4 C 68 % 1016,9 hPa 0,0 l/m 28,1 kts (7 Bft) W-SW 248 1 min 0,7 UV-I 431 W/m -1,9 C -12,7 C 32,1 kts (7 Bft) 100,00 %
20.01.2022 11:47 3,4 C 67 % 1016,9 hPa 0,0 l/m 18,5 kts (5 Bft) W-SW 247 1 min 0,7 UV-I 385 W/m -2,1 C -9,7 C 20,8 kts (5 Bft) 100,00 %
20.01.2022 11:46 3,4 C 68 % 1016,9 hPa 0,0 l/m 27,3 kts (7 Bft) W-SW 245 1 min 0,0 UV-I 385 W/m -1,9 C -12,5 C 32,1 kts (7 Bft) 100,00 %
20.01.2022 11:45 3,4 C 69 % 1017,0 hPa 0,0 l/m 19,8 kts (5 Bft) W-SW 242 1 min 0,7 UV-I 385 W/m -1,7 C -10,2 C 27,8 kts (7 Bft) 100,00 %
20.01.2022 11:44 3,3 C 69 % 1017,0 hPa 0,0 l/m 20,0 kts (5 Bft) W-SW 250 1 min 0,7 UV-I 383 W/m -1,8 C -10,5 C 25,2 kts (6 Bft) 97,56 %
20.01.2022 11:43 3,2 C 69 % 1017,0 hPa 0,0 l/m 17,8 kts (5 Bft) W-SW 239 1 min 0,7 UV-I 387 W/m -1,9 C -9,7 C 22,6 kts (6 Bft) 100,00 %
20.01.2022 11:42 3,1 C 69 % 1016,9 hPa 0,0 l/m 15,8 kts (5 Bft) W-SW 244 1 min 0,7 UV-I 329 W/m -2,0 C -8,9 C 20,0 kts (5 Bft) 100,00 %
20.01.2022 11:41 3,1 C 69 % 1016,9 hPa 0,0 l/m 18,1 kts (5 Bft) W-SW 240 1 min 0,7 UV-I 165 W/m -2,0 C -10,0 C 19,1 kts (5 Bft) 100,00 %
20.01.2022 11:40 3,1 C 69 % 1017,0 hPa 0,0 l/m 18,4 kts (5 Bft) W-SW 249 1 min 0,5 UV-I 165 W/m -2,0 C -10,1 C 22,6 kts (6 Bft) 100,00 %
20.01.2022 11:39 3,0 C 69 % 1016,9 hPa 0,0 l/m 17,6 kts (5 Bft) W-SW 253 1 min 0,5 UV-I 165 W/m -2,1 C -9,9 C 20,8 kts (5 Bft) 100,00 %
20.01.2022 11:38 3,1 C 69 % 1016,9 hPa 0,0 l/m 17,0 kts (5 Bft) SW 223 1 min 0,5 UV-I 165 W/m -2,0 C -9,4 C 22,6 kts (6 Bft) 100,00 %
20.01.2022 11:37 3,1 C 69 % 1016,8 hPa 0,0 l/m 19,4 kts (5 Bft) W-SW 249 0 min 0,0 UV-I 134 W/m -2,0 C -10,5 C 23,5 kts (6 Bft) 99,02 %
20.01.2022 11:36 3,1 C 69 % 1016,9 hPa 0,0 l/m 20,6 kts (5 Bft) SW 234 1 min 0,5 UV-I 181 W/m -2,0 C -11,0 C 25,2 kts (6 Bft) 100,00 %
20.01.2022 11:35 3,2 C 69 % 1016,9 hPa 0,0 l/m 17,3 kts (5 Bft) SW 229 1 min 0,5 UV-I 218 W/m -1,9 C -9,4 C 18,3 kts (5 Bft) 99,02 %
20.01.2022 11:34 3,2 C 69 % 1017,0 hPa 0,0 l/m 16,0 kts (5 Bft) SW 229 0 min 0,0 UV-I 139 W/m -1,9 C -8,8 C 20,0 kts (5 Bft) 100,00 %
20.01.2022 11:33 3,2 C 69 % 1017,0 hPa 0,0 l/m 23,2 kts (6 Bft) W-SW 244 1 min 0,5 UV-I 220 W/m -1,9 C -11,7 C 27,8 kts (7 Bft) 100,00 %
20.01.2022 11:32 3,2 C 69 % 1017,0 hPa 0,0 l/m 16,9 kts (5 Bft) SW 226 1 min 0,5 UV-I 248 W/m -1,9 C -9,3 C 20,8 kts (5 Bft) 100,00 %
20.01.2022 11:31 3,3 C 69 % 1017,1 hPa 0,0 l/m 19,4 kts (5 Bft) SW 228 1 min 0,0 UV-I 183 W/m -1,8 C -10,2 C 22,6 kts (6 Bft) 100,00 %
20.01.2022 11:30 3,3 C 69 % 1017,1 hPa 0,0 l/m 20,5 kts (5 Bft) W-SW 238 1 min 0,0 UV-I 172 W/m -1,8 C -10,7 C 24,4 kts (6 Bft) 100,00 %
20.01.2022 11:29 3,3 C 69 % 1017,1 hPa 0,0 l/m 24,2 kts (6 Bft) SW 229 1 min 0,0 UV-I 176 W/m -1,8 C -11,9 C 33,0 kts (7 Bft) 100,00 %
20.01.2022 11:28 3,4 C 69 % 1017,2 hPa 0,0 l/m 22,1 kts (6 Bft) SW 220 1 min 0,5 UV-I 202 W/m -1,7 C -11,1 C 25,2 kts (6 Bft) 100,00 %
20.01.2022 11:27 3,4 C 69 % 1017,1 hPa 0,0 l/m 19,5 kts (5 Bft) SW 230 1 min 0,5 UV-I 288 W/m -1,7 C -10,1 C 24,4 kts (6 Bft) 96,67 %
20.01.2022 11:26 3,4 C 69 % 1017,2 hPa 0,0 l/m 25,2 kts (6 Bft) W-SW 242 1 min 0,5 UV-I 234 W/m -1,7 C -12,0 C 29,5 kts (7 Bft) 100,00 %
20.01.2022 11:25 3,4 C 69 % 1017,2 hPa 0,0 l/m 22,8 kts (6 Bft) SW 235 1 min 0,5 UV-I 287 W/m -1,7 C -11,3 C 26,1 kts (6 Bft) 100,00 %
20.01.2022 11:24 3,4 C 69 % 1017,2 hPa 0,0 l/m 21,7 kts (6 Bft) W-SW 238 1 min 0,7 UV-I 450 W/m -1,7 C -10,9 C 23,5 kts (6 Bft) 100,00 %
20.01.2022 11:23 3,4 C 69 % 1017,2 hPa 0,0 l/m 18,0 kts (5 Bft) SW 223 1 min 0,7 UV-I 450 W/m -1,7 C -9,5 C 26,9 kts (6 Bft) 100,00 %
20.01.2022 11:22 3,4 C 70 % 1017,3 hPa 0,0 l/m 16,0 kts (5 Bft) W-SW 254 1 min 0,7 UV-I 450 W/m -1,5 C -8,5 C 19,1 kts (5 Bft) 100,00 %
20.01.2022 11:21 3,3 C 69 % 1017,2 hPa 0,0 l/m 18,0 kts (5 Bft) SW 231 1 min 0,7 UV-I 434 W/m -1,8 C -9,6 C 20,8 kts (5 Bft) 99,00 %
20.01.2022 11:20 3,3 C 70 % 1017,2 hPa 0,0 l/m 25,9 kts (6 Bft) W-SW 254 1 min 0,6 UV-I 443 W/m -1,6 C -12,3 C 28,7 kts (7 Bft) 100,00 %
20.01.2022 11:19 3,3 C 70 % 1017,2 hPa 0,0 l/m 19,3 kts (5 Bft) W-SW 237 1 min 0,7 UV-I 422 W/m -1,6 C -10,2 C 27,8 kts (7 Bft) 100,00 %
20.01.2022 11:18 3,3 C 70 % 1017,2 hPa 0,0 l/m 22,8 kts (6 Bft) W-SW 258 1 min 0,7 UV-I 417 W/m -1,6 C -11,5 C 25,2 kts (6 Bft) 100,00 %
20.01.2022 11:17 3,3 C 70 % 1017,3 hPa 0,0 l/m 21,2 kts (6 Bft) W-SW 251 1 min 0,7 UV-I 315 W/m -1,6 C -10,9 C 27,8 kts (7 Bft) 90,91 %
20.01.2022 11:16 3,2 C 71 % 1017,2 hPa 0,0 l/m 19,4 kts (5 Bft) W-SW 239 1 min 0,6 UV-I 315 W/m -1,5 C -10,4 C 26,9 kts (6 Bft) 100,00 %
20.01.2022 11:15 3,1 C 71 % 1017,2 hPa 0,0 l/m 14,6 kts (4 Bft) W-SW 246 1 min 0,5 UV-I 476 W/m -1,6 C -8,2 C 19,1 kts (5 Bft) 100,00 %
20.01.2022 11:14 3,1 C 71 % 1017,3 hPa 0,0 l/m 20,4 kts (5 Bft) W-SW 253 1 min 0,7 UV-I 476 W/m -1,6 C -10,9 C 23,5 kts (6 Bft) 100,00 %
20.01.2022 11:13 3,1 C 71 % 1017,4 hPa 0,0 l/m 21,8 kts (6 Bft) W-SW 238 1 min 0,7 UV-I 466 W/m -1,6 C -11,4 C 26,1 kts (6 Bft) 97,87 %
20.01.2022 11:12 3,1 C 71 % 1017,4 hPa 0,0 l/m 23,5 kts (6 Bft) W-SW 250 1 min 0,7 UV-I 330 W/m -1,6 C -12,0 C 28,7 kts (7 Bft) 99,00 %
20.01.2022 11:11 3,1 C 71 % 1017,3 hPa 0,0 l/m 23,0 kts (6 Bft) W-SW 239 1 min 0,7 UV-I 330 W/m -1,6 C -11,8 C 26,9 kts (6 Bft) 90,91 %
20.01.2022 11:10 3,1 C 71 % 1017,3 hPa 0,0 l/m 20,2 kts (5 Bft) W-SW 248 1 min 0,6 UV-I 243 W/m -1,6 C -10,8 C 27,8 kts (7 Bft) 100,00 %
20.01.2022 11:09 3,1 C 71 % 1017,2 hPa 0,0 l/m 20,8 kts (5 Bft) W 259 1 min 0,5 UV-I 352 W/m -1,6 C -11,1 C 25,2 kts (6 Bft) 96,88 %
20.01.2022 11:08 3,0 C 71 % 1017,2 hPa 0,0 l/m 16,8 kts (5 Bft) W-SW 254 1 min 0,6 UV-I 352 W/m -1,7 C -9,5 C 26,1 kts (6 Bft) 100,00 %
20.01.2022 11:07 3,0 C 71 % 1017,2 hPa 0,0 l/m 21,4 kts (6 Bft) W-SW 253 1 min 0,5 UV-I 352 W/m -1,7 C -11,4 C 26,1 kts (6 Bft) 100,00 %
20.01.2022 11:06 3,0 C 71 % 1017,3 hPa 0,0 l/m 18,5 kts (5 Bft) SW 232 1 min 0,7 UV-I 283 W/m -1,7 C -10,3 C 27,8 kts (7 Bft) 100,00 %
20.01.2022 11:05 3,0 C 71 % 1017,2 hPa 0,0 l/m 22,2 kts (6 Bft) W-SW 249 1 min 0,5 UV-I 283 W/m -1,7 C -11,7 C 26,9 kts (6 Bft) 100,00 %
20.01.2022 11:04 3,0 C 71 % 1017,2 hPa 0,0 l/m 21,5 kts (6 Bft) W-SW 238 1 min 0,6 UV-I 183 W/m -1,7 C -11,5 C 27,8 kts (7 Bft) 99,00 %
20.01.2022 11:03 3,1 C 71 % 1017,3 hPa 0,0 l/m 22,6 kts (6 Bft) W-SW 237 1 min 0,5 UV-I 197 W/m -1,6 C -11,7 C 26,1 kts (6 Bft) 100,00 %
20.01.2022 11:02 3,1 C 71 % 1017,3 hPa 0,0 l/m 19,4 kts (5 Bft) W-SW 241 1 min 0,0 UV-I 197 W/m -1,6 C -10,5 C 25,2 kts (6 Bft) 100,00 %
20.01.2022 11:01 3,1 C 71 % 1017,3 hPa 0,0 l/m 19,9 kts (5 Bft) SW 232 1 min 0,0 UV-I 359 W/m -1,6 C -10,7 C 22,6 kts (6 Bft) 100,00 %
20.01.2022 11:00 3,1 C 70 % 1017,3 hPa 0,0 l/m 27,1 kts (7 Bft) W-SW 249 1 min 0,6 UV-I 359 W/m -1,8 C -12,9 C 31,3 kts (7 Bft) 100,00 %
20.01.2022 10:59 3,1 C 71 % 1017,2 hPa 0,0 l/m 27,3 kts (7 Bft) W-SW 250 1 min 0,5 UV-I 322 W/m -1,6 C -13,0 C 33,0 kts (7 Bft) 100,00 %
20.01.2022 10:58 3,1 C 70 % 1017,3 hPa 0,0 l/m 26,7 kts (6 Bft) W-SW 256 1 min 0,6 UV-I 246 W/m -1,8 C -12,8 C 27,8 kts (7 Bft) 98,98 %
20.01.2022 10:57 3,2 C 71 % 1017,4 hPa 0,0 l/m 27,9 kts (7 Bft) SW 232 1 min 0,0 UV-I 346 W/m -1,5 C -13,0 C 32,1 kts (7 Bft) 100,00 %
20.01.2022 10:56 3,2 C 71 % 1017,2 hPa 0,0 l/m 24,9 kts (6 Bft) SW 225 1 min 0,5 UV-I 336 W/m -1,5 C -12,2 C 27,8 kts (7 Bft) 100,00 %
20.01.2022 10:55 3,2 C 70 % 1017,2 hPa 0,0 l/m 19,0 kts (5 Bft) W-SW 244 1 min 0,0 UV-I 218 W/m -1,7 C -10,2 C 26,9 kts (6 Bft) 100,00 %
20.01.2022 10:54 3,2 C 70 % 1017,4 hPa 0,0 l/m 22,7 kts (6 Bft) W-SW 252 1 min 0,7 UV-I 288 W/m -1,7 C -11,6 C 26,9 kts (6 Bft) 100,00 %
20.01.2022 10:53 3,2 C 71 % 1017,4 hPa 0,0 l/m 22,3 kts (6 Bft) W-SW 237 1 min 0,5 UV-I 288 W/m -1,5 C -11,4 C 25,2 kts (6 Bft) 100,00 %
20.01.2022 10:52 3,2 C 70 % 1017,4 hPa 0,0 l/m 16,3 kts (5 Bft) W-SW 243 1 min 0,5 UV-I 413 W/m -1,7 C -9,0 C 19,1 kts (5 Bft) 100,00 %
20.01.2022 10:51 3,2 C 70 % 1017,4 hPa 0,0 l/m 16,9 kts (5 Bft) SW 217 1 min 0,6 UV-I 413 W/m -1,7 C -9,3 C 20,8 kts (5 Bft) 100,00 %
20.01.2022 10:50 3,2 C 70 % 1017,5 hPa 0,0 l/m 20,4 kts (5 Bft) SW 220 1 min 0,5 UV-I 413 W/m -1,7 C -10,8 C 23,5 kts (6 Bft) 100,00 %
20.01.2022 10:49 3,2 C 71 % 1017,5 hPa 0,0 l/m 23,1 kts (6 Bft) W 266 1 min 0,6 UV-I 418 W/m -1,5 C -11,7 C 26,9 kts (6 Bft) 100,00 %
20.01.2022 10:48 3,1 C 71 % 1017,5 hPa 0,0 l/m 24,4 kts (6 Bft) W-SW 246 1 min 0,6 UV-I 417 W/m -1,6 C -12,2 C 29,5 kts (7 Bft) 100,00 %
20.01.2022 10:47 3,1 C 72 % 1017,5 hPa 0,0 l/m 19,5 kts (5 Bft) W-SW 255 1 min 0,6 UV-I 399 W/m -1,4 C -10,5 C 29,5 kts (7 Bft) 100,00 %
20.01.2022 10:46 3,1 C 72 % 1017,4 hPa 0,0 l/m 20,0 kts (5 Bft) W 263 1 min 0,6 UV-I 369 W/m -1,4 C -10,7 C 28,7 kts (7 Bft) 100,00 %
20.01.2022 10:45 3,1 C 72 % 1017,6 hPa 0,0 l/m 20,3 kts (5 Bft) W-SW 241 1 min 0,6 UV-I 338 W/m -1,4 C -10,9 C 27,8 kts (7 Bft) 98,95 %
20.01.2022 10:44 3,0 C 72 % 1017,5 hPa 0,0 l/m 15,2 kts (4 Bft) W 260 1 min 0,5 UV-I 313 W/m -1,5 C -8,7 C 17,4 kts (5 Bft) 100,00 %
20.01.2022 10:43 2,9 C 73 % 1017,6 hPa 0,0 l/m 12,8 kts (4 Bft) W 261 1 min 0,5 UV-I 297 W/m -1,5 C -7,3 C 15,7 kts (5 Bft) 100,00 %
20.01.2022 10:42 2,9 C 73 % 1017,6 hPa 0,0 l/m 15,7 kts (5 Bft) SW 228 1 min 0,5 UV-I 301 W/m -1,5 C -9,1 C 19,1 kts (5 Bft) 92,86 %
20.01.2022 10:41 2,9 C 74 % 1017,6 hPa 0,0 l/m 21,0 kts (5 Bft) SW 235 1 min 0,5 UV-I 297 W/m -1,3 C -11,4 C 26,1 kts (6 Bft) 95,83 %
20.01.2022 10:40 2,9 C 74 % 1017,6 hPa 0,0 l/m 19,6 kts (5 Bft) W-SW 247 1 min 0,5 UV-I 308 W/m -1,3 C -10,9 C 23,5 kts (6 Bft) 100,00 %
20.01.2022 10:39 2,8 C 74 % 1017,5 hPa 0,0 l/m 17,1 kts (5 Bft) W-SW 252 1 min 0,5 UV-I 322 W/m -1,4 C -9,9 C 20,8 kts (5 Bft) 95,83 %
20.01.2022 10:38 2,8 C 74 % 1017,5 hPa 0,0 l/m 10,8 kts (4 Bft) W-SW 237 1 min 0,5 UV-I 338 W/m -1,4 C -6,0 C 13,9 kts (4 Bft) 100,00 %
20.01.2022 10:37 2,7 C 74 % 1017,5 hPa 0,0 l/m 11,8 kts (4 Bft) W-SW 250 1 min 0,5 UV-I 371 W/m -1,5 C -6,9 C 16,5 kts (5 Bft) 95,83 %
20.01.2022 10:36 2,6 C 74 % 1017,5 hPa 0,0 l/m 13,2 kts (4 Bft) W-SW 255 1 min 0,5 UV-I 404 W/m -1,6 C -8,0 C 16,5 kts (5 Bft) 100,00 %
20.01.2022 10:35 2,6 C 74 % 1017,5 hPa 0,0 l/m 16,6 kts (5 Bft) W 265 1 min 0,5 UV-I 408 W/m -1,6 C -9,9 C 20,0 kts (5 Bft) 96,30 %
20.01.2022 10:34 2,4 C 74 % 1017,5 hPa 0,0 l/m 20,6 kts (5 Bft) W 274 1 min 0,6 UV-I 376 W/m -1,7 C -12,0 C 25,2 kts (6 Bft) 100,00 %
20.01.2022 10:33 2,3 C 75 % 1017,4 hPa 0,0 l/m 17,9 kts (5 Bft) W-SW 240 1 min 0,5 UV-I 336 W/m -1,7 C -11,0 C 24,4 kts (6 Bft) 100,00 %
20.01.2022 10:32 2,3 C 75 % 1017,5 hPa 0,0 l/m 19,7 kts (5 Bft) W-SW 252 1 min 0,5 UV-I 332 W/m -1,7 C -11,8 C 24,4 kts (6 Bft) 95,65 %
20.01.2022 10:31 2,2 C 76 % 1017,5 hPa 0,0 l/m 19,3 kts (5 Bft) W-SW 238 1 min 0,5 UV-I 207 W/m -1,6 C -11,8 C 26,1 kts (6 Bft) 100,00 %
20.01.2022 10:30 2,2 C 76 % 1017,4 hPa 0,0 l/m 14,3 kts (4 Bft) W-SW 254 1 min 0,5 UV-I 207 W/m -1,6 C -9,2 C 20,8 kts (5 Bft) 96,15 %
20.01.2022 10:29 2,1 C 76 % 1017,5 hPa 0,0 l/m 13,9 kts (4 Bft) W-SW 253 1 min 0,0 UV-I 171 W/m -1,7 C -9,1 C 17,4 kts (5 Bft) 96,15 %
20.01.2022 10:28 2,1 C 76 % 1017,5 hPa 0,0 l/m 14,0 kts (4 Bft) W 264 0 min 0,0 UV-I 114 W/m -1,7 C -9,2 C 20,0 kts (5 Bft) 100,00 %
20.01.2022 10:27 2,0 C 76 % 1017,6 hPa 0,0 l/m 13,4 kts (4 Bft) W-SW 238 0 min 0,0 UV-I 111 W/m -1,8 C -9,0 C 21,7 kts (6 Bft) 100,00 %
20.01.2022 10:26 2,0 C 76 % 1017,5 hPa 0,0 l/m 11,4 kts (4 Bft) SW 216 0 min 0,0 UV-I 123 W/m -1,8 C -7,5 C 14,8 kts (4 Bft) 95,65 %
20.01.2022 10:25 1,9 C 77 % 1017,6 hPa 0,0 l/m 16,4 kts (5 Bft) W 259 1 min 0,0 UV-I 221 W/m -1,7 C -10,8 C 20,8 kts (5 Bft) 100,00 %
20.01.2022 10:24 1,9 C 77 % 1017,5 hPa 0,0 l/m 15,1 kts (4 Bft) SW 236 1 min 0,0 UV-I 343 W/m -1,7 C -10,1 C 19,1 kts (5 Bft) 91,30 %
20.01.2022 10:23 1,8 C 76 % 1017,6 hPa 0,0 l/m 15,8 kts (5 Bft) W-SW 254 1 min 0,0 UV-I 343 W/m -2,0 C -10,6 C 19,1 kts (5 Bft) 100,00 %
20.01.2022 10:22 1,8 C 76 % 1017,5 hPa 0,0 l/m 17,2 kts (5 Bft) W-SW 246 1 min 0,0 UV-I 200 W/m -2,0 C -11,4 C 21,7 kts (6 Bft) 98,00 %
20.01.2022 10:21 1,8 C 76 % 1017,5 hPa 0,0 l/m 15,6 kts (4 Bft) W 261 1 min 0,0 UV-I 200 W/m -2,0 C -10,5 C 18,3 kts (5 Bft) 99,02 %
20.01.2022 10:20 1,8 C 76 % 1017,5 hPa 0,0 l/m 18,8 kts (5 Bft) W-SW 257 0 min 0,0 UV-I 116 W/m -2,0 C -12,2 C 24,4 kts (6 Bft) 95,65 %
20.01.2022 10:19 1,8 C 76 % 1017,5 hPa 0,0 l/m 19,3 kts (5 Bft) W-SW 247 0 min 0,0 UV-I 91 W/m -2,0 C -12,4 C 22,6 kts (6 Bft) 100,00 %
20.01.2022 10:18 1,8 C 76 % 1017,5 hPa 0,0 l/m 19,0 kts (5 Bft) W-SW 246 0 min 0,0 UV-I 77 W/m -2,0 C -12,2 C 22,6 kts (6 Bft) 99,03 %
20.01.2022 10:17 1,8 C 75 % 1017,6 hPa 0,0 l/m 16,0 kts (5 Bft) W-SW 252 0 min 0,0 UV-I 67 W/m -2,1 C -10,8 C 22,6 kts (6 Bft) 100,00 %
20.01.2022 10:16 1,9 C 75 % 1017,4 hPa 0,0 l/m 12,2 kts (4 Bft) W-SW 246 0 min 0,0 UV-I 65 W/m -2,1 C -8,3 C 18,3 kts (5 Bft) 100,00 %
20.01.2022 10:15 1,9 C 75 % 1017,5 hPa 0,0 l/m 13,9 kts (4 Bft) SW 228 0 min 0,0 UV-I 74 W/m -2,1 C -9,4 C 17,4 kts (5 Bft) 100,00 %
20.01.2022 10:14 1,9 C 75 % 1017,5 hPa 0,0 l/m 14,3 kts (4 Bft) SW 236 0 min 0,0 UV-I 102 W/m -2,1 C -9,6 C 18,3 kts (5 Bft) 100,00 %
20.01.2022 10:13 1,9 C 75 % 1017,5 hPa 0,0 l/m 15,6 kts (4 Bft) W 265 0 min 0,0 UV-I 104 W/m -2,1 C -10,4 C 20,0 kts (5 Bft) 100,00 %
20.01.2022 10:12 1,9 C 74 % 1017,5 hPa 0,0 l/m 15,7 kts (5 Bft) W-SW 244 0 min 0,0 UV-I 109 W/m -2,2 C -10,4 C 20,0 kts (5 Bft) 100,00 %
20.01.2022 10:11 2,0 C 74 % 1017,5 hPa 0,0 l/m 15,1 kts (4 Bft) SW 221 0 min 0,0 UV-I 98 W/m -2,1 C -10,0 C 18,3 kts (5 Bft) 100,00 %
20.01.2022 10:10 2,0 C 74 % 1017,5 hPa 0,0 l/m 15,7 kts (5 Bft) W-SW 246 0 min 0,0 UV-I 83 W/m -2,1 C -10,3 C 19,1 kts (5 Bft) 100,00 %
20.01.2022 10:09 2,0 C 74 % 1017,6 hPa 0,0 l/m 19,3 kts (5 Bft) W 267 0 min 0,0 UV-I 74 W/m -2,1 C -12,1 C 21,7 kts (6 Bft) 100,00 %
20.01.2022 10:08 2,1 C 74 % 1017,6 hPa 0,0 l/m 17,7 kts (5 Bft) W-SW 246 0 min 0,0 UV-I 67 W/m -2,0 C -11,2 C 20,8 kts (5 Bft) 100,00 %
20.01.2022 10:07 2,1 C 74 % 1017,6 hPa 0,0 l/m 13,4 kts (4 Bft) W-SW 250 0 min 0,0 UV-I 74 W/m -2,0 C -8,8 C 15,7 kts (5 Bft) 98,99 %
20.01.2022 10:06 2,1 C 74 % 1017,7 hPa 0,0 l/m 12,4 kts (4 Bft) W-SW 246 0 min 0,0 UV-I 151 W/m -2,0 C -8,1 C 13,9 kts (4 Bft) 100,00 %
20.01.2022 10:05 2,1 C 74 % 1017,6 hPa 0,0 l/m 13,9 kts (4 Bft) W-SW 258 0 min 0,0 UV-I 76 W/m -2,0 C -9,1 C 18,3 kts (5 Bft) 100,00 %
20.01.2022 10:04 2,2 C 74 % 1017,7 hPa 0,0 l/m 11,2 kts (4 Bft) W 264 0 min 0,0 UV-I 62 W/m -1,9 C -7,1 C 14,8 kts (4 Bft) 100,00 %
20.01.2022 10:03 2,2 C 74 % 1017,8 hPa 0,0 l/m 13,8 kts (4 Bft) W-SW 246 0 min 0,0 UV-I 62 W/m -1,9 C -8,9 C 18,3 kts (5 Bft) 100,00 %
20.01.2022 10:02 2,3 C 74 % 1017,8 hPa 0,0 l/m 16,9 kts (5 Bft) SW 234 0 min 0,0 UV-I 79 W/m -1,8 C -10,5 C 18,3 kts (5 Bft) 100,00 %
20.01.2022 10:01 2,3 C 74 % 1017,7 hPa 0,0 l/m 21,9 kts (6 Bft) W-SW 241 1 min 0,0 UV-I 267 W/m -1,8 C -12,6 C 25,2 kts (6 Bft) 98,98 %
20.01.2022 10:00 2,3 C 74 % 1017,8 hPa 0,0 l/m 17,4 kts (5 Bft) W-SW 249 1 min 0,0 UV-I 267 W/m -1,8 C -10,8 C 22,6 kts (6 Bft) 100,00 %
20.01.2022 09:59 2,3 C 75 % 1017,9 hPa 0,0 l/m 15,6 kts (4 Bft) W-SW 257 1 min 0,0 UV-I 262 W/m -1,7 C -9,8 C 23,5 kts (6 Bft) 100,00 %
20.01.2022 09:58 2,2 C 75 % 1018,0 hPa 0,0 l/m 18,0 kts (5 Bft) W-SW 252 1 min 0,0 UV-I 290 W/m -1,8 C -11,2 C 21,7 kts (6 Bft) 100,00 %
20.01.2022 09:57 2,2 C 75 % 1017,9 hPa 0,0 l/m 20,3 kts (5 Bft) W 269 1 min 0,0 UV-I 260 W/m -1,8 C -12,2 C 24,4 kts (6 Bft) 100,00 %
20.01.2022 09:56 2,1 C 75 % 1017,9 hPa 0,0 l/m 14,8 kts (4 Bft) W-SW 241 1 min 0,0 UV-I 223 W/m -1,9 C -9,7 C 19,1 kts (5 Bft) 100,00 %
20.01.2022 09:55 2,1 C 75 % 1017,9 hPa 0,0 l/m 17,1 kts (5 Bft) W-SW 239 1 min 0,0 UV-I 221 W/m -1,9 C -10,9 C 20,0 kts (5 Bft) 100,00 %
20.01.2022 09:54 2,1 C 75 % 1018,0 hPa 0,0 l/m 14,7 kts (4 Bft) SW 218 1 min 0,0 UV-I 225 W/m -1,9 C -9,6 C 17,4 kts (5 Bft) 100,00 %
20.01.2022 09:53 2,0 C 75 % 1018,0 hPa 0,0 l/m 14,5 kts (4 Bft) W 261 1 min 0,0 UV-I 230 W/m -2,0 C -9,6 C 17,4 kts (5 Bft) 100,00 %
20.01.2022 09:52 1,9 C 75 % 1017,9 hPa 0,0 l/m 15,1 kts (4 Bft) W 271 1 min 0,0 UV-I 237 W/m -2,1 C -10,1 C 19,1 kts (5 Bft) 100,00 %
20.01.2022 09:51 1,9 C 75 % 1018,0 hPa 0,0 l/m 13,0 kts (4 Bft) W-SW 244 1 min 0,0 UV-I 229 W/m -2,1 C -8,8 C 15,7 kts (5 Bft) 100,00 %
20.01.2022 09:50 1,9 C 75 % 1018,0 hPa 0,0 l/m 13,4 kts (4 Bft) W-SW 237 1 min 0,0 UV-I 216 W/m -2,1 C -9,1 C 18,3 kts (5 Bft) 100,00 %
20.01.2022 09:49 1,9 C 75 % 1018,1 hPa 0,0 l/m 16,4 kts (5 Bft) W-SW 242 1 min 0,0 UV-I 207 W/m -2,1 C -10,8 C 19,1 kts (5 Bft) 95,65 %
20.01.2022 09:48 1,8 C 75 % 1018,0 hPa 0,0 l/m 17,7 kts (5 Bft) W-SW 251 1 min 0,0 UV-I 199 W/m -2,1 C -11,6 C 21,7 kts (6 Bft) 100,00 %
20.01.2022 09:47 1,8 C 75 % 1017,9 hPa 0,0 l/m 18,1 kts (5 Bft) W-SW 256 1 min 0,0 UV-I 195 W/m -2,1 C -11,8 C 20,8 kts (5 Bft) 100,00 %
20.01.2022 09:46 1,8 C 76 % 1017,9 hPa 0,0 l/m 9,8 kts (3 Bft) W-SW 238 1 min 0,0 UV-I 192 W/m -2,0 C -6,5 C 14,8 kts (4 Bft) 100,00 %
20.01.2022 09:45 1,8 C 76 % 1018,0 hPa 0,0 l/m 12,1 kts (4 Bft) W 260 1 min 0,0 UV-I 188 W/m -2,0 C -8,3 C 13,9 kts (4 Bft) 100,00 %
20.01.2022 09:44 1,8 C 76 % 1018,0 hPa 0,0 l/m 11,7 kts (4 Bft) W-SW 244 1 min 0,0 UV-I 186 W/m -2,0 C -8,0 C 15,7 kts (5 Bft) 100,00 %
20.01.2022 09:43 1,8 C 76 % 1018,0 hPa 0,0 l/m 13,6 kts (4 Bft) W-SW 242 1 min 0,0 UV-I 167 W/m -2,0 C -9,3 C 18,3 kts (5 Bft) 100,00 %
20.01.2022 09:42 1,8 C 75 % 1018,0 hPa 0,0 l/m 13,9 kts (4 Bft) W 261 0 min 0,0 UV-I 46 W/m -2,1 C -9,5 C 19,1 kts (5 Bft) 100,00 %
20.01.2022 09:41 1,8 C 75 % 1017,9 hPa 0,0 l/m 12,3 kts (4 Bft) W-SW 249 0 min 0,0 UV-I 46 W/m -2,1 C -8,4 C 15,7 kts (5 Bft) 100,00 %
20.01.2022 09:40 1,8 C 75 % 1017,9 hPa 0,0 l/m 12,1 kts (4 Bft) W-SW 244 0 min 0,0 UV-I 118 W/m -2,1 C -8,3 C 14,8 kts (4 Bft) 100,00 %
20.01.2022 09:39 1,8 C 75 % 1018,0 hPa 0,0 l/m 16,1 kts (5 Bft) SW 215 0 min 0,0 UV-I 113 W/m -2,1 C -10,8 C 20,0 kts (5 Bft) 100,00 %
20.01.2022 09:38 1,9 C 75 % 1018,1 hPa 0,0 l/m 15,7 kts (5 Bft) W-SW 250 0 min 0,0 UV-I 60 W/m -2,1 C -10,5 C 18,3 kts (5 Bft) 96,55 %
20.01.2022 09:37 1,9 C 75 % 1018,0 hPa 0,0 l/m 17,7 kts (5 Bft) SW 235 0 min 0,0 UV-I 65 W/m -2,1 C -11,5 C 21,7 kts (6 Bft) 100,00 %
20.01.2022 09:36 1,9 C 76 % 1018,2 hPa 0,0 l/m 18,4 kts (5 Bft) SW 225 0 min 0,0 UV-I 79 W/m -1,9 C -11,8 C 20,8 kts (5 Bft) 100,00 %
20.01.2022 09:35 1,9 C 76 % 1018,0 hPa 0,0 l/m 19,0 kts (5 Bft) W-SW 252 1 min 0,0 UV-I 199 W/m -1,9 C -12,1 C 22,6 kts (6 Bft) 100,00 %
20.01.2022 09:34 1,8 C 76 % 1018,0 hPa 0,0 l/m 17,3 kts (5 Bft) W-SW 247 1 min 0,0 UV-I 211 W/m -2,0 C -11,4 C 20,0 kts (5 Bft) 100,00 %
20.01.2022 09:33 1,8 C 76 % 1017,9 hPa 0,0 l/m 15,8 kts (5 Bft) W-SW 240 1 min 0,0 UV-I 197 W/m -2,0 C -10,7 C 19,1 kts (5 Bft) 100,00 %
20.01.2022 09:32 1,8 C 76 % 1018,1 hPa 0,0 l/m 15,3 kts (4 Bft) W-SW 252 0 min 0,0 UV-I 127 W/m -2,0 C -10,4 C 18,3 kts (5 Bft) 100,00 %
20.01.2022 09:31 1,8 C 76 % 1018,0 hPa 0,0 l/m 16,1 kts (5 Bft) W-SW 241 0 min 0,0 UV-I 139 W/m -2,0 C -10,8 C 22,6 kts (6 Bft) 100,00 %
20.01.2022 09:30 1,8 C 76 % 1017,9 hPa 0,0 l/m 17,4 kts (5 Bft) W-SW 250 0 min 0,0 UV-I 141 W/m -2,0 C -11,5 C 20,0 kts (5 Bft) 100,00 %
20.01.2022 09:29 1,8 C 76 % 1018,1 hPa 0,0 l/m 19,0 kts (5 Bft) W-SW 250 0 min 0,0 UV-I 113 W/m -2,0 C -12,2 C 22,6 kts (6 Bft) 100,00 %
20.01.2022 09:28 1,8 C 76 % 1018,0 hPa 0,0 l/m 15,6 kts (4 Bft) W-SW 244 0 min 0,0 UV-I 139 W/m -2,0 C -10,5 C 19,1 kts (5 Bft) 100,00 %
20.01.2022 09:27 1,8 C 76 % 1018,0 hPa 0,0 l/m 13,4 kts (4 Bft) W-NW 287 0 min 0,0 UV-I 81 W/m -2,0 C -9,2 C 15,7 kts (5 Bft) 100,00 %
20.01.2022 09:26 1,8 C 76 % 1018,0 hPa 0,0 l/m 18,4 kts (5 Bft) W-SW 248 0 min 0,0 UV-I 91 W/m -2,0 C -11,9 C 20,8 kts (5 Bft) 100,00 %
20.01.2022 09:25 1,8 C 76 % 1018,0 hPa 0,0 l/m 19,8 kts (5 Bft) W-SW 237 0 min 0,0 UV-I 111 W/m -2,0 C -12,6 C 21,7 kts (6 Bft) 100,00 %
20.01.2022 09:24 1,7 C 77 % 1018,0 hPa 0,0 l/m 20,0 kts (5 Bft) W-SW 255 1 min 0,0 UV-I 186 W/m -1,9 C -12,8 C 22,6 kts (6 Bft) 94,44 %
20.01.2022 09:23 1,7 C 76 % 1018,0 hPa 0,0 l/m 19,6 kts (5 Bft) W-SW 251 1 min 0,0 UV-I 239 W/m -2,1 C -12,6 C 24,4 kts (6 Bft) 100,00 %
20.01.2022 09:22 1,6 C 76 % 1018,1 hPa 0,0 l/m 17,4 kts (5 Bft) SW 236 0 min 0,0 UV-I 98 W/m -2,2 C -11,8 C 19,1 kts (5 Bft) 100,00 %
20.01.2022 09:21 1,7 C 76 % 1018,1 hPa 0,0 l/m 18,8 kts (5 Bft) W 262 0 min 0,0 UV-I 65 W/m -2,1 C -12,3 C 25,2 kts (6 Bft) 100,00 %
20.01.2022 09:20 1,7 C 76 % 1018,0 hPa 0,0 l/m 21,1 kts (6 Bft) W 259 0 min 0,0 UV-I 46 W/m -2,1 C -13,2 C 24,4 kts (6 Bft) 100,00 %
20.01.2022 09:19 1,7 C 76 % 1018,0 hPa 0,0 l/m 14,6 kts (4 Bft) W-SW 252 0 min 0,0 UV-I 39 W/m -2,1 C -10,1 C 16,5 kts (5 Bft) 100,00 %
20.01.2022 09:18 1,7 C 76 % 1018,0 hPa 0,0 l/m 18,0 kts (5 Bft) W-SW 250 0 min 0,0 UV-I 47 W/m -2,1 C -11,9 C 22,6 kts (6 Bft) 100,00 %
20.01.2022 09:17 1,7 C 76 % 1018,1 hPa 0,0 l/m 19,5 kts (5 Bft) W-SW 253 0 min 0,0 UV-I 46 W/m -2,1 C -12,6 C 21,7 kts (6 Bft) 98,88 %
20.01.2022 09:16 1,7 C 76 % 1018,1 hPa 0,0 l/m 23,2 kts (6 Bft) W-SW 248 0 min 0,0 UV-I 42 W/m -2,1 C -14,0 C 26,9 kts (6 Bft) 95,65 %
20.01.2022 09:15 1,7 C 76 % 1018,1 hPa 0,0 l/m 21,3 kts (6 Bft) W-SW 246 0 min 0,0 UV-I 51 W/m -2,1 C -13,3 C 26,9 kts (6 Bft) 97,44 %
20.01.2022 09:14 1,7 C 76 % 1018,2 hPa 0,0 l/m 13,7 kts (4 Bft) W 269 0 min 0,0 UV-I 54 W/m -2,1 C -9,5 C 15,7 kts (5 Bft) 100,00 %
20.01.2022 09:13 1,7 C 76 % 1018,2 hPa 0,0 l/m 17,0 kts (5 Bft) SW 232 0 min 0,0 UV-I 54 W/m -2,1 C -11,4 C 24,4 kts (6 Bft) 100,00 %
20.01.2022 09:12 1,7 C 76 % 1018,2 hPa 0,0 l/m 15,3 kts (4 Bft) SW 236 0 min 0,0 UV-I 63 W/m -2,1 C -10,5 C 20,0 kts (5 Bft) 95,65 %
20.01.2022 09:11 1,7 C 76 % 1018,1 hPa 0,0 l/m 18,6 kts (5 Bft) W-SW 248 0 min 0,0 UV-I 79 W/m -2,1 C -12,2 C 20,8 kts (5 Bft) 100,00 %
20.01.2022 09:10 1,7 C 76 % 1018,1 hPa 0,0 l/m 19,2 kts (5 Bft) SW 232 0 min 0,0 UV-I 111 W/m -2,1 C -12,5 C 22,6 kts (6 Bft) 96,88 %
20.01.2022 09:09 1,7 C 76 % 1018,1 hPa 0,0 l/m 20,1 kts (5 Bft) W-SW 238 0 min 0,0 UV-I 107 W/m -2,1 C -12,8 C 23,5 kts (6 Bft) 100,00 %
20.01.2022 09:08 1,7 C 76 % 1018,0 hPa 0,0 l/m 18,5 kts (5 Bft) W-SW 244 0 min 0,0 UV-I 98 W/m -2,1 C -12,2 C 24,4 kts (6 Bft) 98,00 %
20.01.2022 09:07 1,7 C 76 % 1018,0 hPa 0,0 l/m 15,4 kts (4 Bft) W-SW 252 0 min 0,0 UV-I 98 W/m -2,1 C -10,6 C 17,4 kts (5 Bft) 98,91 %
20.01.2022 09:06 1,6 C 76 % 1018,0 hPa 0,0 l/m 18,1 kts (5 Bft) SW 233 0 min 0,0 UV-I 97 W/m -2,2 C -12,1 C 24,4 kts (6 Bft) 95,65 %
20.01.2022 09:05 1,7 C 76 % 1018,2 hPa 0,0 l/m 17,3 kts (5 Bft) W 259 0 min 0,0 UV-I 95 W/m -2,1 C -11,6 C 19,1 kts (5 Bft) 100,00 %
20.01.2022 09:04 1,6 C 77 % 1018,0 hPa 0,0 l/m 19,8 kts (5 Bft) W-SW 246 0 min 0,0 UV-I 100 W/m -2,0 C -12,9 C 23,5 kts (6 Bft) 95,83 %
20.01.2022 09:03 1,6 C 77 % 1018,0 hPa 0,0 l/m 15,2 kts (4 Bft) W 265 0 min 0,0 UV-I 148 W/m -2,0 C -10,6 C 21,7 kts (6 Bft) 100,00 %
20.01.2022 09:02 1,6 C 77 % 1018,0 hPa 0,0 l/m 14,8 kts (4 Bft) W-SW 239 0 min 0,0 UV-I 141 W/m -2,0 C -10,4 C 17,4 kts (5 Bft) 96,55 %
20.01.2022 09:01 1,6 C 76 % 1018,0 hPa 0,0 l/m 14,4 kts (4 Bft) SW 225 0 min 0,0 UV-I 86 W/m -2,2 C -10,1 C 18,3 kts (5 Bft) 100,00 %
20.01.2022 09:00 1,5 C 77 % 1018,0 hPa 0,0 l/m 16,8 kts (5 Bft) W-SW 247 0 min 0,0 UV-I 137 W/m -2,1 C -11,6 C 20,8 kts (5 Bft) 96,55 %
20.01.2022 08:59 1,5 C 77 % 1018,0 hPa 0,0 l/m 15,9 kts (5 Bft) W-SW 248 0 min 0,0 UV-I 109 W/m -2,1 C -11,2 C 18,3 kts (5 Bft) 100,00 %
20.01.2022 08:58 1,5 C 77 % 1017,9 hPa 0,0 l/m 19,7 kts (5 Bft) W-NW 283 0 min 0,0 UV-I 102 W/m -2,1 C -13,0 C 23,5 kts (6 Bft) 91,67 %
20.01.2022 08:57 1,5 C 77 % 1017,9 hPa 0,0 l/m 16,3 kts (5 Bft) W 263 0 min 0,0 UV-I 53 W/m -2,1 C -11,4 C 20,0 kts (5 Bft) 100,00 %
20.01.2022 08:56 1,6 C 77 % 1017,8 hPa 0,0 l/m 17,1 kts (5 Bft) W-SW 257 0 min 0,0 UV-I 49 W/m -2,0 C -11,6 C 19,1 kts (5 Bft) 96,67 %
20.01.2022 08:55 1,5 C 77 % 1017,8 hPa 0,0 l/m 15,6 kts (4 Bft) W 275 0 min 0,0 UV-I 54 W/m -2,1 C -10,9 C 19,1 kts (5 Bft) 100,00 %
20.01.2022 08:54 1,5 C 77 % 1017,9 hPa 0,0 l/m 16,7 kts (5 Bft) SW 225 0 min 0,0 UV-I 49 W/m -2,1 C -11,6 C 23,5 kts (6 Bft) 100,00 %
20.01.2022 08:53 1,5 C 76 % 1017,8 hPa 0,0 l/m 22,1 kts (6 Bft) W-SW 250 0 min 0,0 UV-I 47 W/m -2,3 C -13,9 C 26,1 kts (6 Bft) 100,00 %
20.01.2022 08:52 1,5 C 77 % 1017,9 hPa 0,0 l/m 18,7 kts (5 Bft) W-SW 250 0 min 0,0 UV-I 37 W/m -2,1 C -12,5 C 22,6 kts (6 Bft) 100,00 %
20.01.2022 08:51 1,5 C 77 % 1017,9 hPa 0,0 l/m 17,2 kts (5 Bft) W-SW 240 0 min 0,0 UV-I 25 W/m -2,1 C -11,8 C 19,1 kts (5 Bft) 100,00 %
20.01.2022 08:50 1,5 C 77 % 1017,8 hPa 0,0 l/m 15,8 kts (5 Bft) W-SW 246 0 min 0,0 UV-I 18 W/m -2,1 C -11,1 C 20,8 kts (5 Bft) 100,00 %
20.01.2022 08:49 1,6 C 77 % 1017,8 hPa 0,0 l/m 19,0 kts (5 Bft) W-SW 255 0 min 0,0 UV-I 16 W/m -2,0 C -12,5 C 20,8 kts (5 Bft) 100,00 %
20.01.2022 08:48 1,5 C 76 % 1017,8 hPa 0,0 l/m 19,5 kts (5 Bft) W-SW 244 0 min 0,0 UV-I 16 W/m -2,3 C -12,9 C 23,5 kts (6 Bft) 100,00 %
20.01.2022 08:47 1,5 C 76 % 1017,8 hPa 0,0 l/m 21,1 kts (6 Bft) W-SW 244 0 min 0,0 UV-I 16 W/m -2,3 C -13,5 C 25,2 kts (6 Bft) 96,55 %
20.01.2022 08:46 1,5 C 76 % 1017,7 hPa 0,0 l/m 15,3 kts (4 Bft) W-SW 255 0 min 0,0 UV-I 14 W/m -2,3 C -10,8 C 24,4 kts (6 Bft) 100,00 %
20.01.2022 08:45 1,5 C 76 % 1017,7 hPa 0,0 l/m 17,7 kts (5 Bft) W-SW 238 0 min 0,0 UV-I 14 W/m -2,3 C -12,0 C 20,0 kts (5 Bft) 95,65 %
20.01.2022 08:44 1,5 C 76 % 1017,8 hPa 0,0 l/m 15,4 kts (4 Bft) W 273 0 min 0,0 UV-I 14 W/m -2,3 C -10,8 C 22,6 kts (6 Bft) 100,00 %
20.01.2022 08:43 1,6 C 76 % 1017,7 hPa 0,0 l/m 18,0 kts (5 Bft) W-SW 254 0 min 0,0 UV-I 16 W/m -2,2 C -12,1 C 22,6 kts (6 Bft) 98,00 %
20.01.2022 08:42 1,6 C 76 % 1017,8 hPa 0,0 l/m 17,6 kts (5 Bft) W-SW 258 0 min 0,0 UV-I 18 W/m -2,2 C -11,9 C 19,1 kts (5 Bft) 98,95 %
20.01.2022 08:41 1,6 C 76 % 1017,8 hPa 0,0 l/m 15,9 kts (5 Bft) W-SW 250 0 min 0,0 UV-I 14 W/m -2,2 C -11,0 C 18,3 kts (5 Bft) 100,00 %
20.01.2022 08:40 1,6 C 76 % 1017,7 hPa 0,0 l/m 15,5 kts (4 Bft) W 261 0 min 0,0 UV-I 12 W/m -2,2 C -10,8 C 20,8 kts (5 Bft) 100,00 %
20.01.2022 08:39 1,6 C 76 % 1017,8 hPa 0,0 l/m 19,3 kts (5 Bft) W 262 0 min 0,0 UV-I 11 W/m -2,2 C -12,6 C 23,5 kts (6 Bft) 96,15 %
20.01.2022 08:38 1,6 C 76 % 1017,8 hPa 0,0 l/m 20,4 kts (5 Bft) W-SW 246 0 min 0,0 UV-I 11 W/m -2,2 C -13,1 C 21,7 kts (6 Bft) 100,00 %
20.01.2022 08:37 1,6 C 76 % 1017,7 hPa 0,0 l/m 18,7 kts (5 Bft) SW 233 0 min 0,0 UV-I 11 W/m -2,2 C -12,4 C 25,2 kts (6 Bft) 100,00 %
20.01.2022 08:36 1,6 C 76 % 1017,8 hPa 0,0 l/m 19,8 kts (5 Bft) SW 227 0 min 0,0 UV-I 9 W/m -2,2 C -12,8 C 23,5 kts (6 Bft) 98,94 %
20.01.2022 08:35 1,6 C 76 % 1017,8 hPa 0,0 l/m 15,3 kts (4 Bft) SW 232 0 min 0,0 UV-I 9 W/m -2,2 C -10,6 C 17,4 kts (5 Bft) 100,00 %
20.01.2022 08:34 1,6 C 76 % 1017,7 hPa 0,0 l/m 17,8 kts (5 Bft) W-SW 254 0 min 0,0 UV-I 9 W/m -2,2 C -12,0 C 23,5 kts (6 Bft) 100,00 %
20.01.2022 08:33 1,6 C 76 % 1017,8 hPa 0,0 l/m 17,5 kts (5 Bft) W 263 0 min 0,0 UV-I 7 W/m -2,2 C -11,8 C 20,0 kts (5 Bft) 96,15 %
20.01.2022 08:32 1,6 C 76 % 1017,7 hPa 0,0 l/m 21,5 kts (6 Bft) W-SW 250 0 min 0,0 UV-I 7 W/m -2,2 C -13,5 C 26,9 kts (6 Bft) 100,00 %
20.01.2022 08:31 1,6 C 76 % 1017,7 hPa 0,0 l/m 19,8 kts (5 Bft) W-SW 238 0 min 0,0 UV-I 7 W/m -2,2 C -12,9 C 23,5 kts (6 Bft) 92,86 %
20.01.2022 08:30 1,5 C 76 % 1017,7 hPa 0,0 l/m 19,2 kts (5 Bft) W 261 0 min 0,0 UV-I 9 W/m -2,3 C -12,8 C 22,6 kts (6 Bft) 100,00 %
20.01.2022 08:29 1,5 C 77 % 1017,7 hPa 0,0 l/m 20,7 kts (5 Bft) W-SW 252 0 min 0,0 UV-I 9 W/m -2,1 C -13,4 C 23,5 kts (6 Bft) 100,00 %
20.01.2022 08:28 1,5 C 77 % 1017,8 hPa 0,0 l/m 16,1 kts (5 Bft) W-SW 240 0 min 0,0 UV-I 9 W/m -2,1 C -11,2 C 20,0 kts (5 Bft) 100,00 %
20.01.2022 08:27 1,5 C 76 % 1017,7 hPa 0,0 l/m 20,0 kts (5 Bft) SW 234 0 min 0,0 UV-I 9 W/m -2,3 C -13,1 C 24,4 kts (6 Bft) 100,00 %
20.01.2022 08:26 1,5 C 77 % 1017,6 hPa 0,0 l/m 16,3 kts (5 Bft) W-SW 249 0 min 0,0 UV-I 9 W/m -2,1 C -11,4 C 20,8 kts (5 Bft) 100,00 %
20.01.2022 08:25 1,5 C 76 % 1017,7 hPa 0,0 l/m 16,3 kts (5 Bft) W 259 0 min 0,0 UV-I 9 W/m -2,3 C -11,3 C 21,7 kts (6 Bft) 100,00 %
20.01.2022 08:24 1,5 C 76 % 1017,7 hPa 0,0 l/m 18,1 kts (5 Bft) SW 235 0 min 0,0 UV-I 9 W/m -2,3 C -12,3 C 22,6 kts (6 Bft) 100,00 %
20.01.2022 08:23 1,5 C 76 % 1017,6 hPa 0,0 l/m 18,5 kts (5 Bft) SW 236 0 min 0,0 UV-I 7 W/m -2,3 C -12,4 C 20,8 kts (5 Bft) 100,00 %
20.01.2022 08:22 1,5 C 77 % 1017,6 hPa 0,0 l/m 17,4 kts (5 Bft) W-SW 246 0 min 0,0 UV-I 7 W/m -2,1 C -11,9 C 20,0 kts (5 Bft) 100,00 %
20.01.2022 08:21 1,6 C 77 % 1017,7 hPa 0,0 l/m 19,9 kts (5 Bft) W-SW 257 0 min 0,0 UV-I 7 W/m -2,0 C -12,9 C 24,4 kts (6 Bft) 100,00 %
20.01.2022 08:20 1,5 C 77 % 1017,7 hPa 0,0 l/m 18,3 kts (5 Bft) W-SW 238 0 min 0,0 UV-I 7 W/m -2,1 C -12,3 C 21,7 kts (6 Bft) 95,65 %
20.01.2022 08:19 1,5 C 77 % 1017,7 hPa 0,0 l/m 17,4 kts (5 Bft) SW 236 0 min 0,0 UV-I 5 W/m -2,1 C -11,9 C 21,7 kts (6 Bft) 100,00 %
20.01.2022 08:18 1,5 C 77 % 1017,6 hPa 0,0 l/m 18,0 kts (5 Bft) SW 236 0 min 0,0 UV-I 5 W/m -2,1 C -12,2 C 21,7 kts (6 Bft) 100,00 %
20.01.2022 08:17 1,5 C 77 % 1017,6 hPa 0,0 l/m 18,1 kts (5 Bft) SW 225 0 min 0,0 UV-I 5 W/m -2,1 C -12,2 C 20,8 kts (5 Bft) 100,00 %
20.01.2022 08:16 1,5 C 77 % 1017,7 hPa 0,0 l/m 20,4 kts (5 Bft) W-SW 252 0 min 0,0 UV-I 5 W/m -2,1 C -13,2 C 25,2 kts (6 Bft) 100,00 %
20.01.2022 08:15 1,4 C 77 % 1017,7 hPa 0,0 l/m 17,4 kts (5 Bft) SW 230 0 min 0,0 UV-I 5 W/m -2,2 C -12,1 C 20,8 kts (5 Bft) 100,00 %
20.01.2022 08:14 1,4 C 77 % 1017,7 hPa 0,0 l/m 17,5 kts (5 Bft) W-SW 242 0 min 0,0 UV-I 5 W/m -2,2 C -12,1 C 20,8 kts (5 Bft) 100,00 %
20.01.2022 08:13 1,4 C 77 % 1017,8 hPa 0,0 l/m 19,5 kts (5 Bft) SW 235 0 min 0,0 UV-I 5 W/m -2,2 C -13,0 C 24,4 kts (6 Bft) 100,00 %
20.01.2022 08:12 1,4 C 77 % 1017,7 hPa 0,0 l/m 17,6 kts (5 Bft) W-SW 241 0 min 0,0 UV-I 5 W/m -2,2 C -12,2 C 20,0 kts (5 Bft) 100,00 %
20.01.2022 08:11 1,4 C 77 % 1017,6 hPa 0,0 l/m 20,5 kts (5 Bft) W-SW 248 0 min 0,0 UV-I 5 W/m -2,2 C -13,4 C 24,4 kts (6 Bft) 100,00 %
20.01.2022 08:10 1,4 C 77 % 1017,7 hPa 0,0 l/m 18,7 kts (5 Bft) W-SW 244 0 min 0,0 UV-I 5 W/m -2,2 C -12,7 C 23,5 kts (6 Bft) 100,00 %
20.01.2022 08:09 1,4 C 77 % 1017,7 hPa 0,0 l/m 18,5 kts (5 Bft) W-SW 247 0 min 0,0 UV-I 5 W/m -2,2 C -12,6 C 24,4 kts (6 Bft) 100,00 %
20.01.2022 08:08 1,4 C 77 % 1017,7 hPa 0,0 l/m 21,4 kts (6 Bft) SW 231 0 min 0,0 UV-I 5 W/m -2,2 C -13,8 C 24,4 kts (6 Bft) 100,00 %
20.01.2022 08:07 1,4 C 77 % 1017,7 hPa 0,0 l/m 22,1 kts (6 Bft) W-SW 252 0 min 0,0 UV-I 5 W/m -2,2 C -14,1 C 27,8 kts (7 Bft) 100,00 %
20.01.2022 08:06 1,4 C 77 % 1017,6 hPa 0,0 l/m 20,4 kts (5 Bft) W-SW 252 0 min 0,0 UV-I 5 W/m -2,2 C -13,4 C 23,5 kts (6 Bft) 97,37 %
20.01.2022 08:05 1,4 C 77 % 1017,5 hPa 0,0 l/m 18,8 kts (5 Bft) W-SW 238 0 min 0,0 UV-I 5 W/m -2,2 C -12,7 C 22,6 kts (6 Bft) 100,00 %
20.01.2022 08:04 1,4 C 77 % 1017,5 hPa 0,0 l/m 15,7 kts (5 Bft) W-SW 254 0 min 0,0 UV-I 5 W/m -2,2 C -11,1 C 20,8 kts (5 Bft) 100,00 %
20.01.2022 08:03 1,4 C 77 % 1017,3 hPa 0,0 l/m 22,6 kts (6 Bft) W-SW 242 0 min 0,0 UV-I 5 W/m -2,2 C -14,2 C 25,2 kts (6 Bft) 100,00 %
20.01.2022 08:02 1,4 C 77 % 1017,4 hPa 0,0 l/m 15,6 kts (4 Bft) W-SW 256 0 min 0,0 UV-I 5 W/m -2,2 C -11,1 C 22,6 kts (6 Bft) 100,00 %
20.01.2022 08:01 1,4 C 77 % 1017,5 hPa 0,0 l/m 20,5 kts (5 Bft) W 262 0 min 0,0 UV-I 5 W/m -2,2 C -13,4 C 25,2 kts (6 Bft) 100,00 %
20.01.2022 08:00 1,4 C 77 % 1017,5 hPa 0,0 l/m 17,7 kts (5 Bft) W-SW 246 0 min 0,0 UV-I 5 W/m -2,2 C -12,2 C 21,7 kts (6 Bft) 95,65 %
20.01.2022 07:59 1,4 C 77 % 1017,4 hPa 0,0 l/m 21,6 kts (6 Bft) W-SW 241 0 min 0,0 UV-I 5 W/m -2,2 C -13,9 C 26,9 kts (6 Bft) 100,00 %
20.01.2022 07:58 1,4 C 77 % 1017,4 hPa 0,0 l/m 18,5 kts (5 Bft) W-SW 238 0 min 0,0 UV-I 5 W/m -2,2 C -12,6 C 20,0 kts (5 Bft) 96,15 %
20.01.2022 07:57 1,4 C 77 % 1017,5 hPa 0,0 l/m 15,5 kts (4 Bft) W-SW 244 0 min 0,0 UV-I 5 W/m -2,2 C -11,0 C 18,3 kts (5 Bft) 100,00 %
20.01.2022 07:56 1,5 C 77 % 1017,5 hPa 0,0 l/m 20,3 kts (5 Bft) W-SW 250 0 min 0,0 UV-I 5 W/m -2,1 C -13,2 C 25,2 kts (6 Bft) 95,83 %
20.01.2022 07:55 1,5 C 77 % 1017,4 hPa 0,0 l/m 22,1 kts (6 Bft) W-SW 243 0 min 0,0 UV-I 5 W/m -2,1 C -13,9 C 26,9 kts (6 Bft) 100,00 %
20.01.2022 07:54 1,5 C 77 % 1017,4 hPa 0,0 l/m 19,2 kts (5 Bft) W-SW 256 0 min 0,0 UV-I 5 W/m -2,1 C -12,8 C 22,6 kts (6 Bft) 95,83 %
20.01.2022 07:53 1,4 C 77 % 1017,4 hPa 0,0 l/m 23,5 kts (6 Bft) W-SW 241 0 min 0,0 UV-I 5 W/m -2,2 C -14,5 C 28,7 kts (7 Bft) 100,00 %
20.01.2022 07:52 1,4 C 77 % 1017,4 hPa 0,0 l/m 23,3 kts (6 Bft) W-SW 244 0 min 0,0 UV-I 5 W/m -2,2 C -14,5 C 27,8 kts (7 Bft) 95,83 %
20.01.2022 07:51 1,4 C 77 % 1017,3 hPa 0,0 l/m 20,0 kts (5 Bft) W-SW 253 0 min 0,0 UV-I 5 W/m -2,2 C -13,2 C 24,4 kts (6 Bft) 100,00 %
20.01.2022 07:50 1,4 C 77 % 1017,5 hPa 0,0 l/m 21,7 kts (6 Bft) W-SW 250 0 min 0,0 UV-I 5 W/m -2,2 C -13,9 C 24,4 kts (6 Bft) 95,65 %
20.01.2022 07:49 1,4 C 77 % 1017,4 hPa 0,0 l/m 18,6 kts (5 Bft) SW 236 0 min 0,0 UV-I 0 W/m -2,2 C -12,6 C 23,5 kts (6 Bft) 100,00 %
20.01.2022 07:48 1,4 C 78 % 1017,5 hPa 0,0 l/m 13,7 kts (4 Bft) W-SW 237 0 min 0,0 UV-I 0 W/m -2,0 C -10,0 C 16,5 kts (5 Bft) 95,83 %
20.01.2022 07:47 1,5 C 78 % 1017,5 hPa 0,0 l/m 15,6 kts (4 Bft) W-SW 244 0 min 0,0 UV-I 0 W/m -1,9 C -10,9 C 18,3 kts (5 Bft) 100,00 %
20.01.2022 07:46 1,5 C 78 % 1017,5 hPa 0,0 l/m 17,3 kts (5 Bft) W-SW 239 0 min 0,0 UV-I 0 W/m -1,9 C -11,9 C 20,0 kts (5 Bft) 95,83 %
20.01.2022 07:45 1,5 C 78 % 1017,5 hPa 0,0 l/m 18,7 kts (5 Bft) W-SW 237 0 min 0,0 UV-I 0 W/m -1,9 C -12,5 C 22,6 kts (6 Bft) 100,00 %
20.01.2022 07:44 1,5 C 78 % 1017,6 hPa 0,0 l/m 17,1 kts (5 Bft) W-SW 245 0 min 0,0 UV-I 0 W/m -1,9 C -11,7 C 20,8 kts (5 Bft) 96,30 %
20.01.2022 07:43 1,6 C 78 % 1017,7 hPa 0,0 l/m 14,6 kts (4 Bft) SW 220 0 min 0,0 UV-I 0 W/m -1,8 C -10,3 C 17,4 kts (5 Bft) 100,00 %
20.01.2022 07:42 1,5 C 78 % 1017,7 hPa 0,0 l/m 17,5 kts (5 Bft) W-SW 239 0 min 0,0 UV-I 0 W/m -1,9 C -12,0 C 20,8 kts (5 Bft) 95,83 %
20.01.2022 07:41 1,6 C 78 % 1017,8 hPa 0,0 l/m 17,0 kts (5 Bft) W-SW 239 0 min 0,0 UV-I 0 W/m -1,8 C -11,6 C 21,7 kts (6 Bft) 100,00 %
20.01.2022 07:40 1,6 C 78 % 1017,7 hPa 0,0 l/m 14,9 kts (4 Bft) SW 236 0 min 0,0 UV-I 0 W/m -1,8 C -10,4 C 20,8 kts (5 Bft) 100,00 %
20.01.2022 07:39 1,6 C 78 % 1017,8 hPa 0,0 l/m 14,9 kts (4 Bft) SW 235 0 min 0,0 UV-I 0 W/m -1,8 C -10,4 C 19,1 kts (5 Bft) 100,00 %
20.01.2022 07:38 1,6 C 78 % 1017,8 hPa 0,0 l/m 16,5 kts (5 Bft) W-SW 244 0 min 0,0 UV-I 0 W/m -1,8 C -11,3 C 19,1 kts (5 Bft) 100,00 %
20.01.2022 07:37 1,5 C 78 % 1017,9 hPa 0,0 l/m 20,9 kts (5 Bft) W-SW 255 0 min 0,0 UV-I 0 W/m -1,9 C -13,4 C 26,1 kts (6 Bft) 100,00 %
20.01.2022 07:36 1,6 C 78 % 1017,8 hPa 0,0 l/m 19,1 kts (5 Bft) SW 234 0 min 0,0 UV-I 0 W/m -1,8 C -12,5 C 22,6 kts (6 Bft) 95,83 %
20.01.2022 07:35 1,6 C 78 % 1017,8 hPa 0,0 l/m 17,5 kts (5 Bft) W-SW 242 0 min 0,0 UV-I 0 W/m -1,8 C -11,8 C 21,7 kts (6 Bft) 100,00 %
20.01.2022 07:34 1,5 C 78 % 1017,9 hPa 0,0 l/m 18,3 kts (5 Bft) W-SW 238 0 min 0,0 UV-I 0 W/m -1,9 C -12,3 C 20,8 kts (5 Bft) 100,00 %
20.01.2022 07:33 1,5 C 79 % 1017,9 hPa 0,0 l/m 19,3 kts (5 Bft) W-SW 246 0 min 0,0 UV-I 0 W/m -1,7 C -12,8 C 22,6 kts (6 Bft) 100,00 %
20.01.2022 07:32 1,5 C 79 % 1017,9 hPa 0,0 l/m 18,8 kts (5 Bft) SW 234 0 min 0,0 UV-I 0 W/m -1,7 C -12,6 C 23,5 kts (6 Bft) 100,00 %
20.01.2022 07:31 1,4 C 79 % 1017,9 hPa 0,0 l/m 17,7 kts (5 Bft) W-SW 250 0 min 0,0 UV-I 0 W/m -1,8 C -12,2 C 20,8 kts (5 Bft) 100,00 %
20.01.2022 07:30 1,4 C 79 % 1017,8 hPa 0,0 l/m 17,8 kts (5 Bft) W-SW 241 0 min 0,0 UV-I 0 W/m -1,8 C -12,3 C 21,7 kts (6 Bft) 100,00 %
20.01.2022 07:29 1,4 C 79 % 1017,9 hPa 0,0 l/m 20,2 kts (5 Bft) SW 230 0 min 0,0 UV-I 0 W/m -1,8 C -13,3 C 24,4 kts (6 Bft) 100,00 %
20.01.2022 07:28 1,4 C 79 % 1017,8 hPa 0,0 l/m 19,6 kts (5 Bft) W-SW 242 0 min 0,0 UV-I 0 W/m -1,8 C -13,1 C 21,7 kts (6 Bft) 100,00 %
20.01.2022 07:27 1,4 C 79 % 1017,8 hPa 0,0 l/m 15,1 kts (4 Bft) SW 235 0 min 0,0 UV-I 0 W/m -1,8 C -10,8 C 17,4 kts (5 Bft) 100,00 %
20.01.2022 07:26 1,4 C 79 % 1017,8 hPa 0,0 l/m 13,8 kts (4 Bft) W-SW 250 0 min 0,0 UV-I 0 W/m -1,8 C -10,0 C 16,5 kts (5 Bft) 100,00 %
20.01.2022 07:25 1,4 C 79 % 1017,8 hPa 0,0 l/m 18,0 kts (5 Bft) W-SW 240 0 min 0,0 UV-I 0 W/m -1,8 C -12,4 C 21,7 kts (6 Bft) 100,00 %
20.01.2022 07:24 1,4 C 79 % 1017,8 hPa 0,0 l/m 19,1 kts (5 Bft) W-SW 244 0 min 0,0 UV-I 0 W/m -1,8 C -12,8 C 24,4 kts (6 Bft) 98,88 %
20.01.2022 07:23 1,4 C 79 % 1017,8 hPa 0,0 l/m 19,1 kts (5 Bft) W-SW 241 0 min 0,0 UV-I 0 W/m -1,8 C -12,9 C 23,5 kts (6 Bft) 100,00 %
20.01.2022 07:22 1,4 C 80 % 1017,7 hPa 0,0 l/m 18,6 kts (5 Bft) SW 232 0 min 0,0 UV-I 0 W/m -1,7 C -12,6 C 22,6 kts (6 Bft) 96,88 %
20.01.2022 07:21 1,4 C 80 % 1017,8 hPa 0,0 l/m 21,1 kts (6 Bft) W-SW 237 0 min 0,0 UV-I 0 W/m -1,7 C -13,7 C 28,7 kts (7 Bft) 100,00 %
20.01.2022 07:20 1,3 C 80 % 1017,7 hPa 0,0 l/m 17,0 kts (5 Bft) W-SW 254 0 min 0,0 UV-I 0 W/m -1,8 C -12,0 C 20,0 kts (5 Bft) 95,83 %
20.01.2022 07:19 1,3 C 80 % 1017,6 hPa 0,0 l/m 18,3 kts (5 Bft) W-SW 250 0 min 0,0 UV-I 0 W/m -1,8 C -12,6 C 23,5 kts (6 Bft) 96,55 %
20.01.2022 07:18 1,3 C 80 % 1017,7 hPa 0,0 l/m 17,1 kts (5 Bft) W-SW 249 0 min 0,0 UV-I 0 W/m -1,8 C -12,0 C 23,5 kts (6 Bft) 95,74 %
20.01.2022 07:17 1,3 C 80 % 1017,7 hPa 0,0 l/m 14,3 kts (4 Bft) W-SW 252 0 min 0,0 UV-I 0 W/m -1,8 C -10,4 C 16,5 kts (5 Bft) 98,95 %
20.01.2022 07:16 1,3 C 81 % 1017,7 hPa 0,0 l/m 21,6 kts (6 Bft) SW 219 0 min 0,0 UV-I 0 W/m -1,6 C -14,0 C 26,9 kts (6 Bft) 100,00 %
20.01.2022 07:15 1,3 C 81 % 1017,8 hPa 0,0 l/m 22,1 kts (6 Bft) W-SW 250 0 min 0,0 UV-I 0 W/m -1,6 C -14,2 C 25,2 kts (6 Bft) 100,00 %
20.01.2022 07:14 1,2 C 81 % 1017,8 hPa 0,0 l/m 18,4 kts (5 Bft) W-SW 255 0 min 0,0 UV-I 0 W/m -1,7 C -12,8 C 21,7 kts (6 Bft) 100,00 %
20.01.2022 07:13 1,2 C 81 % 1017,8 hPa 0,0 l/m 15,2 kts (4 Bft) SW 231 0 min 0,0 UV-I 0 W/m -1,7 C -11,2 C 17,4 kts (5 Bft) 100,00 %
20.01.2022 07:12 1,2 C 81 % 1017,9 hPa 0,0 l/m 15,6 kts (4 Bft) W-SW 240 0 min 0,0 UV-I 0 W/m -1,7 C -11,4 C 17,4 kts (5 Bft) 98,92 %
20.01.2022 07:11 1,2 C 81 % 1018,0 hPa 0,0 l/m 16,9 kts (5 Bft) W 260 0 min 0,0 UV-I 0 W/m -1,7 C -12,1 C 20,0 kts (5 Bft) 100,00 %
20.01.2022 07:10 1,2 C 81 % 1017,9 hPa 0,0 l/m 14,9 kts (4 Bft) W-SW 247 0 min 0,0 UV-I 0 W/m -1,7 C -11,0 C 20,8 kts (5 Bft) 100,00 %
20.01.2022 07:09 1,2 C 81 % 1018,0 hPa 0,0 l/m 17,0 kts (5 Bft) W-SW 242 0 min 0,0 UV-I 0 W/m -1,7 C -12,1 C 20,0 kts (5 Bft) 100,00 %
20.01.2022 07:08 1,2 C 81 % 1018,0 hPa 0,0 l/m 18,8 kts (5 Bft) W-SW 251 0 min 0,0 UV-I 0 W/m -1,7 C -13,0 C 23,5 kts (6 Bft) 100,00 %
20.01.2022 07:07 1,2 C 81 % 1017,8 hPa 0,0 l/m 16,1 kts (5 Bft) W-SW 242 0 min 0,0 UV-I 0 W/m -1,7 C -11,7 C 17,4 kts (5 Bft) 92,31 %
20.01.2022 07:06 1,2 C 81 % 1017,9 hPa 0,0 l/m 16,6 kts (5 Bft) W-SW 248 0 min 0,0 UV-I 0 W/m -1,7 C -12,0 C 20,0 kts (5 Bft) 100,00 %
20.01.2022 07:05 1,2 C 82 % 1017,9 hPa 0,0 l/m 17,3 kts (5 Bft) W-SW 238 0 min 0,0 UV-I 0 W/m -1,5 C -12,3 C 21,7 kts (6 Bft) 100,00 %
20.01.2022 07:04 1,2 C 81 % 1017,8 hPa 0,0 l/m 16,6 kts (5 Bft) W-NW 284 0 min 0,0 UV-I 0 W/m -1,7 C -12,0 C 18,3 kts (5 Bft) 100,00 %
20.01.2022 07:03 1,2 C 81 % 1017,8 hPa 0,0 l/m 17,8 kts (5 Bft) W-SW 241 0 min 0,0 UV-I 0 W/m -1,7 C -12,5 C 20,8 kts (5 Bft) 100,00 %
20.01.2022 07:02 1,1 C 81 % 1017,8 hPa 0,0 l/m 14,9 kts (4 Bft) W-SW 246 0 min 0,0 UV-I 0 W/m -1,8 C -11,1 C 18,3 kts (5 Bft) 100,00 %
20.01.2022 07:01 1,1 C 81 % 1017,9 hPa 0,0 l/m 13,3 kts (4 Bft) SW 236 0 min 0,0 UV-I 0 W/m -1,8 C -10,1 C 15,7 kts (5 Bft) 100,00 %
20.01.2022 07:00 1,1 C 81 % 1017,9 hPa 0,0 l/m 16,0 kts (5 Bft) W-SW 240 0 min 0,0 UV-I 0 W/m -1,8 C -11,7 C 19,1 kts (5 Bft) 100,00 %
20.01.2022 06:59 1,2 C 81 % 1017,8 hPa 0,0 l/m 17,8 kts (5 Bft) W-SW 251 0 min 0,0 UV-I 0 W/m -1,7 C -12,5 C 20,8 kts (5 Bft) 100,00 %
20.01.2022 06:58 1,2 C 81 % 1017,9 hPa 0,0 l/m 20,9 kts (5 Bft) W-SW 254 0 min 0,0 UV-I 0 W/m -1,7 C -13,9 C 26,9 kts (6 Bft) 100,00 %
20.01.2022 06:57 1,2 C 81 % 1017,8 hPa 0,0 l/m 18,2 kts (5 Bft) SW 229 0 min 0,0 UV-I 0 W/m -1,7 C -12,7 C 25,2 kts (6 Bft) 100,00 %
20.01.2022 06:56 1,2 C 81 % 1017,8 hPa 0,0 l/m 16,8 kts (5 Bft) W 272 0 min 0,0 UV-I 0 W/m -1,7 C -12,0 C 21,7 kts (6 Bft) 100,00 %
20.01.2022 06:55 1,2 C 81 % 1017,8 hPa 0,0 l/m 16,2 kts (5 Bft) SW 229 0 min 0,0 UV-I 0 W/m -1,7 C -11,7 C 18,3 kts (5 Bft) 100,00 %
20.01.2022 06:54 1,2 C 81 % 1017,9 hPa 0,0 l/m 17,9 kts (5 Bft) SW 234 0 min 0,0 UV-I 0 W/m -1,7 C -12,6 C 20,8 kts (5 Bft) 100,00 %
20.01.2022 06:53 1,2 C 81 % 1017,9 hPa 0,0 l/m 15,9 kts (5 Bft) W-SW 242 0 min 0,0 UV-I 0 W/m -1,7 C -11,5 C 20,0 kts (5 Bft) 100,00 %
20.01.2022 06:52 1,3 C 81 % 1017,8 hPa 0,0 l/m 15,7 kts (5 Bft) SW 227 0 min 0,0 UV-I 0 W/m -1,6 C -11,3 C 18,3 kts (5 Bft) 98,84 %
20.01.2022 06:51 1,3 C 81 % 1017,9 hPa 0,0 l/m 18,6 kts (5 Bft) SW 232 0 min 0,0 UV-I 0 W/m -1,6 C -12,8 C 23,5 kts (6 Bft) 100,00 %
20.01.2022 06:50 1,3 C 80 % 1017,9 hPa 0,0 l/m 19,7 kts (5 Bft) W-SW 258 0 min 0,0 UV-I 0 W/m -1,8 C -13,3 C 22,6 kts (6 Bft) 100,00 %
20.01.2022 06:49 1,3 C 80 % 1017,9 hPa 0,0 l/m 21,2 kts (6 Bft) SW 227 0 min 0,0 UV-I 0 W/m -1,8 C -13,8 C 22,6 kts (6 Bft) 100,00 %
20.01.2022 06:48 1,4 C 80 % 1018,0 hPa 0,0 l/m 19,5 kts (5 Bft) W-SW 257 0 min 0,0 UV-I 0 W/m -1,7 C -13,0 C 23,5 kts (6 Bft) 100,00 %
20.01.2022 06:47 1,4 C 80 % 1018,0 hPa 0,0 l/m 22,0 kts (6 Bft) SW 233 0 min 0,0 UV-I 0 W/m -1,7 C -14,0 C 27,8 kts (7 Bft) 100,00 %
20.01.2022 06:46 1,4 C 80 % 1017,9 hPa 0,0 l/m 17,8 kts (5 Bft) W-SW 240 0 min 0,0 UV-I 0 W/m -1,7 C -12,2 C 25,2 kts (6 Bft) 95,65 %
20.01.2022 06:45 1,4 C 80 % 1017,8 hPa 0,0 l/m 17,4 kts (5 Bft) SW 224 0 min 0,0 UV-I 0 W/m -1,7 C -12,1 C 20,0 kts (5 Bft) 100,00 %
20.01.2022 06:44 1,4 C 79 % 1017,9 hPa 0,0 l/m 22,7 kts (6 Bft) W-SW 258 0 min 0,0 UV-I 0 W/m -1,8 C -14,3 C 26,1 kts (6 Bft) 92,86 %
20.01.2022 06:43 1,4 C 79 % 1018,0 hPa 0,0 l/m 22,2 kts (6 Bft) W-SW 244 0 min 0,0 UV-I 0 W/m -1,8 C -14,1 C 26,1 kts (6 Bft) 100,00 %
20.01.2022 06:42 1,4 C 79 % 1018,0 hPa 0,0 l/m 16,6 kts (5 Bft) W-SW 252 0 min 0,0 UV-I 0 W/m -1,8 C -11,7 C 25,2 kts (6 Bft) 96,88 %
20.01.2022 06:41 1,5 C 79 % 1018,1 hPa 0,0 l/m 16,0 kts (5 Bft) W 265 0 min 0,0 UV-I 0 W/m -1,7 C -11,2 C 18,3 kts (5 Bft) 100,00 %
20.01.2022 06:40 1,5 C 79 % 1017,9 hPa 0,0 l/m 17,8 kts (5 Bft) W-SW 250 0 min 0,0 UV-I 0 W/m -1,7 C -12,1 C 22,6 kts (6 Bft) 96,88 %
20.01.2022 06:39 1,5 C 79 % 1018,0 hPa 0,0 l/m 21,5 kts (6 Bft) W-SW 244 0 min 0,0 UV-I 0 W/m -1,7 C -13,7 C 25,2 kts (6 Bft) 100,00 %
20.01.2022 06:38 1,5 C 79 % 1018,0 hPa 0,0 l/m 19,2 kts (5 Bft) W-SW 253 0 min 0,0 UV-I 0 W/m -1,7 C -12,8 C 23,5 kts (6 Bft) 96,15 %
20.01.2022 06:37 1,5 C 79 % 1017,9 hPa 0,0 l/m 23,0 kts (6 Bft) SW 234 0 min 0,0 UV-I 0 W/m -1,7 C -14,2 C 26,9 kts (6 Bft) 97,37 %
20.01.2022 06:36 1,6 C 79 % 1017,9 hPa 0,0 l/m 21,2 kts (6 Bft) SW 233 0 min 0,0 UV-I 0 W/m -1,6 C -13,4 C 27,8 kts (7 Bft) 98,90 %
20.01.2022 06:35 1,5 C 79 % 1018,0 hPa 0,0 l/m 21,1 kts (6 Bft) W-SW 239 0 min 0,0 UV-I 0 W/m -1,7 C -13,5 C 26,1 kts (6 Bft) 100,00 %
20.01.2022 06:34 1,6 C 79 % 1018,0 hPa 0,0 l/m 21,9 kts (6 Bft) W-SW 237 0 min 0,0 UV-I 0 W/m -1,6 C -13,7 C 27,8 kts (7 Bft) 94,12 %
20.01.2022 06:33 1,5 C 79 % 1018,0 hPa 0,0 l/m 19,9 kts (5 Bft) SW 233 0 min 0,0 UV-I 0 W/m -1,7 C -13,1 C 24,4 kts (6 Bft) 96,67 %
20.01.2022 06:32 1,6 C 79 % 1018,0 hPa 0,0 l/m 17,5 kts (5 Bft) SW 236 0 min 0,0 UV-I 0 W/m -1,6 C -11,8 C 20,8 kts (5 Bft) 95,65 %
20.01.2022 06:31 1,6 C 79 % 1018,1 hPa 0,0 l/m 18,6 kts (5 Bft) W-SW 254 0 min 0,0 UV-I 0 W/m -1,6 C -12,3 C 23,5 kts (6 Bft) 100,00 %
20.01.2022 06:30 1,6 C 79 % 1018,1 hPa 0,0 l/m 22,1 kts (6 Bft) W-SW 242 0 min 0,0 UV-I 0 W/m -1,6 C -13,7 C 27,8 kts (7 Bft) 97,44 %
20.01.2022 06:29 1,5 C 79 % 1018,0 hPa 0,0 l/m 20,8 kts (5 Bft) W-SW 240 0 min 0,0 UV-I 0 W/m -1,7 C -13,4 C 23,5 kts (6 Bft) 98,96 %
20.01.2022 06:28 1,6 C 79 % 1018,0 hPa 0,0 l/m 23,2 kts (6 Bft) W-SW 257 0 min 0,0 UV-I 0 W/m -1,6 C -14,1 C 27,8 kts (7 Bft) 95,65 %
20.01.2022 06:27 1,6 C 79 % 1018,0 hPa 0,0 l/m 22,8 kts (6 Bft) SW 235 0 min 0,0 UV-I 0 W/m -1,6 C -14,0 C 28,7 kts (7 Bft) 95,83 %
20.01.2022 06:26 1,5 C 79 % 1018,1 hPa 0,0 l/m 24,3 kts (6 Bft) W-SW 243 0 min 0,0 UV-I 0 W/m -1,7 C -14,6 C 27,8 kts (7 Bft) 100,00 %
20.01.2022 06:25 1,6 C 79 % 1018,0 hPa 0,0 l/m 22,9 kts (6 Bft) W-SW 238 0 min 0,0 UV-I 0 W/m -1,6 C -14,0 C 28,7 kts (7 Bft) 100,00 %
20.01.2022 06:24 1,5 C 79 % 1018,0 hPa 0,0 l/m 17,9 kts (5 Bft) W-SW 238 0 min 0,0 UV-I 0 W/m -1,7 C -12,2 C 21,7 kts (6 Bft) 100,00 %
20.01.2022 06:23 1,5 C 79 % 1018,1 hPa 0,0 l/m 21,7 kts (6 Bft) SW 236 0 min 0,0 UV-I 0 W/m -1,7 C -13,8 C 25,2 kts (6 Bft) 100,00 %
20.01.2022 06:22 1,6 C 79 % 1018,0 hPa 0,0 l/m 17,2 kts (5 Bft) W-SW 238 0 min 0,0 UV-I 0 W/m -1,6 C -11,7 C 21,7 kts (6 Bft) 100,00 %
20.01.2022 06:21 1,5 C 79 % 1018,0 hPa 0,0 l/m 20,0 kts (5 Bft) W-SW 239 0 min 0,0 UV-I 0 W/m -1,7 C -13,1 C 23,5 kts (6 Bft) 100,00 %
20.01.2022 06:20 1,5 C 79 % 1018,0 hPa 0,0 l/m 19,1 kts (5 Bft) W-SW 244 0 min 0,0 UV-I 0 W/m -1,7 C -12,7 C 25,2 kts (6 Bft) 95,83 %
20.01.2022 06:19 1,4 C 79 % 1018,0 hPa 0,0 l/m 22,3 kts (6 Bft) SW 229 0 min 0,0 UV-I 0 W/m -1,8 C -14,1 C 25,2 kts (6 Bft) 92,31 %
20.01.2022 06:18 1,4 C 79 % 1018,0 hPa 0,0 l/m 22,4 kts (6 Bft) SW 229 0 min 0,0 UV-I 0 W/m -1,8 C -14,1 C 26,9 kts (6 Bft) 100,00 %
20.01.2022 06:17 1,4 C 80 % 1018,0 hPa 0,0 l/m 16,8 kts (5 Bft) SW 219 0 min 0,0 UV-I 0 W/m -1,7 C -11,8 C 20,0 kts (5 Bft) 100,00 %
20.01.2022 06:16 1,4 C 80 % 1018,0 hPa 0,0 l/m 20,4 kts (5 Bft) SW 234 0 min 0,0 UV-I 0 W/m -1,7 C -13,4 C 26,1 kts (6 Bft) 100,00 %
20.01.2022 06:15 1,3 C 80 % 1018,1 hPa 0,0 l/m 21,0 kts (5 Bft) W-SW 242 0 min 0,0 UV-I 0 W/m -1,8 C -13,8 C 26,1 kts (6 Bft) 100,00 %
20.01.2022 06:14 1,3 C 80 % 1018,1 hPa 0,0 l/m 18,8 kts (5 Bft) W-SW 252 0 min 0,0 UV-I 0 W/m -1,8 C -12,9 C 24,4 kts (6 Bft) 100,00 %
20.01.2022 06:13 1,3 C 80 % 1018,2 hPa 0,0 l/m 19,0 kts (5 Bft) SW 223 0 min 0,0 UV-I 0 W/m -1,8 C -13,0 C 22,6 kts (6 Bft) 96,88 %
20.01.2022 06:12 1,3 C 80 % 1018,2 hPa 0,0 l/m 19,1 kts (5 Bft) W-SW 237 0 min 0,0 UV-I 0 W/m -1,8 C -13,0 C 25,2 kts (6 Bft) 100,00 %
20.01.2022 06:11 1,3 C 81 % 1018,0 hPa 0,0 l/m 20,5 kts (5 Bft) W-SW 242 0 min 0,0 UV-I 0 W/m -1,6 C -13,6 C 23,5 kts (6 Bft) 100,00 %
20.01.2022 06:10 1,2 C 81 % 1018,2 hPa 0,0 l/m 23,6 kts (6 Bft) S-SW 210 0 min 0,0 UV-I 0 W/m -1,7 C -14,8 C 26,9 kts (6 Bft) 100,00 %
20.01.2022 06:09 1,2 C 81 % 1018,2 hPa 0,0 l/m 18,0 kts (5 Bft) W-SW 250 0 min 0,0 UV-I 0 W/m -1,7 C -12,6 C 25,2 kts (6 Bft) 100,00 %
20.01.2022 06:08 1,2 C 81 % 1018,2 hPa 0,0 l/m 21,2 kts (6 Bft) W-SW 254 0 min 0,0 UV-I 0 W/m -1,7 C -14,0 C 24,4 kts (6 Bft) 100,00 %
20.01.2022 06:07 1,2 C 81 % 1018,2 hPa 0,0 l/m 20,4 kts (5 Bft) SW 222 0 min 0,0 UV-I 0 W/m -1,7 C -13,7 C 25,2 kts (6 Bft) 100,00 %
20.01.2022 06:06 1,1 C 82 % 1018,2 hPa 0,0 l/m 22,5 kts (6 Bft) W-SW 238 0 min 0,0 UV-I 0 W/m -1,6 C -14,6 C 27,8 kts (7 Bft) 100,00 %
20.01.2022 06:05 1,1 C 82 % 1018,2 hPa 0,0 l/m 23,3 kts (6 Bft) SW 226 0 min 0,0 UV-I 0 W/m -1,6 C -14,9 C 26,9 kts (6 Bft) 100,00 %
20.01.2022 06:04 1,1 C 82 % 1018,2 hPa 0,0 l/m 19,1 kts (5 Bft) W 261 0 min 0,0 UV-I 0 W/m -1,6 C -13,3 C 22,6 kts (6 Bft) 100,00 %
20.01.2022 06:03 1,1 C 82 % 1018,3 hPa 0,0 l/m 21,2 kts (6 Bft) W-SW 251 0 min 0,0 UV-I 0 W/m -1,6 C -14,2 C 25,2 kts (6 Bft) 100,00 %
20.01.2022 06:02 1,1 C 82 % 1018,2 hPa 0,0 l/m 16,2 kts (5 Bft) SW 229 0 min 0,0 UV-I 0 W/m -1,6 C -11,9 C 20,0 kts (5 Bft) 100,00 %
20.01.2022 06:01 1,1 C 82 % 1018,2 hPa 0,0 l/m 18,0 kts (5 Bft) SW 236 0 min 0,0 UV-I 0 W/m -1,6 C -12,8 C 20,0 kts (5 Bft) 97,87 %
20.01.2022 06:00 1,1 C 82 % 1018,2 hPa 0,0 l/m 19,1 kts (5 Bft) W-SW 245 0 min 0,0 UV-I 0 W/m -1,6 C -13,3 C 23,5 kts (6 Bft) 98,96 %
20.01.2022 05:59 1,1 C 82 % 1018,2 hPa 0,0 l/m 19,6 kts (5 Bft) SW 225 0 min 0,0 UV-I 0 W/m -1,6 C -13,5 C 23,5 kts (6 Bft) 100,00 %
20.01.2022 05:58 1,1 C 82 % 1018,3 hPa 0,0 l/m 19,5 kts (5 Bft) SW 233 0 min 0,0 UV-I 0 W/m -1,6 C -13,5 C 25,2 kts (6 Bft) 100,00 %
20.01.2022 05:57 1,1 C 82 % 1018,3 hPa 0,0 l/m 18,6 kts (5 Bft) W-SW 247 0 min 0,0 UV-I 0 W/m -1,6 C -13,1 C 25,2 kts (6 Bft) 100,00 %
20.01.2022 05:56 1,1 C 82 % 1018,4 hPa 0,0 l/m 19,9 kts (5 Bft) W 259 0 min 0,0 UV-I 0 W/m -1,6 C -13,6 C 23,5 kts (6 Bft) 100,00 %
20.01.2022 05:55 1,1 C 82 % 1018,4 hPa 0,0 l/m 15,2 kts (4 Bft) W-SW 253 0 min 0,0 UV-I 0 W/m -1,6 C -11,3 C 24,4 kts (6 Bft) 100,00 %
20.01.2022 05:54 1,1 C 82 % 1018,4 hPa 0,0 l/m 16,2 kts (5 Bft) W-SW 253 0 min 0,0 UV-I 0 W/m -1,6 C -11,9 C 20,0 kts (5 Bft) 100,00 %
20.01.2022 05:53 1,1 C 82 % 1018,4 hPa 0,0 l/m 17,7 kts (5 Bft) W-SW 254 0 min 0,0 UV-I 0 W/m -1,6 C -12,6 C 22,6 kts (6 Bft) 100,00 %
20.01.2022 05:52 1,0 C 82 % 1018,5 hPa 0,0 l/m 18,5 kts (5 Bft) W-SW 251 0 min 0,0 UV-I 0 W/m -1,7 C -13,1 C 23,5 kts (6 Bft) 100,00 %
20.01.2022 05:51 1,1 C 82 % 1018,3 hPa 0,0 l/m 16,6 kts (5 Bft) W-SW 255 0 min 0,0 UV-I 0 W/m -1,6 C -12,1 C 17,4 kts (5 Bft) 100,00 %
20.01.2022 05:50 1,1 C 82 % 1018,3 hPa 0,0 l/m 16,8 kts (5 Bft) W-SW 242 0 min 0,0 UV-I 0 W/m -1,6 C -12,2 C 23,5 kts (6 Bft) 100,00 %
20.01.2022 05:49 1,1 C 82 % 1018,4 hPa 0,0 l/m 17,3 kts (5 Bft) W-SW 257 0 min 0,0 UV-I 0 W/m -1,6 C -12,5 C 20,8 kts (5 Bft) 100,00 %
20.01.2022 05:48 1,1 C 82 % 1018,4 hPa 0,0 l/m 17,4 kts (5 Bft) W-SW 250 0 min 0,0 UV-I 0 W/m -1,6 C -12,5 C 23,5 kts (6 Bft) 100,00 %
20.01.2022 05:47 1,1 C 82 % 1018,4 hPa 0,0 l/m 18,2 kts (5 Bft) SW 223 0 min 0,0 UV-I 0 W/m -1,6 C -12,9 C 21,7 kts (6 Bft) 100,00 %
20.01.2022 05:46 1,0 C 82 % 1018,4 hPa 0,0 l/m 17,4 kts (5 Bft) W 262 0 min 0,0 UV-I 0 W/m -1,7 C -12,6 C 20,8 kts (5 Bft) 100,00 %
20.01.2022 05:45 1,1 C 82 % 1018,4 hPa 0,0 l/m 15,2 kts (4 Bft) W-SW 245 0 min 0,0 UV-I 0 W/m -1,6 C -11,3 C 19,1 kts (5 Bft) 100,00 %
20.01.2022 05:44 1,1 C 82 % 1018,5 hPa 0,0 l/m 19,5 kts (5 Bft) W-SW 254 0 min 0,0 UV-I 0 W/m -1,6 C -13,5 C 24,4 kts (6 Bft) 100,00 %
20.01.2022 05:43 1,1 C 82 % 1018,4 hPa 0,0 l/m 19,9 kts (5 Bft) SW 228 0 min 0,0 UV-I 0 W/m -1,6 C -13,6 C 21,7 kts (6 Bft) 100,00 %
20.01.2022 05:42 1,1 C 82 % 1018,5 hPa 0,0 l/m 15,4 kts (4 Bft) W 259 0 min 0,0 UV-I 0 W/m -1,6 C -11,4 C 21,7 kts (6 Bft) 100,00 %
20.01.2022 05:41 1,1 C 82 % 1018,5 hPa 0,0 l/m 17,5 kts (5 Bft) W-SW 253 0 min 0,0 UV-I 0 W/m -1,6 C -12,6 C 20,0 kts (5 Bft) 100,00 %
20.01.2022 05:40 1,1 C 82 % 1018,5 hPa 0,0 l/m 21,8 kts (6 Bft) W-SW 242 0 min 0,0 UV-I 0 W/m -1,6 C -14,4 C 25,2 kts (6 Bft) 100,00 %
20.01.2022 05:39 1,0 C 82 % 1018,5 hPa 0,0 l/m 17,9 kts (5 Bft) W 263 0 min 0,0 UV-I 0 W/m -1,7 C -12,9 C 21,7 kts (6 Bft) 97,14 %
20.01.2022 05:38 1,1 C 82 % 1018,4 hPa 0,0 l/m 18,6 kts (5 Bft) SW 232 0 min 0,0 UV-I 0 W/m -1,6 C -13,1 C 22,6 kts (6 Bft) 100,00 %
20.01.2022 05:37 1,1 C 82 % 1018,5 hPa 0,0 l/m 19,5 kts (5 Bft) W-SW 248 0 min 0,0 UV-I 0 W/m -1,6 C -13,5 C 23,5 kts (6 Bft) 96,15 %
20.01.2022 05:36 1,1 C 82 % 1018,4 hPa 0,0 l/m 15,8 kts (5 Bft) W-SW 252 0 min 0,0 UV-I 0 W/m -1,6 C -11,6 C 22,6 kts (6 Bft) 100,00 %
20.01.2022 05:35 1,1 C 82 % 1018,3 hPa 0,0 l/m 17,0 kts (5 Bft) SW 236 0 min 0,0 UV-I 0 W/m -1,6 C -12,3 C 19,1 kts (5 Bft) 100,00 %
20.01.2022 05:34 1,1 C 82 % 1018,5 hPa 0,0 l/m 15,1 kts (4 Bft) SW 231 0 min 0,0 UV-I 0 W/m -1,6 C -11,2 C 18,3 kts (5 Bft) 100,00 %
20.01.2022 05:33 1,1 C 82 % 1018,5 hPa 0,0 l/m 15,6 kts (4 Bft) W-SW 244 0 min 0,0 UV-I 0 W/m -1,6 C -11,5 C 18,3 kts (5 Bft) 100,00 %
20.01.2022 05:32 1,1 C 81 % 1018,4 hPa 0,0 l/m 17,0 kts (5 Bft) W-SW 241 0 min 0,0 UV-I 0 W/m -1,8 C -12,3 C 19,1 kts (5 Bft) 95,83 %
20.01.2022 05:31 1,1 C 81 % 1018,3 hPa 0,0 l/m 20,7 kts (5 Bft) W-SW 257 0 min 0,0 UV-I 0 W/m -1,8 C -14,0 C 27,8 kts (7 Bft) 100,00 %
20.01.2022 05:30 1,1 C 81 % 1018,4 hPa 0,0 l/m 24,5 kts (6 Bft) W-SW 252 0 min 0,0 UV-I 0 W/m -1,8 C -15,3 C 27,8 kts (7 Bft) 95,83 %
20.01.2022 05:29 1,2 C 81 % 1018,4 hPa 0,0 l/m 20,6 kts (5 Bft) W-SW 244 0 min 0,0 UV-I 0 W/m -1,7 C -13,8 C 26,1 kts (6 Bft) 100,00 %
20.01.2022 05:28 1,2 C 81 % 1018,4 hPa 0,0 l/m 18,9 kts (5 Bft) SW 236 0 min 0,0 UV-I 0 W/m -1,7 C -13,1 C 23,5 kts (6 Bft) 95,83 %
20.01.2022 05:27 1,2 C 81 % 1018,3 hPa 0,0 l/m 19,0 kts (5 Bft) W-SW 258 0 min 0,0 UV-I 0 W/m -1,7 C -13,1 C 25,2 kts (6 Bft) 100,00 %
20.01.2022 05:26 1,2 C 81 % 1018,3 hPa 0,0 l/m 18,5 kts (5 Bft) W-SW 243 0 min 0,0 UV-I 0 W/m -1,7 C -12,9 C 22,6 kts (6 Bft) 96,30 %
20.01.2022 05:25 1,2 C 81 % 1018,4 hPa 0,0 l/m 19,8 kts (5 Bft) W-SW 242 0 min 0,0 UV-I 0 W/m -1,7 C -13,5 C 23,5 kts (6 Bft) 100,00 %
20.01.2022 05:24 1,3 C 81 % 1018,4 hPa 0,0 l/m 20,4 kts (5 Bft) W-SW 248 0 min 0,0 UV-I 0 W/m -1,6 C -13,5 C 24,4 kts (6 Bft) 93,33 %
20.01.2022 05:23 1,3 C 80 % 1018,5 hPa 0,0 l/m 18,8 kts (5 Bft) W-SW 242 0 min 0,0 UV-I 0 W/m -1,8 C -12,9 C 22,6 kts (6 Bft) 100,00 %
20.01.2022 05:22 1,3 C 80 % 1018,4 hPa 0,0 l/m 17,4 kts (5 Bft) SW 235 0 min 0,0 UV-I 0 W/m -1,8 C -12,2 C 21,7 kts (6 Bft) 95,83 %
20.01.2022 05:21 1,3 C 80 % 1018,4 hPa 0,0 l/m 16,9 kts (5 Bft) W-SW 252 0 min 0,0 UV-I 0 W/m -1,8 C -11,9 C 19,1 kts (5 Bft) 100,00 %
20.01.2022 05:20 1,4 C 80 % 1018,5 hPa 0,0 l/m 21,2 kts (6 Bft) SW 233 0 min 0,0 UV-I 0 W/m -1,7 C -13,7 C 25,2 kts (6 Bft) 95,83 %
20.01.2022 05:19 1,4 C 80 % 1018,5 hPa 0,0 l/m 24,5 kts (6 Bft) W-SW 244 0 min 0,0 UV-I 0 W/m -1,7 C -14,8 C 29,5 kts (7 Bft) 100,00 %
20.01.2022 05:18 1,4 C 80 % 1018,5 hPa 0,0 l/m 17,4 kts (5 Bft) SW 236 0 min 0,0 UV-I 0 W/m -1,7 C -12,1 C 20,8 kts (5 Bft) 100,00 %
20.01.2022 05:17 1,4 C 79 % 1018,4 hPa 0,0 l/m 21,3 kts (6 Bft) W-SW 248 0 min 0,0 UV-I 0 W/m -1,8 C -13,7 C 26,1 kts (6 Bft) 95,65 %
20.01.2022 05:16 1,5 C 79 % 1018,5 hPa 0,0 l/m 16,4 kts (5 Bft) W-SW 251 0 min 0,0 UV-I 0 W/m -1,7 C -11,4 C 26,1 kts (6 Bft) 100,00 %
20.01.2022 05:15 1,5 C 79 % 1018,5 hPa 0,0 l/m 15,0 kts (4 Bft) W-SW 244 0 min 0,0 UV-I 0 W/m -1,7 C -10,6 C 17,4 kts (5 Bft) 92,31 %
20.01.2022 05:14 1,5 C 79 % 1018,6 hPa 0,0 l/m 14,1 kts (4 Bft) W-SW 248 0 min 0,0 UV-I 0 W/m -1,7 C -10,1 C 18,3 kts (5 Bft) 100,00 %
20.01.2022 05:13 1,6 C 79 % 1018,5 hPa 0,0 l/m 16,4 kts (5 Bft) W-SW 240 0 min 0,0 UV-I 0 W/m -1,6 C -11,3 C 20,0 kts (5 Bft) 97,14 %
20.01.2022 05:12 1,6 C 78 % 1018,5 hPa 0,0 l/m 14,9 kts (4 Bft) SW 227 0 min 0,0 UV-I 0 W/m -1,8 C -10,4 C 19,1 kts (5 Bft) 100,00 %
20.01.2022 05:11 1,6 C 78 % 1018,5 hPa 0,0 l/m 21,1 kts (6 Bft) W-SW 257 0 min 0,0 UV-I 0 W/m -1,8 C -13,4 C 22,6 kts (6 Bft) 93,10 %
20.01.2022 05:10 1,6 C 78 % 1018,4 hPa 0,0 l/m 18,3 kts (5 Bft) W-SW 247 0 min 0,0 UV-I 0 W/m -1,8 C -12,2 C 26,9 kts (6 Bft) 100,00 %
20.01.2022 05:09 1,7 C 78 % 1018,5 hPa 0,0 l/m 17,0 kts (5 Bft) SW 232 0 min 0,0 UV-I 0 W/m -1,7 C -11,4 C 20,8 kts (5 Bft) 100,00 %
20.01.2022 05:08 1,7 C 78 % 1018,6 hPa 0,0 l/m 16,7 kts (5 Bft) SW 229 0 min 0,0 UV-I 0 W/m -1,7 C -11,3 C 20,0 kts (5 Bft) 100,00 %
20.01.2022 05:07 1,7 C 78 % 1018,5 hPa 0,0 l/m 16,8 kts (5 Bft) W-SW 250 0 min 0,0 UV-I 0 W/m -1,7 C -11,4 C 18,3 kts (5 Bft) 100,00 %
20.01.2022 05:06 1,7 C 78 % 1018,6 hPa 0,0 l/m 17,1 kts (5 Bft) SW 232 0 min 0,0 UV-I 0 W/m -1,7 C -11,5 C 22,6 kts (6 Bft) 100,00 %
20.01.2022 05:05 1,7 C 78 % 1018,6 hPa 0,0 l/m 17,8 kts (5 Bft) W 261 0 min 0,0 UV-I 0 W/m -1,7 C -11,8 C 20,8 kts (5 Bft) 100,00 %
20.01.2022 05:04 1,7 C 78 % 1018,6 hPa 0,0 l/m 19,4 kts (5 Bft) SW 232 0 min 0,0 UV-I 0 W/m -1,7 C -12,5 C 22,6 kts (6 Bft) 100,00 %
20.01.2022 05:03 1,7 C 78 % 1018,6 hPa 0,0 l/m 15,3 kts (4 Bft) SW 218 0 min 0,0 UV-I 0 W/m -1,7 C -10,5 C 24,4 kts (6 Bft) 100,00 %
20.01.2022 05:02 1,7 C 78 % 1018,6 hPa 0,0 l/m 11,5 kts (4 Bft) SW 215 0 min 0,0 UV-I 0 W/m -1,7 C -8,0 C 16,5 kts (5 Bft) 100,00 %
20.01.2022 05:01 1,7 C 77 % 1018,6 hPa 0,0 l/m 18,0 kts (5 Bft) SW 227 0 min 0,0 UV-I 0 W/m -1,9 C -11,9 C 23,5 kts (6 Bft) 96,30 %
20.01.2022 05:00 1,7 C 77 % 1018,6 hPa 0,0 l/m 15,1 kts (4 Bft) SW 219 0 min 0,0 UV-I 0 W/m -1,9 C -10,4 C 19,1 kts (5 Bft) 100,00 %
20.01.2022 04:59 1,7 C 77 % 1018,6 hPa 0,0 l/m 17,1 kts (5 Bft) SW 217 0 min 0,0 UV-I 0 W/m -1,9 C -11,5 C 20,0 kts (5 Bft) 100,00 %
20.01.2022 04:58 1,8 C 77 % 1018,6 hPa 0,0 l/m 16,1 kts (5 Bft) SW 234 0 min 0,0 UV-I 0 W/m -1,8 C -10,8 C 19,1 kts (5 Bft) 100,00 %
20.01.2022 04:57 1,8 C 77 % 1018,7 hPa 0,0 l/m 15,7 kts (5 Bft) SW 219 0 min 0,0 UV-I 0 W/m -1,8 C -10,6 C 19,1 kts (5 Bft) 100,00 %
20.01.2022 04:56 1,8 C 77 % 1018,7 hPa 0,0 l/m 15,2 kts (4 Bft) SW 227 0 min 0,0 UV-I 0 W/m -1,8 C -10,3 C 18,3 kts (5 Bft) 100,00 %
20.01.2022 04:55 1,8 C 77 % 1018,6 hPa 0,0 l/m 19,2 kts (5 Bft) W-SW 247 0 min 0,0 UV-I 0 W/m -1,8 C -12,3 C 22,6 kts (6 Bft) 100,00 %
20.01.2022 04:54 1,8 C 77 % 1018,7 hPa 0,0 l/m 15,9 kts (5 Bft) SW 217 0 min 0,0 UV-I 0 W/m -1,8 C -10,7 C 20,8 kts (5 Bft) 100,00 %
20.01.2022 04:53 1,8 C 77 % 1018,8 hPa 0,0 l/m 15,7 kts (5 Bft) SW 220 0 min 0,0 UV-I 0 W/m -1,8 C -10,6 C 17,4 kts (5 Bft) 98,93 %
20.01.2022 04:52 1,7 C 77 % 1018,8 hPa 0,0 l/m 14,7 kts (4 Bft) SW 233 0 min 0,0 UV-I 0 W/m -1,9 C -10,2 C 19,1 kts (5 Bft) 100,00 %
20.01.2022 04:51 1,7 C 77 % 1018,7 hPa 0,0 l/m 15,3 kts (4 Bft) SW 225 0 min 0,0 UV-I 0 W/m -1,9 C -10,5 C 20,0 kts (5 Bft) 100,00 %
20.01.2022 04:50 1,7 C 77 % 1018,7 hPa 0,0 l/m 17,2 kts (5 Bft) W-SW 257 0 min 0,0 UV-I 0 W/m -1,9 C -11,5 C 22,6 kts (6 Bft) 100,00 %
20.01.2022 04:49 1,7 C 77 % 1018,8 hPa 0,0 l/m 17,5 kts (5 Bft) W-SW 250 0 min 0,0 UV-I 0 W/m -1,9 C -11,7 C 20,8 kts (5 Bft) 100,00 %
20.01.2022 04:48 1,7 C 77 % 1018,6 hPa 0,0 l/m 14,6 kts (4 Bft) S-SW 211 0 min 0,0 UV-I 0 W/m -1,9 C -10,1 C 17,4 kts (5 Bft) 98,81 %
20.01.2022 04:47 1,7 C 78 % 1018,6 hPa 0,0 l/m 14,0 kts (4 Bft) SW 228 0 min 0,0 UV-I 0 W/m -1,7 C -9,8 C 18,3 kts (5 Bft) 100,00 %
20.01.2022 04:46 1,7 C 78 % 1018,9 hPa 0,0 l/m 18,0 kts (5 Bft) SW 220 0 min 0,0 UV-I 0 W/m -1,7 C -11,9 C 20,0 kts (5 Bft) 100,00 %
20.01.2022 04:45 1,7 C 78 % 1018,8 hPa 0,0 l/m 12,7 kts (4 Bft) W-SW 238 0 min 0,0 UV-I 0 W/m -1,7 C -8,9 C 18,3 kts (5 Bft) 100,00 %
20.01.2022 04:44 1,7 C 78 % 1018,6 hPa 0,0 l/m 14,5 kts (4 Bft) SW 232 0 min 0,0 UV-I 0 W/m -1,7 C -10,0 C 18,3 kts (5 Bft) 100,00 %
20.01.2022 04:43 1,7 C 78 % 1018,6 hPa 0,0 l/m 16,8 kts (5 Bft) W-SW 239 0 min 0,0 UV-I 0 W/m -1,7 C -11,3 C 18,3 kts (5 Bft) 100,00 %
20.01.2022 04:42 1,7 C 78 % 1018,7 hPa 0,0 l/m 17,5 kts (5 Bft) SW 228 0 min 0,0 UV-I 0 W/m -1,7 C -11,7 C 22,6 kts (6 Bft) 100,00 %
20.01.2022 04:41 1,7 C 78 % 1018,8 hPa 0,0 l/m 17,4 kts (5 Bft) W-SW 240 0 min 0,0 UV-I 0 W/m -1,7 C -11,6 C 26,1 kts (6 Bft) 100,00 %
20.01.2022 04:40 1,7 C 78 % 1018,8 hPa 0,0 l/m 19,0 kts (5 Bft) S-SW 211 0 min 0,0 UV-I 0 W/m -1,7 C -12,4 C 20,8 kts (5 Bft) 100,00 %
20.01.2022 04:39 1,7 C 78 % 1018,8 hPa 0,0 l/m 17,2 kts (5 Bft) SW 230 0 min 0,0 UV-I 0 W/m -1,7 C -11,5 C 22,6 kts (6 Bft) 100,00 %
20.01.2022 04:38 1,7 C 78 % 1018,7 hPa 0,0 l/m 13,7 kts (4 Bft) W-SW 253 0 min 0,0 UV-I 0 W/m -1,7 C -9,5 C 14,8 kts (4 Bft) 100,00 %
20.01.2022 04:37 1,7 C 78 % 1018,7 hPa 0,0 l/m 16,8 kts (5 Bft) SW 224 0 min 0,0 UV-I 0 W/m -1,7 C -11,3 C 20,8 kts (5 Bft) 100,00 %
20.01.2022 04:36 1,7 C 78 % 1018,7 hPa 0,0 l/m 17,9 kts (5 Bft) SW 236 0 min 0,0 UV-I 0 W/m -1,7 C -11,9 C 20,8 kts (5 Bft) 100,00 %
20.01.2022 04:35 1,7 C 78 % 1018,7 hPa 0,0 l/m 16,4 kts (5 Bft) SW 229 0 min 0,0 UV-I 0 W/m -1,7 C -11,1 C 19,1 kts (5 Bft) 100,00 %
20.01.2022 04:34 1,7 C 78 % 1018,7 hPa 0,0 l/m 12,7 kts (4 Bft) W-SW 239 0 min 0,0 UV-I 0 W/m -1,7 C -8,9 C 16,5 kts (5 Bft) 96,15 %
20.01.2022 04:33 1,8 C 78 % 1018,7 hPa 0,0 l/m 15,4 kts (4 Bft) W-SW 248 0 min 0,0 UV-I 0 W/m -1,6 C -10,4 C 20,0 kts (5 Bft) 100,00 %
20.01.2022 04:32 1,8 C 78 % 1018,8 hPa 0,0 l/m 18,1 kts (5 Bft) SW 227 0 min 0,0 UV-I 0 W/m -1,6 C -11,8 C 21,7 kts (6 Bft) 98,18 %
20.01.2022 04:31 1,7 C 77 % 1018,8 hPa 0,0 l/m 17,1 kts (5 Bft) W-SW 238 0 min 0,0 UV-I 0 W/m -1,9 C -11,5 C 21,7 kts (6 Bft) 98,38 %
20.01.2022 04:30 1,8 C 77 % 1018,8 hPa 0,0 l/m 18,6 kts (5 Bft) W-SW 239 0 min 0,0 UV-I 0 W/m -1,8 C -12,0 C 23,5 kts (6 Bft) 100,00 %
20.01.2022 04:29 1,8 C 77 % 1018,8 hPa 0,0 l/m 13,3 kts (4 Bft) SW 227 0 min 0,0 UV-I 0 W/m -1,8 C -9,2 C 16,5 kts (5 Bft) 100,00 %
20.01.2022 04:28 1,8 C 77 % 1018,8 hPa 0,0 l/m 17,1 kts (5 Bft) SW 217 0 min 0,0 UV-I 0 W/m -1,8 C -11,3 C 20,8 kts (5 Bft) 100,00 %
20.01.2022 04:27 1,8 C 77 % 1018,8 hPa 0,0 l/m 20,0 kts (5 Bft) W-SW 248 0 min 0,0 UV-I 0 W/m -1,8 C -12,7 C 22,6 kts (6 Bft) 100,00 %
20.01.2022 04:26 1,7 C 77 % 1018,8 hPa 0,0 l/m 18,1 kts (5 Bft) SW 224 0 min 0,0 UV-I 0 W/m -1,9 C -12,0 C 22,6 kts (6 Bft) 96,88 %
20.01.2022 04:25 1,8 C 77 % 1018,8 hPa 0,0 l/m 17,2 kts (5 Bft) SW 229 0 min 0,0 UV-I 0 W/m -1,8 C -11,4 C 21,7 kts (6 Bft) 100,00 %
20.01.2022 04:24 1,8 C 77 % 1018,9 hPa 0,0 l/m 18,0 kts (5 Bft) W-SW 248 0 min 0,0 UV-I 0 W/m -1,8 C -11,8 C 21,7 kts (6 Bft) 100,00 %
20.01.2022 04:23 1,8 C 77 % 1018,8 hPa 0,0 l/m 15,4 kts (4 Bft) SW 227 0 min 0,0 UV-I 0 W/m -1,8 C -10,4 C 18,3 kts (5 Bft) 100,00 %
20.01.2022 04:22 1,8 C 77 % 1018,8 hPa 0,0 l/m 14,8 kts (4 Bft) SW 219 0 min 0,0 UV-I 0 W/m -1,8 C -10,1 C 17,4 kts (5 Bft) 97,56 %
20.01.2022 04:21 1,8 C 77 % 1018,9 hPa 0,0 l/m 12,6 kts (4 Bft) SW 225 0 min 0,0 UV-I 0 W/m -1,8 C -8,7 C 13,9 kts (4 Bft) 100,00 %
20.01.2022 04:20 1,8 C 77 % 1018,9 hPa 0,0 l/m 14,0 kts (4 Bft) SW 223 0 min 0,0 UV-I 0 W/m -1,8 C -9,6 C 16,5 kts (5 Bft) 100,00 %
20.01.2022 04:19 1,8 C 77 % 1018,9 hPa 0,0 l/m 14,7 kts (4 Bft) W-SW 252 0 min 0,0 UV-I 0 W/m -1,8 C -10,0 C 16,5 kts (5 Bft) 100,00 %
20.01.2022 04:18 1,8 C 77 % 1018,8 hPa 0,0 l/m 16,0 kts (5 Bft) W-SW 250 0 min 0,0 UV-I 0 W/m -1,8 C -10,8 C 19,1 kts (5 Bft) 100,00 %
20.01.2022 04:17 1,8 C 77 % 1018,8 hPa 0,0 l/m 16,4 kts (5 Bft) SW 225 0 min 0,0 UV-I 0 W/m -1,8 C -11,0 C 17,4 kts (5 Bft) 100,00 %
20.01.2022 04:16 1,8 C 77 % 1018,9 hPa 0,0 l/m 18,7 kts (5 Bft) SW 219 0 min 0,0 UV-I 0 W/m -1,8 C -12,1 C 24,4 kts (6 Bft) 95,83 %
20.01.2022 04:15 1,8 C 77 % 1018,9 hPa 0,0 l/m 13,6 kts (4 Bft) W-SW 251 0 min 0,0 UV-I 0 W/m -1,8 C -9,3 C 18,3 kts (5 Bft) 100,00 %
20.01.2022 04:14 1,8 C 77 % 1018,9 hPa 0,0 l/m 12,5 kts (4 Bft) W-SW 239 0 min 0,0 UV-I 0 W/m -1,8 C -8,6 C 15,7 kts (5 Bft) 96,30 %
20.01.2022 04:13 1,8 C 77 % 1019,0 hPa 0,0 l/m 12,7 kts (4 Bft) SW 223 0 min 0,0 UV-I 0 W/m -1,8 C -8,7 C 14,8 kts (4 Bft) 100,00 %
20.01.2022 04:12 1,8 C 76 % 1018,9 hPa 0,0 l/m 18,5 kts (5 Bft) SW 235 0 min 0,0 UV-I 0 W/m -2,0 C -12,0 C 21,7 kts (6 Bft) 95,83 %
20.01.2022 04:11 1,8 C 76 % 1019,0 hPa 0,0 l/m 18,3 kts (5 Bft) W-SW 244 0 min 0,0 UV-I 0 W/m -2,0 C -11,9 C 24,4 kts (6 Bft) 100,00 %
20.01.2022 04:10 1,8 C 76 % 1018,9 hPa 0,0 l/m 16,1 kts (5 Bft) SW 218 0 min 0,0 UV-I 0 W/m -2,0 C -10,8 C 20,0 kts (5 Bft) 96,30 %
20.01.2022 04:09 1,8 C 76 % 1019,0 hPa 0,0 l/m 16,4 kts (5 Bft) W-SW 244 0 min 0,0 UV-I 0 W/m -2,0 C -11,0 C 20,0 kts (5 Bft) 100,00 %
20.01.2022 04:08 1,8 C 76 % 1019,0 hPa 0,0 l/m 18,2 kts (5 Bft) W-SW 250 0 min 0,0 UV-I 0 W/m -2,0 C -11,9 C 21,7 kts (6 Bft) 91,67 %
20.01.2022 04:07 1,8 C 76 % 1019,1 hPa 0,0 l/m 15,5 kts (4 Bft) SW 235 0 min 0,0 UV-I 0 W/m -2,0 C -10,5 C 20,8 kts (5 Bft) 100,00 %
20.01.2022 04:06 1,8 C 76 % 1019,1 hPa 0,0 l/m 15,8 kts (5 Bft) W-SW 237 0 min 0,0 UV-I 0 W/m -2,0 C -10,7 C 18,3 kts (5 Bft) 96,88 %
20.01.2022 04:05 1,8 C 76 % 1019,0 hPa 0,0 l/m 15,4 kts (4 Bft) W-SW 250 0 min 0,0 UV-I 0 W/m -2,0 C -10,5 C 19,1 kts (5 Bft) 100,00 %
20.01.2022 04:04 1,8 C 76 % 1019,0 hPa 0,0 l/m 13,9 kts (4 Bft) W-SW 243 0 min 0,0 UV-I 0 W/m -2,0 C -9,5 C 20,8 kts (5 Bft) 100,00 %
20.01.2022 04:03 1,8 C 76 % 1019,0 hPa 0,0 l/m 15,5 kts (4 Bft) W-SW 248 0 min 0,0 UV-I 0 W/m -2,0 C -10,5 C 19,1 kts (5 Bft) 94,29 %
20.01.2022 04:02 1,8 C 76 % 1019,0 hPa 0,0 l/m 16,3 kts (5 Bft) SW 219 0 min 0,0 UV-I 0 W/m -2,0 C -10,9 C 19,1 kts (5 Bft) 100,00 %
20.01.2022 04:01 1,8 C 76 % 1019,0 hPa 0,0 l/m 12,1 kts (4 Bft) W-SW 254 0 min 0,0 UV-I 0 W/m -2,0 C -8,3 C 16,5 kts (5 Bft) 90,91 %
20.01.2022 04:00 1,7 C 76 % 1019,0 hPa 0,0 l/m 12,7 kts (4 Bft) W-SW 250 0 min 0,0 UV-I 0 W/m -2,1 C -8,9 C 18,3 kts (5 Bft) 96,15 %
20.01.2022 03:59 1,8 C 76 % 1019,0 hPa 0,0 l/m 14,8 kts (4 Bft) SW 229 0 min 0,0 UV-I 0 W/m -2,0 C -10,1 C 19,1 kts (5 Bft) 100,00 %
20.01.2022 03:58 1,7 C 76 % 1019,0 hPa 0,0 l/m 14,8 kts (4 Bft) W-SW 240 0 min 0,0 UV-I 0 W/m -2,1 C -10,3 C 17,4 kts (5 Bft) 97,14 %
20.01.2022 03:57 1,7 C 76 % 1019,1 hPa 0,0 l/m 15,8 kts (5 Bft) SW 234 0 min 0,0 UV-I 0 W/m -2,1 C -10,8 C 19,1 kts (5 Bft) 100,00 %
20.01.2022 03:56 1,7 C 76 % 1019,0 hPa 0,0 l/m 17,3 kts (5 Bft) SW 230 0 min 0,0 UV-I 0 W/m -2,1 C -11,6 C 20,0 kts (5 Bft) 100,00 %
20.01.2022 03:55 1,7 C 76 % 1019,0 hPa 0,0 l/m 12,8 kts (4 Bft) SW 226 0 min 0,0 UV-I 0 W/m -2,1 C -8,9 C 15,7 kts (5 Bft) 95,65 %
20.01.2022 03:54 1,8 C 76 % 1019,1 hPa 0,0 l/m 11,8 kts (4 Bft) SW 225 0 min 0,0 UV-I 0 W/m -2,0 C -8,1 C 14,8 kts (4 Bft) 100,00 %
20.01.2022 03:53 1,8 C 76 % 1019,0 hPa 0,0 l/m 14,7 kts (4 Bft) SW 234 0 min 0,0 UV-I 0 W/m -2,0 C -10,0 C 18,3 kts (5 Bft) 100,00 %
20.01.2022 03:52 1,8 C 76 % 1019,0 hPa 0,0 l/m 12,6 kts (4 Bft) S-SW 210 0 min 0,0 UV-I 0 W/m -2,0 C -8,7 C 15,7 kts (5 Bft) 100,00 %
20.01.2022 03:51 1,7 C 76 % 1018,9 hPa 0,0 l/m 11,1 kts (4 Bft) S-SW 211 0 min 0,0 UV-I 0 W/m -2,1 C -7,7 C 13,9 kts (4 Bft) 100,00 %
20.01.2022 03:50 1,7 C 76 % 1019,0 hPa 0,0 l/m 13,1 kts (4 Bft) SW 226 0 min 0,0 UV-I 0 W/m -2,1 C -9,2 C 15,7 kts (5 Bft) 100,00 %
20.01.2022 03:49 1,7 C 76 % 1018,9 hPa 0,0 l/m 13,9 kts (4 Bft) SW 224 0 min 0,0 UV-I 0 W/m -2,1 C -9,7 C 16,5 kts (5 Bft) 100,00 %
20.01.2022 03:48 1,8 C 76 % 1018,9 hPa 0,0 l/m 15,1 kts (4 Bft) SW 218 0 min 0,0 UV-I 0 W/m -2,0 C -10,3 C 18,3 kts (5 Bft) 100,00 %
20.01.2022 03:47 1,7 C 76 % 1018,9 hPa 0,0 l/m 12,4 kts (4 Bft) SW 218 0 min 0,0 UV-I 0 W/m -2,1 C -8,6 C 14,8 kts (4 Bft) 100,00 %
20.01.2022 03:46 1,8 C 76 % 1019,0 hPa 0,0 l/m 14,1 kts (4 Bft) SW 229 0 min 0,0 UV-I 0 W/m -2,0 C -9,7 C 17,4 kts (5 Bft) 100,00 %
20.01.2022 03:45 1,8 C 76 % 1019,0 hPa 0,0 l/m 9,8 kts (3 Bft) S-SW 207 0 min 0,0 UV-I 0 W/m -2,0 C -6,5 C 12,1 kts (4 Bft) 100,00 %
20.01.2022 03:44 1,8 C 76 % 1019,0 hPa 0,0 l/m 13,7 kts (4 Bft) SW 235 0 min 0,0 UV-I 0 W/m -2,0 C -9,4 C 16,5 kts (5 Bft) 100,00 %
20.01.2022 03:43 1,8 C 76 % 1019,0 hPa 0,0 l/m 15,7 kts (5 Bft) SW 218 0 min 0,0 UV-I 0 W/m -2,0 C -10,6 C 20,0 kts (5 Bft) 100,00 %
20.01.2022 03:42 1,8 C 76 % 1019,0 hPa 0,0 l/m 15,6 kts (4 Bft) SW 227 0 min 0,0 UV-I 0 W/m -2,0 C -10,5 C 19,1 kts (5 Bft) 100,00 %
20.01.2022 03:41 1,8 C 76 % 1019,1 hPa 0,0 l/m 12,3 kts (4 Bft) SW 224 0 min 0,0 UV-I 0 W/m -2,0 C -8,4 C 14,8 kts (4 Bft) 100,00 %
20.01.2022 03:40 1,8 C 76 % 1019,0 hPa 0,0 l/m 15,0 kts (4 Bft) W-SW 238 0 min 0,0 UV-I 0 W/m -2,0 C -10,2 C 17,4 kts (5 Bft) 100,00 %
20.01.2022 03:39 1,7 C 76 % 1019,1 hPa 0,0 l/m 12,3 kts (4 Bft) SW 231 0 min 0,0 UV-I 0 W/m -2,1 C -8,6 C 13,9 kts (4 Bft) 100,00 %
20.01.2022 03:38 1,7 C 76 % 1019,1 hPa 0,0 l/m 12,3 kts (4 Bft) SW 234 0 min 0,0 UV-I 0 W/m -2,1 C -8,6 C 14,8 kts (4 Bft) 100,00 %
20.01.2022 03:37 1,7 C 76 % 1019,1 hPa 0,0 l/m 17,2 kts (5 Bft) W-SW 254 0 min 0,0 UV-I 0 W/m -2,1 C -11,5 C 19,1 kts (5 Bft) 100,00 %
20.01.2022 03:36 1,7 C 76 % 1019,1 hPa 0,0 l/m 19,3 kts (5 Bft) SW 224 0 min 0,0 UV-I 0 W/m -2,1 C -12,5 C 22,6 kts (6 Bft) 100,00 %
20.01.2022 03:35 1,7 C 76 % 1019,1 hPa 0,0 l/m 13,7 kts (4 Bft) SW 224 0 min 0,0 UV-I 0 W/m -2,1 C -9,6 C 20,8 kts (5 Bft) 100,00 %
20.01.2022 03:34 1,7 C 76 % 1019,1 hPa 0,0 l/m 18,9 kts (5 Bft) SW 232 0 min 0,0 UV-I 0 W/m -2,1 C -12,3 C 24,4 kts (6 Bft) 100,00 %
20.01.2022 03:33 1,7 C 76 % 1019,1 hPa 0,0 l/m 17,2 kts (5 Bft) W-SW 239 0 min 0,0 UV-I 0 W/m -2,1 C -11,5 C 20,0 kts (5 Bft) 98,97 %
20.01.2022 03:32 1,7 C 76 % 1019,1 hPa 0,0 l/m 15,9 kts (5 Bft) SW 218 0 min 0,0 UV-I 0 W/m -2,1 C -10,8 C 18,3 kts (5 Bft) 100,00 %
20.01.2022 03:31 1,7 C 76 % 1019,1 hPa 0,0 l/m 14,9 kts (4 Bft) SW 223 0 min 0,0 UV-I 0 W/m -2,1 C -10,3 C 17,4 kts (5 Bft) 96,15 %
20.01.2022 03:30 1,7 C 76 % 1019,1 hPa 0,0 l/m 12,1 kts (4 Bft) SW 227 0 min 0,0 UV-I 0 W/m -2,1 C -8,4 C 14,8 kts (4 Bft) 100,00 %
20.01.2022 03:29 1,7 C 76 % 1019,1 hPa 0,0 l/m 14,0 kts (4 Bft) SW 228 0 min 0,0 UV-I 0 W/m -2,1 C -9,7 C 17,4 kts (5 Bft) 100,00 %
20.01.2022 03:28 1,7 C 76 % 1019,2 hPa 0,0 l/m 18,2 kts (5 Bft) SW 216 0 min 0,0 UV-I 0 W/m -2,1 C -12,0 C 21,7 kts (6 Bft) 100,00 %
20.01.2022 03:27 1,7 C 76 % 1019,2 hPa 0,0 l/m 14,9 kts (4 Bft) W-SW 243 0 min 0,0 UV-I 0 W/m -2,1 C -10,3 C 20,0 kts (5 Bft) 100,00 %
20.01.2022 03:26 1,7 C 76 % 1019,2 hPa 0,0 l/m 13,4 kts (4 Bft) SW 234 0 min 0,0 UV-I 0 W/m -2,1 C -9,3 C 15,7 kts (5 Bft) 100,00 %
20.01.2022 03:25 1,7 C 76 % 1019,2 hPa 0,0 l/m 15,8 kts (5 Bft) SW 229 0 min 0,0 UV-I 0 W/m -2,1 C -10,8 C 18,3 kts (5 Bft) 100,00 %
20.01.2022 03:24 1,6 C 76 % 1019,2 hPa 0,0 l/m 14,0 kts (4 Bft) SW 233 0 min 0,0 UV-I 0 W/m -2,2 C -9,9 C 18,3 kts (5 Bft) 100,00 %
20.01.2022 03:23 1,6 C 76 % 1019,2 hPa 0,0 l/m 15,9 kts (5 Bft) W-SW 239 0 min 0,0 UV-I 0 W/m -2,2 C -11,0 C 16,5 kts (5 Bft) 98,93 %
20.01.2022 03:22 1,7 C 76 % 1019,2 hPa 0,0 l/m 14,8 kts (4 Bft) W-SW 238 0 min 0,0 UV-I 0 W/m -2,1 C -10,2 C 16,5 kts (5 Bft) 98,93 %
20.01.2022 03:21 1,7 C 76 % 1019,2 hPa 0,0 l/m 10,7 kts (4 Bft) SW 219 0 min 0,0 UV-I 0 W/m -2,1 C -7,4 C 13,0 kts (4 Bft) 98,93 %
20.01.2022 03:20 1,7 C 76 % 1019,2 hPa 0,0 l/m 15,3 kts (4 Bft) SW 235 0 min 0,0 UV-I 0 W/m -2,1 C -10,5 C 18,3 kts (5 Bft) 96,15 %
20.01.2022 03:19 1,7 C 76 % 1019,1 hPa 0,0 l/m 16,1 kts (5 Bft) SW 230 0 min 0,0 UV-I 0 W/m -2,1 C -11,0 C 18,3 kts (5 Bft) 100,00 %
20.01.2022 03:18 1,6 C 76 % 1019,2 hPa 0,0 l/m 16,6 kts (5 Bft) SW 232 0 min 0,0 UV-I 0 W/m -2,2 C -11,4 C 22,6 kts (6 Bft) 100,00 %
20.01.2022 03:17 1,6 C 76 % 1019,2 hPa 0,0 l/m 13,8 kts (4 Bft) SW 219 0 min 0,0 UV-I 0 W/m -2,2 C -9,8 C 17,4 kts (5 Bft) 100,00 %
20.01.2022 03:16 1,6 C 76 % 1019,2 hPa 0,0 l/m 16,4 kts (5 Bft) W-SW 246 0 min 0,0 UV-I 0 W/m -2,2 C -11,2 C 19,1 kts (5 Bft) 100,00 %
20.01.2022 03:15 1,6 C 76 % 1019,2 hPa 0,0 l/m 14,9 kts (4 Bft) SW 225 0 min 0,0 UV-I 0 W/m -2,2 C -10,4 C 17,4 kts (5 Bft) 100,00 %
20.01.2022 03:14 1,6 C 76 % 1019,1 hPa 0,0 l/m 13,1 kts (4 Bft) SW 225 0 min 0,0 UV-I 0 W/m -2,2 C -9,3 C 17,4 kts (5 Bft) 100,00 %
20.01.2022 03:13 1,7 C 76 % 1019,2 hPa 0,0 l/m 12,3 kts (4 Bft) W 265 0 min 0,0 UV-I 0 W/m -2,1 C -8,6 C 14,8 kts (4 Bft) 100,00 %
20.01.2022 03:12 1,6 C 76 % 1019,2 hPa 0,0 l/m 15,1 kts (4 Bft) SW 223 0 min 0,0 UV-I 0 W/m -2,2 C -10,6 C 16,5 kts (5 Bft) 100,00 %
20.01.2022 03:11 1,6 C 76 % 1019,2 hPa 0,0 l/m 15,7 kts (5 Bft) SW 228 0 min 0,0 UV-I 0 W/m -2,2 C -10,9 C 18,3 kts (5 Bft) 100,00 %
20.01.2022 03:10 1,6 C 76 % 1019,3 hPa 0,0 l/m 13,5 kts (4 Bft) SW 234 0 min 0,0 UV-I 0 W/m -2,2 C -9,6 C 17,4 kts (5 Bft) 100,00 %
20.01.2022 03:09 1,6 C 76 % 1019,2 hPa 0,0 l/m 12,7 kts (4 Bft) S-SW 213 0 min 0,0 UV-I 0 W/m -2,2 C -9,0 C 15,7 kts (5 Bft) 100,00 %
20.01.2022 03:08 1,6 C 76 % 1019,4 hPa 0,0 l/m 18,1 kts (5 Bft) SW 236 0 min 0,0 UV-I 0 W/m -2,2 C -12,1 C 23,5 kts (6 Bft) 100,00 %
20.01.2022 03:07 1,6 C 76 % 1019,4 hPa 0,0 l/m 14,6 kts (4 Bft) SW 233 0 min 0,0 UV-I 0 W/m -2,2 C -10,2 C 17,4 kts (5 Bft) 100,00 %
20.01.2022 03:06 1,6 C 76 % 1019,4 hPa 0,0 l/m 14,1 kts (4 Bft) W-SW 242 0 min 0,0 UV-I 0 W/m -2,2 C -9,9 C 17,4 kts (5 Bft) 100,00 %
20.01.2022 03:05 1,6 C 76 % 1019,3 hPa 0,0 l/m 17,4 kts (5 Bft) SW 219 0 min 0,0 UV-I 0 W/m -2,2 C -11,8 C 20,8 kts (5 Bft) 100,00 %
20.01.2022 03:04 1,6 C 76 % 1019,4 hPa 0,0 l/m 13,4 kts (4 Bft) SW 235 0 min 0,0 UV-I 0 W/m -2,2 C -9,5 C 18,3 kts (5 Bft) 100,00 %
20.01.2022 03:03 1,6 C 76 % 1019,4 hPa 0,0 l/m 13,1 kts (4 Bft) SW 220 0 min 0,0 UV-I 0 W/m -2,2 C -9,3 C 17,4 kts (5 Bft) 95,83 %
20.01.2022 03:02 1,6 C 76 % 1019,4 hPa 0,0 l/m 14,0 kts (4 Bft) SW 234 0 min 0,0 UV-I 0 W/m -2,2 C -9,9 C 21,7 kts (6 Bft) 100,00 %
20.01.2022 03:00 1,6 C 76 % 1019,4 hPa 0,0 l/m 11,7 kts (4 Bft) SW 222 0 min 0,0 UV-I 0 W/m -2,2 C -8,2 C 16,5 kts (5 Bft) 95,65 %
20.01.2022 02:59 1,7 C 76 % 1019,4 hPa 0,0 l/m 13,8 kts (4 Bft) W-SW 257 0 min 0,0 UV-I 0 W/m -2,1 C -9,6 C 16,5 kts (5 Bft) 100,00 %
20.01.2022 02:58 1,7 C 76 % 1019,4 hPa 0,0 l/m 13,8 kts (4 Bft) W-SW 239 0 min 0,0 UV-I 0 W/m -2,1 C -9,6 C 18,3 kts (5 Bft) 95,65 %
20.01.2022 02:57 1,7 C 76 % 1019,4 hPa 0,0 l/m 12,6 kts (4 Bft) W-SW 242 0 min 0,0 UV-I 0 W/m -2,1 C -8,8 C 16,5 kts (5 Bft) 100,00 %
20.01.2022 02:56 1,7 C 76 % 1019,5 hPa 0,0 l/m 13,3 kts (4 Bft) SW 229 0 min 0,0 UV-I 0 W/m -2,1 C -9,3 C 16,5 kts (5 Bft) 96,15 %
20.01.2022 02:55 1,7 C 76 % 1019,5 hPa 0,0 l/m 13,3 kts (4 Bft) W-SW 242 0 min 0,0 UV-I 0 W/m -2,1 C -9,3 C 17,4 kts (5 Bft) 100,00 %
20.01.2022 02:54 1,7 C 76 % 1019,5 hPa 0,0 l/m 15,6 kts (5 Bft) SW 229 0 min 0,0 UV-I 0 W/m -2,1 C -10,7 C 21,7 kts (6 Bft) 100,00 %
20.01.2022 02:53 1,7 C 76 % 1019,6 hPa 0,0 l/m 17,3 kts (5 Bft) SW 234 0 min 0,0 UV-I 0 W/m -2,1 C -11,6 C 21,7 kts (6 Bft) 95,83 %
20.01.2022 02:52 1,7 C 76 % 1019,5 hPa 0,0 l/m 12,5 kts (4 Bft) SW 225 0 min 0,0 UV-I 0 W/m -2,1 C -8,7 C 14,8 kts (4 Bft) 97,37 %
20.01.2022 02:51 1,7 C 76 % 1019,6 hPa 0,0 l/m 12,7 kts (4 Bft) SW 232 0 min 0,0 UV-I 0 W/m -2,1 C -8,9 C 13,9 kts (4 Bft) 100,00 %
20.01.2022 02:50 1,7 C 76 % 1019,5 hPa 0,0 l/m 14,0 kts (4 Bft) W 259 0 min 0,0 UV-I 0 W/m -2,1 C -9,7 C 18,3 kts (5 Bft) 100,00 %
20.01.2022 02:49 1,7 C 76 % 1019,4 hPa 0,0 l/m 13,1 kts (4 Bft) SW 232 0 min 0,0 UV-I 0 W/m -2,1 C -9,2 C 14,8 kts (4 Bft) 95,83 %
20.01.2022 02:48 1,7 C 76 % 1019,4 hPa 0,0 l/m 11,2 kts (4 Bft) W-SW 242 0 min 0,0 UV-I 0 W/m -2,1 C -7,8 C 16,5 kts (5 Bft) 100,00 %
20.01.2022 02:47 1,7 C 76 % 1019,5 hPa 0,0 l/m 15,9 kts (5 Bft) W-SW 244 0 min 0,0 UV-I 0 W/m -2,1 C -10,8 C 18,3 kts (5 Bft) 95,83 %
20.01.2022 02:46 1,7 C 76 % 1019,5 hPa 0,0 l/m 15,6 kts (4 Bft) W-SW 249 0 min 0,0 UV-I 0 W/m -2,1 C -10,7 C 20,8 kts (5 Bft) 95,65 %
20.01.2022 02:45 1,7 C 76 % 1019,4 hPa 0,0 l/m 16,7 kts (5 Bft) SW 233 0 min 0,0 UV-I 0 W/m -2,1 C -11,3 C 20,0 kts (5 Bft) 92,59 %
20.01.2022 02:44 1,7 C 76 % 1019,5 hPa 0,0 l/m 17,2 kts (5 Bft) W-SW 240 0 min 0,0 UV-I 0 W/m -2,1 C -11,5 C 23,5 kts (6 Bft) 100,00 %
20.01.2022 02:43 1,7 C 76 % 1019,5 hPa 0,0 l/m 14,6 kts (4 Bft) W-SW 256 0 min 0,0 UV-I 0 W/m -2,1 C -10,1 C 18,3 kts (5 Bft) 91,67 %
20.01.2022 02:42 1,7 C 76 % 1019,5 hPa 0,0 l/m 16,4 kts (5 Bft) S-SW 194 0 min 0,0 UV-I 0 W/m -2,1 C -11,1 C 19,1 kts (5 Bft) 100,00 %
20.01.2022 02:41 1,7 C 76 % 1019,5 hPa 0,0 l/m 16,7 kts (5 Bft) W-SW 238 0 min 0,0 UV-I 0 W/m -2,1 C -11,3 C 19,1 kts (5 Bft) 97,56 %
20.01.2022 02:40 1,7 C 75 % 1019,4 hPa 0,0 l/m 17,6 kts (5 Bft) SW 230 0 min 0,0 UV-I 0 W/m -2,2 C -11,7 C 21,7 kts (6 Bft) 99,06 %
20.01.2022 02:39 1,7 C 75 % 1019,4 hPa 0,0 l/m 19,1 kts (5 Bft) SW 234 0 min 0,0 UV-I 0 W/m -2,2 C -12,4 C 22,6 kts (6 Bft) 95,83 %
20.01.2022 02:38 1,7 C 75 % 1019,3 hPa 0,0 l/m 16,6 kts (5 Bft) W-SW 246 0 min 0,0 UV-I 0 W/m -2,2 C -11,2 C 21,7 kts (6 Bft) 100,00 %
20.01.2022 02:37 1,7 C 75 % 1019,2 hPa 0,0 l/m 17,6 kts (5 Bft) SW 224 0 min 0,0 UV-I 0 W/m -2,2 C -11,7 C 20,8 kts (5 Bft) 96,15 %
20.01.2022 02:36 1,7 C 75 % 1019,3 hPa 0,0 l/m 18,6 kts (5 Bft) S-SW 202 0 min 0,0 UV-I 0 W/m -2,2 C -12,2 C 22,6 kts (6 Bft) 100,00 %
20.01.2022 02:35 1,7 C 75 % 1019,3 hPa 0,0 l/m 20,3 kts (5 Bft) SW 234 0 min 0,0 UV-I 0 W/m -2,2 C -12,9 C 25,2 kts (6 Bft) 100,00 %
20.01.2022 02:34 1,7 C 76 % 1019,4 hPa 0,0 l/m 21,5 kts (6 Bft) W-SW 237 0 min 0,0 UV-I 0 W/m -2,1 C -13,4 C 25,2 kts (6 Bft) 100,00 %
20.01.2022 02:33 1,7 C 76 % 1019,6 hPa 0,0 l/m 16,1 kts (5 Bft) SW 229 0 min 0,0 UV-I 0 W/m -2,1 C -11,0 C 19,1 kts (5 Bft) 100,00 %
20.01.2022 02:32 1,7 C 75 % 1019,6 hPa 0,0 l/m 18,1 kts (5 Bft) W-SW 240 0 min 0,0 UV-I 0 W/m -2,2 C -12,0 C 20,8 kts (5 Bft) 100,00 %
20.01.2022 02:31 1,7 C 76 % 1019,5 hPa 0,0 l/m 19,0 kts (5 Bft) W-SW 242 0 min 0,0 UV-I 0 W/m -2,1 C -12,4 C 24,4 kts (6 Bft) 100,00 %
20.01.2022 02:30 1,7 C 76 % 1019,5 hPa 0,0 l/m 17,5 kts (5 Bft) SW 230 0 min 0,0 UV-I 0 W/m -2,1 C -11,7 C 21,7 kts (6 Bft) 100,00 %
20.01.2022 02:29 1,7 C 76 % 1019,6 hPa 0,0 l/m 17,2 kts (5 Bft) S-SW 213 0 min 0,0 UV-I 0 W/m -2,1 C -11,5 C 20,8 kts (5 Bft) 100,00 %
20.01.2022 02:28 1,7 C 76 % 1019,6 hPa 0,0 l/m 20,0 kts (5 Bft) SW 224 0 min 0,0 UV-I 0 W/m -2,1 C -12,8 C 21,7 kts (6 Bft) 100,00 %
20.01.2022 02:27 1,7 C 75 % 1019,5 hPa 0,0 l/m 17,2 kts (5 Bft) SW 232 0 min 0,0 UV-I 0 W/m -2,2 C -11,5 C 21,7 kts (6 Bft) 100,00 %
20.01.2022 02:26 1,7 C 76 % 1019,5 hPa 0,0 l/m 16,7 kts (5 Bft) W-SW 250 0 min 0,0 UV-I 0 W/m -2,1 C -11,3 C 19,1 kts (5 Bft) 100,00 %
20.01.2022 02:25 1,7 C 76 % 1019,6 hPa 0,0 l/m 18,9 kts (5 Bft) SW 221 0 min 0,0 UV-I 0 W/m -2,1 C -12,3 C 24,4 kts (6 Bft) 97,73 %
20.01.2022 02:24 1,7 C 76 % 1019,6 hPa 0,0 l/m 21,8 kts (6 Bft) SW 233 0 min 0,0 UV-I 0 W/m -2,1 C -13,5 C 26,1 kts (6 Bft) 99,04 %
20.01.2022 02:23 1,7 C 76 % 1019,5 hPa 0,0 l/m 16,3 kts (5 Bft) SW 217 0 min 0,0 UV-I 0 W/m -2,1 C -11,1 C 23,5 kts (6 Bft) 100,00 %
20.01.2022 02:22 1,7 C 76 % 1019,6 hPa 0,0 l/m 16,9 kts (5 Bft) W-SW 249 0 min 0,0 UV-I 0 W/m -2,1 C -11,4 C 20,8 kts (5 Bft) 100,00 %
20.01.2022 02:21 1,7 C 76 % 1019,6 hPa 0,0 l/m 19,2 kts (5 Bft) SW 236 0 min 0,0 UV-I 0 W/m -2,1 C -12,5 C 21,7 kts (6 Bft) 100,00 %
20.01.2022 02:20 1,7 C 76 % 1019,6 hPa 0,0 l/m 15,9 kts (5 Bft) SW 218 0 min 0,0 UV-I 0 W/m -2,1 C -10,9 C 20,0 kts (5 Bft) 100,00 %
20.01.2022 02:19 1,7 C 76 % 1019,7 hPa 0,0 l/m 17,9 kts (5 Bft) SW 231 0 min 0,0 UV-I 0 W/m -2,1 C -11,9 C 20,0 kts (5 Bft) 100,00 %
20.01.2022 02:18 1,7 C 75 % 1019,5 hPa 0,0 l/m 16,0 kts (5 Bft) S-SW 205 0 min 0,0 UV-I 0 W/m -2,2 C -10,9 C 20,8 kts (5 Bft) 100,00 %
20.01.2022 02:17 1,7 C 75 % 1019,5 hPa 0,0 l/m 16,7 kts (5 Bft) SW 215 0 min 0,0 UV-I 0 W/m -2,2 C -11,3 C 19,1 kts (5 Bft) 100,00 %
20.01.2022 02:16 1,7 C 75 % 1019,6 hPa 0,0 l/m 16,8 kts (5 Bft) SW 225 0 min 0,0 UV-I 0 W/m -2,2 C -11,3 C 20,0 kts (5 Bft) 98,46 %
20.01.2022 02:15 1,8 C 75 % 1019,6 hPa 0,0 l/m 17,5 kts (5 Bft) SW 234 0 min 0,0 UV-I 0 W/m -2,1 C -11,5 C 19,1 kts (5 Bft) 99,01 %
20.01.2022 02:14 1,8 C 75 % 1019,7 hPa 0,0 l/m 15,4 kts (4 Bft) SW 214 0 min 0,0 UV-I 0 W/m -2,1 C -10,4 C 20,0 kts (5 Bft) 100,00 %
20.01.2022 02:13 1,7 C 75 % 1019,7 hPa 0,0 l/m 18,6 kts (5 Bft) W-SW 239 0 min 0,0 UV-I 0 W/m -2,2 C -12,2 C 21,7 kts (6 Bft) 100,00 %
20.01.2022 02:12 1,8 C 75 % 1019,6 hPa 0,0 l/m 21,3 kts (6 Bft) W-SW 238 0 min 0,0 UV-I 0 W/m -2,1 C -13,1 C 26,1 kts (6 Bft) 100,00 %
20.01.2022 02:11 1,8 C 75 % 1019,6 hPa 0,0 l/m 18,5 kts (5 Bft) SW 229 0 min 0,0 UV-I 0 W/m -2,1 C -12,0 C 24,4 kts (6 Bft) 94,12 %
20.01.2022 02:10 1,8 C 75 % 1019,6 hPa 0,0 l/m 14,5 kts (4 Bft) SW 224 0 min 0,0 UV-I 0 W/m -2,1 C -9,9 C 19,1 kts (5 Bft) 100,00 %
20.01.2022 02:09 1,8 C 75 % 1019,6 hPa 0,0 l/m 15,0 kts (4 Bft) SW 223 0 min 0,0 UV-I 0 W/m -2,1 C -10,2 C 17,4 kts (5 Bft) 100,00 %
20.01.2022 02:08 1,8 C 75 % 1019,6 hPa 0,0 l/m 19,5 kts (5 Bft) W-SW 251 0 min 0,0 UV-I 0 W/m -2,1 C -12,5 C 25,2 kts (6 Bft) 92,86 %
20.01.2022 02:07 1,8 C 75 % 1019,7 hPa 0,0 l/m 21,5 kts (6 Bft) SW 229 0 min 0,0 UV-I 0 W/m -2,1 C -13,2 C 25,2 kts (6 Bft) 96,30 %
20.01.2022 02:06 1,8 C 75 % 1019,7 hPa 0,0 l/m 15,9 kts (5 Bft) SW 230 0 min 0,0 UV-I 0 W/m -2,1 C -10,7 C 20,0 kts (5 Bft) 100,00 %
20.01.2022 02:05 1,8 C 75 % 1019,6 hPa 0,0 l/m 14,7 kts (4 Bft) W-SW 244 0 min 0,0 UV-I 0 W/m -2,1 C -10,0 C 20,0 kts (5 Bft) 100,00 %
20.01.2022 02:04 1,8 C 75 % 1019,7 hPa 0,0 l/m 22,4 kts (6 Bft) SW 227 0 min 0,0 UV-I 0 W/m -2,1 C -13,5 C 26,1 kts (6 Bft) 100,00 %
20.01.2022 02:03 1,8 C 75 % 1019,7 hPa 0,0 l/m 24,5 kts (6 Bft) W-SW 244 0 min 0,0 UV-I 0 W/m -2,1 C -14,2 C 27,8 kts (7 Bft) 100,00 %
20.01.2022 02:02 1,8 C 75 % 1019,8 hPa 0,0 l/m 22,5 kts (6 Bft) SW 226 0 min 0,0 UV-I 0 W/m -2,1 C -13,6 C 27,8 kts (7 Bft) 100,00 %
20.01.2022 02:01 1,8 C 75 % 1019,8 hPa 0,0 l/m 18,2 kts (5 Bft) W-SW 238 0 min 0,0 UV-I 0 W/m -2,1 C -11,9 C 24,4 kts (6 Bft) 99,00 %
20.01.2022 02:00 1,8 C 75 % 1019,8 hPa 0,0 l/m 16,4 kts (5 Bft) W-SW 242 0 min 0,0 UV-I 0 W/m -2,1 C -11,0 C 22,6 kts (6 Bft) 100,00 %
20.01.2022 01:59 1,8 C 75 % 1019,8 hPa 0,0 l/m 25,6 kts (6 Bft) SW 231 0 min 0,0 UV-I 0 W/m -2,1 C -14,5 C 32,1 kts (7 Bft) 100,00 %
20.01.2022 01:58 1,8 C 75 % 1019,8 hPa 0,0 l/m 22,3 kts (6 Bft) SW 229 0 min 0,0 UV-I 0 W/m -2,1 C -13,5 C 24,4 kts (6 Bft) 100,00 %
20.01.2022 01:57 1,8 C 75 % 1019,9 hPa 0,0 l/m 23,3 kts (6 Bft) W 259 0 min 0,0 UV-I 0 W/m -2,1 C -13,8 C 26,1 kts (6 Bft) 100,00 %
20.01.2022 01:56 1,8 C 75 % 1019,9 hPa 0,0 l/m 24,2 kts (6 Bft) SW 229 0 min 0,0 UV-I 0 W/m -2,1 C -14,1 C 27,8 kts (7 Bft) 100,00 %
20.01.2022 01:55 1,8 C 75 % 1019,9 hPa 0,0 l/m 18,4 kts (5 Bft) SW 223 0 min 0,0 UV-I 0 W/m -2,1 C -11,9 C 26,9 kts (6 Bft) 100,00 %
20.01.2022 01:54 1,8 C 75 % 1020,0 hPa 0,0 l/m 18,8 kts (5 Bft) W-SW 241 0 min 0,0 UV-I 0 W/m -2,1 C -12,2 C 21,7 kts (6 Bft) 95,83 %
20.01.2022 01:53 1,8 C 75 % 1020,0 hPa 0,0 l/m 23,2 kts (6 Bft) SW 229 0 min 0,0 UV-I 0 W/m -2,1 C -13,8 C 26,1 kts (6 Bft) 100,00 %
20.01.2022 01:52 1,8 C 75 % 1019,9 hPa 0,0 l/m 23,2 kts (6 Bft) W-SW 243 0 min 0,0 UV-I 0 W/m -2,1 C -13,8 C 28,7 kts (7 Bft) 100,00 %
20.01.2022 01:51 1,8 C 75 % 1019,9 hPa 0,0 l/m 20,6 kts (5 Bft) W-SW 237 0 min 0,0 UV-I 0 W/m -2,1 C -12,9 C 26,1 kts (6 Bft) 98,94 %
20.01.2022 01:50 1,8 C 75 % 1020,0 hPa 0,0 l/m 24,3 kts (6 Bft) SW 236 0 min 0,0 UV-I 0 W/m -2,1 C -14,2 C 27,8 kts (7 Bft) 100,00 %
20.01.2022 01:49 1,8 C 75 % 1019,9 hPa 0,0 l/m 18,6 kts (5 Bft) SW 229 0 min 0,0 UV-I 0 W/m -2,1 C -12,1 C 26,1 kts (6 Bft) 100,00 %
20.01.2022 01:48 1,8 C 75 % 1019,9 hPa 0,0 l/m 15,7 kts (5 Bft) SW 234 0 min 0,0 UV-I 0 W/m -2,1 C -10,6 C 20,0 kts (5 Bft) 100,00 %
20.01.2022 01:47 1,8 C 75 % 1019,9 hPa 0,0 l/m 23,9 kts (6 Bft) SW 223 0 min 0,0 UV-I 0 W/m -2,1 C -14,0 C 26,9 kts (6 Bft) 100,00 %
20.01.2022 01:46 1,8 C 75 % 1019,9 hPa 0,0 l/m 17,1 kts (5 Bft) SW 236 0 min 0,0 UV-I 0 W/m -2,1 C -11,3 C 25,2 kts (6 Bft) 100,00 %
20.01.2022 01:45 1,8 C 75 % 1019,9 hPa 0,0 l/m 14,6 kts (4 Bft) SW 235 0 min 0,0 UV-I 0 W/m -2,1 C -10,0 C 21,7 kts (6 Bft) 96,15 %
20.01.2022 01:44 1,8 C 75 % 1020,0 hPa 0,0 l/m 20,9 kts (5 Bft) SW 234 0 min 0,0 UV-I 0 W/m -2,1 C -13,0 C 26,1 kts (6 Bft) 95,83 %
20.01.2022 01:43 1,8 C 75 % 1020,0 hPa 0,0 l/m 23,4 kts (6 Bft) SW 234 0 min 0,0 UV-I 0 W/m -2,1 C -13,9 C 29,5 kts (7 Bft) 97,87 %
20.01.2022 01:42 1,8 C 75 % 1019,9 hPa 0,0 l/m 20,6 kts (5 Bft) W 265 0 min 0,0 UV-I 0 W/m -2,1 C -12,9 C 24,4 kts (6 Bft) 98,98 %
20.01.2022 01:41 1,8 C 75 % 1019,9 hPa 0,0 l/m 15,4 kts (4 Bft) W-SW 249 0 min 0,0 UV-I 0 W/m -2,1 C -10,5 C 18,3 kts (5 Bft) 100,00 %
20.01.2022 01:40 1,8 C 75 % 1019,9 hPa 0,0 l/m 19,1 kts (5 Bft) SW 224 0 min 0,0 UV-I 0 W/m -2,1 C -12,3 C 23,5 kts (6 Bft) 96,55 %
20.01.2022 01:39 1,8 C 75 % 1019,9 hPa 0,0 l/m 15,7 kts (5 Bft) S-SW 197 0 min 0,0 UV-I 0 W/m -2,1 C -10,6 C 20,0 kts (5 Bft) 100,00 %
20.01.2022 01:38 1,9 C 75 % 1019,9 hPa 0,0 l/m 17,7 kts (5 Bft) S-SW 212 0 min 0,0 UV-I 0 W/m -2,1 C -11,5 C 20,8 kts (5 Bft) 96,15 %
20.01.2022 01:37 1,8 C 75 % 1019,9 hPa 0,0 l/m 21,0 kts (6 Bft) W-SW 242 0 min 0,0 UV-I 0 W/m -2,1 C -13,0 C 25,2 kts (6 Bft) 100,00 %
20.01.2022 01:36 1,9 C 75 % 1019,9 hPa 0,0 l/m 11,9 kts (4 Bft) SW 232 0 min 0,0 UV-I 0 W/m -2,1 C -8,0 C 19,1 kts (5 Bft) 100,00 %
20.01.2022 01:35 1,9 C 75 % 1019,9 hPa 0,0 l/m 13,3 kts (4 Bft) W-SW 254 0 min 0,0 UV-I 0 W/m -2,1 C -9,0 C 18,3 kts (5 Bft) 96,15 %
20.01.2022 01:34 1,9 C 75 % 1019,9 hPa 0,0 l/m 18,5 kts (5 Bft) W-SW 257 0 min 0,0 UV-I 0 W/m -2,1 C -11,9 C 26,1 kts (6 Bft) 96,30 %
20.01.2022 01:33 1,9 C 75 % 1019,8 hPa 0,0 l/m 20,2 kts (5 Bft) W-SW 252 0 min 0,0 UV-I 0 W/m -2,1 C -12,6 C 24,4 kts (6 Bft) 95,65 %
20.01.2022 01:32 1,9 C 75 % 1019,8 hPa 0,0 l/m 22,1 kts (6 Bft) SW 219 0 min 0,0 UV-I 0 W/m -2,1 C -13,3 C 27,8 kts (7 Bft) 100,00 %
20.01.2022 01:31 1,9 C 75 % 1019,9 hPa 0,0 l/m 18,7 kts (5 Bft) SW 217 0 min 0,0 UV-I 0 W/m -2,1 C -12,0 C 25,2 kts (6 Bft) 97,14 %
20.01.2022 01:30 1,9 C 75 % 1019,8 hPa 0,0 l/m 18,9 kts (5 Bft) SW 225 0 min 0,0 UV-I 0 W/m -2,1 C -12,0 C 24,4 kts (6 Bft) 100,00 %
20.01.2022 01:29 1,9 C 74 % 1019,8 hPa 0,0 l/m 14,1 kts (4 Bft) W-SW 248 0 min 0,0 UV-I 0 W/m -2,2 C -9,6 C 18,3 kts (5 Bft) 95,65 %
20.01.2022 01:28 1,9 C 74 % 1019,8 hPa 0,0 l/m 13,1 kts (4 Bft) W 259 0 min 0,0 UV-I 0 W/m -2,2 C -8,9 C 19,1 kts (5 Bft) 100,00 %
20.01.2022 01:27 1,9 C 74 % 1019,9 hPa 0,0 l/m 14,1 kts (4 Bft) W 259 0 min 0,0 UV-I 0 W/m -2,2 C -9,6 C 17,4 kts (5 Bft) 96,67 %
20.01.2022 01:26 1,9 C 74 % 1019,9 hPa 0,0 l/m 17,1 kts (5 Bft) W-SW 237 0 min 0,0 UV-I 0 W/m -2,2 C -11,2 C 22,6 kts (6 Bft) 95,00 %
20.01.2022 01:25 1,9 C 74 % 1019,9 hPa 0,0 l/m 16,4 kts (5 Bft) SW 223 0 min 0,0 UV-I 0 W/m -2,2 C -10,8 C 19,1 kts (5 Bft) 100,00 %
20.01.2022 01:24 1,9 C 74 % 1019,9 hPa 0,0 l/m 11,9 kts (4 Bft) W-SW 249 0 min 0,0 UV-I 0 W/m -2,2 C -8,0 C 15,7 kts (5 Bft) 100,00 %
20.01.2022 01:23 1,9 C 74 % 1020,0 hPa 0,0 l/m 16,8 kts (5 Bft) W-SW 246 0 min 0,0 UV-I 0 W/m -2,2 C -11,1 C 20,8 kts (5 Bft) 100,00 %
20.01.2022 01:22 1,9 C 74 % 1019,9 hPa 0,0 l/m 19,9 kts (5 Bft) SW 235 0 min 0,0 UV-I 0 W/m -2,2 C -12,5 C 22,6 kts (6 Bft) 100,00 %
20.01.2022 01:21 1,9 C 74 % 1019,9 hPa 0,0 l/m 15,5 kts (4 Bft) SW 228 0 min 0,0 UV-I 0 W/m -2,2 C -10,4 C 18,3 kts (5 Bft) 95,00 %
20.01.2022 01:20 1,9 C 74 % 1019,9 hPa 0,0 l/m 24,6 kts (6 Bft) W-SW 240 0 min 0,0 UV-I 0 W/m -2,2 C -14,1 C 30,4 kts (7 Bft) 100,00 %
20.01.2022 01:19 1,9 C 74 % 1019,9 hPa 0,0 l/m 16,4 kts (5 Bft) W-SW 257 0 min 0,0 UV-I 0 W/m -2,2 C -10,8 C 20,0 kts (5 Bft) 100,00 %
20.01.2022 01:18 1,9 C 74 % 1019,9 hPa 0,0 l/m 15,8 kts (5 Bft) W-SW 245 0 min 0,0 UV-I 0 W/m -2,2 C -10,5 C 21,7 kts (6 Bft) 100,00 %
20.01.2022 01:17 2,0 C 74 % 1019,9 hPa 0,0 l/m 16,4 kts (5 Bft) W-SW 252 0 min 0,0 UV-I 0 W/m -2,1 C -10,7 C 21,7 kts (6 Bft) 100,00 %
20.01.2022 01:15 1,9 C 74 % 1019,8 hPa 0,0 l/m 18,8 kts (5 Bft) W-SW 248 0 min 0,0 UV-I 0 W/m -2,2 C -12,0 C 25,2 kts (6 Bft) 100,00 %
20.01.2022 01:14 2,0 C 74 % 1019,9 hPa 0,0 l/m 20,6 kts (5 Bft) W-SW 253 0 min 0,0 UV-I 0 W/m -2,1 C -12,6 C 23,5 kts (6 Bft) 100,00 %
20.01.2022 01:13 2,0 C 74 % 1019,8 hPa 0,0 l/m 12,9 kts (4 Bft) SW 234 0 min 0,0 UV-I 0 W/m -2,1 C -8,6 C 18,3 kts (5 Bft) 100,00 %
20.01.2022 01:12 2,0 C 74 % 1019,7 hPa 0,0 l/m 17,2 kts (5 Bft) W-SW 251 0 min 0,0 UV-I 0 W/m -2,1 C -11,1 C 22,6 kts (6 Bft) 100,00 %
20.01.2022 01:11 2,0 C 74 % 1019,9 hPa 0,0 l/m 18,5 kts (5 Bft) SW 234 0 min 0,0 UV-I 0 W/m -2,1 C -11,7 C 24,4 kts (6 Bft) 100,00 %
20.01.2022 01:10 2,0 C 74 % 1019,9 hPa 0,0 l/m 17,5 kts (5 Bft) W-SW 252 0 min 0,0 UV-I 0 W/m -2,1 C -11,3 C 23,5 kts (6 Bft) 100,00 %
20.01.2022 01:09 2,0 C 74 % 1019,8 hPa 0,0 l/m 22,1 kts (6 Bft) W-SW 242 0 min 0,0 UV-I 0 W/m -2,1 C -13,2 C 24,4 kts (6 Bft) 100,00 %
20.01.2022 01:08 2,0 C 74 % 1019,9 hPa 0,0 l/m 25,5 kts (6 Bft) SW 229 0 min 0,0 UV-I 0 W/m -2,1 C -14,2 C 31,3 kts (7 Bft) 100,00 %
20.01.2022 01:07 2,0 C 74 % 1019,8 hPa 0,0 l/m 15,9 kts (5 Bft) SW 232 0 min 0,0 UV-I 0 W/m -2,1 C -10,4 C 26,1 kts (6 Bft) 100,00 %
20.01.2022 01:06 2,0 C 74 % 1019,8 hPa 0,0 l/m 15,1 kts (4 Bft) W-SW 247 0 min 0,0 UV-I 0 W/m -2,1 C -10,0 C 23,5 kts (6 Bft) 100,00 %
20.01.2022 01:05 2,0 C 74 % 1019,7 hPa 0,0 l/m 22,9 kts (6 Bft) W-SW 240 0 min 0,0 UV-I 0 W/m -2,1 C -13,4 C 28,7 kts (7 Bft) 100,00 %
20.01.2022 01:04 2,0 C 74 % 1019,8 hPa 0,0 l/m 23,2 kts (6 Bft) SW 218 0 min 0,0 UV-I 0 W/m -2,1 C -13,5 C 30,4 kts (7 Bft) 100,00 %
20.01.2022 01:03 2,0 C 74 % 1019,7 hPa 0,0 l/m 20,8 kts (5 Bft) W-SW 245 0 min 0,0 UV-I 0 W/m -2,1 C -12,7 C 28,7 kts (7 Bft) 100,00 %
20.01.2022 01:02 2,0 C 74 % 1019,7 hPa 0,0 l/m 24,2 kts (6 Bft) SW 234 0 min 0,0 UV-I 0 W/m -2,1 C -13,8 C 30,4 kts (7 Bft) 100,00 %
20.01.2022 01:01 2,0 C 74 % 1019,6 hPa 0,0 l/m 17,9 kts (5 Bft) W-SW 241 0 min 0,0 UV-I 0 W/m -2,1 C -11,4 C 20,8 kts (5 Bft) 100,00 %
20.01.2022 01:00 2,1 C 74 % 1019,8 hPa 0,0 l/m 23,3 kts (6 Bft) SW 234 0 min 0,0 UV-I 0 W/m -2,0 C -13,4 C 28,7 kts (7 Bft) 100,00 %
20.01.2022 00:59 2,1 C 74 % 1019,6 hPa 0,0 l/m 22,6 kts (6 Bft) SW 236 0 min 0,0 UV-I 0 W/m -2,0 C -13,2 C 24,4 kts (6 Bft) 100,00 %
20.01.2022 00:58 2,1 C 74 % 1019,6 hPa 0,0 l/m 18,8 kts (5 Bft) SW 235 0 min 0,0 UV-I 0 W/m -2,0 C -11,7 C 23,5 kts (6 Bft) 100,00 %
20.01.2022 00:57 2,1 C 74 % 1019,6 hPa 0,0 l/m 25,8 kts (6 Bft) W-SW 244 0 min 0,0 UV-I 0 W/m -2,0 C -14,1 C 32,1 kts (7 Bft) 100,00 %
20.01.2022 00:56 2,1 C 74 % 1019,5 hPa 0,0 l/m 25,2 kts (6 Bft) SW 234 0 min 0,0 UV-I 0 W/m -2,0 C -14,0 C 31,3 kts (7 Bft) 100,00 %
20.01.2022 00:55 2,1 C 74 % 1019,6 hPa 0,0 l/m 21,7 kts (6 Bft) W-SW 241 0 min 0,0 UV-I 0 W/m -2,0 C -12,9 C 26,9 kts (6 Bft) 100,00 %
20.01.2022 00:54 2,1 C 74 % 1019,6 hPa 0,0 l/m 22,0 kts (6 Bft) W-SW 248 0 min 0,0 UV-I 0 W/m -2,0 C -13,0 C 26,9 kts (6 Bft) 95,65 %
20.01.2022 00:53 2,1 C 74 % 1019,7 hPa 0,0 l/m 23,7 kts (6 Bft) W-SW 238 0 min 0,0 UV-I 0 W/m -2,0 C -13,5 C 28,7 kts (7 Bft) 100,00 %
20.01.2022 00:52 2,1 C 74 % 1019,7 hPa 0,0 l/m 25,6 kts (6 Bft) W-SW 251 0 min 0,0 UV-I 0 W/m -2,0 C -14,1 C 33,0 kts (7 Bft) 100,00 %
20.01.2022 00:50 2,1 C 74 % 1019,7 hPa 0,0 l/m 23,5 kts (6 Bft) SW 231 0 min 0,0 UV-I 0 W/m -2,0 C -13,5 C 26,9 kts (6 Bft) 100,00 %
20.01.2022 00:49 2,1 C 74 % 1019,6 hPa 0,0 l/m 24,5 kts (6 Bft) W-SW 240 0 min 0,0 UV-I 0 W/m -2,0 C -13,8 C 27,8 kts (7 Bft) 100,00 %
20.01.2022 00:48 2,1 C 73 % 1019,7 hPa 0,0 l/m 19,4 kts (5 Bft) SW 227 0 min 0,0 UV-I 0 W/m -2,2 C -12,0 C 23,5 kts (6 Bft) 100,00 %
20.01.2022 00:47 2,1 C 73 % 1019,7 hPa 0,0 l/m 17,0 kts (5 Bft) SW 230 0 min 0,0 UV-I 0 W/m -2,2 C -10,8 C 22,6 kts (6 Bft) 95,83 %
20.01.2022 00:46 2,1 C 73 % 1019,7 hPa 0,0 l/m 23,7 kts (6 Bft) SW 223 0 min 0,0 UV-I 0 W/m -2,2 C -13,5 C 30,4 kts (7 Bft) 100,00 %
20.01.2022 00:45 2,1 C 73 % 1019,6 hPa 0,0 l/m 27,2 kts (7 Bft) SW 235 0 min 0,0 UV-I 0 W/m -2,2 C -14,5 C 30,4 kts (7 Bft) 100,00 %
20.01.2022 00:44 2,1 C 73 % 1019,7 hPa 0,0 l/m 24,2 kts (6 Bft) SW 225 0 min 0,0 UV-I 0 W/m -2,2 C -13,7 C 30,4 kts (7 Bft) 100,00 %
20.01.2022 00:43 2,1 C 73 % 1019,7 hPa 0,0 l/m 22,4 kts (6 Bft) SW 221 0 min 0,0 UV-I 0 W/m -2,2 C -13,1 C 25,2 kts (6 Bft) 100,00 %
20.01.2022 00:42 2,2 C 73 % 1019,6 hPa 0,0 l/m 21,2 kts (6 Bft) SW 216 0 min 0,0 UV-I 0 W/m -2,1 C -12,5 C 27,8 kts (7 Bft) 100,00 %
20.01.2022 00:41 2,2 C 73 % 1019,6 hPa 0,0 l/m 22,4 kts (6 Bft) S-SW 208 0 min 0,0 UV-I 0 W/m -2,1 C -13,0 C 27,8 kts (7 Bft) 100,00 %
20.01.2022 00:40 2,2 C 73 % 1019,7 hPa 0,0 l/m 23,8 kts (6 Bft) SW 215 0 min 0,0 UV-I 0 W/m -2,1 C -13,4 C 32,1 kts (7 Bft) 100,00 %
20.01.2022 00:39 2,2 C 73 % 1019,6 hPa 0,0 l/m 18,2 kts (5 Bft) W-SW 250 0 min 0,0 UV-I 0 W/m -2,1 C -11,3 C 22,6 kts (6 Bft) 100,00 %
20.01.2022 00:38 2,2 C 73 % 1019,6 hPa 0,0 l/m 16,8 kts (5 Bft) W 265 0 min 0,0 UV-I 0 W/m -2,1 C -10,6 C 20,0 kts (5 Bft) 100,00 %
20.01.2022 00:37 2,2 C 73 % 1019,7 hPa 0,0 l/m 21,4 kts (6 Bft) W-SW 257 0 min 0,0 UV-I 0 W/m -2,1 C -12,6 C 27,8 kts (7 Bft) 100,00 %
20.01.2022 00:36 2,2 C 73 % 1019,6 hPa 0,0 l/m 22,4 kts (6 Bft) S-SW 210 0 min 0,0 UV-I 0 W/m -2,1 C -13,0 C 26,9 kts (6 Bft) 100,00 %
20.01.2022 00:35 2,2 C 73 % 1019,6 hPa 0,0 l/m 25,7 kts (6 Bft) W-SW 242 0 min 0,0 UV-I 0 W/m -2,1 C -14,0 C 33,0 kts (7 Bft) 100,00 %
20.01.2022 00:34 2,2 C 73 % 1019,6 hPa 0,0 l/m 22,6 kts (6 Bft) W-SW 240 0 min 0,0 UV-I 0 W/m -2,1 C -13,0 C 30,4 kts (7 Bft) 96,30 %
20.01.2022 00:33 2,2 C 73 % 1019,6 hPa 0,0 l/m 26,0 kts (6 Bft) SW 232 0 min 0,0 UV-I 0 W/m -2,1 C -14,0 C 30,4 kts (7 Bft) 100,00 %
20.01.2022 00:32 2,2 C 73 % 1019,9 hPa 0,0 l/m 28,9 kts (7 Bft) SW 225 0 min 0,0 UV-I 0 W/m -2,1 C -14,7 C 35,6 kts (8 Bft) 100,00 %
20.01.2022 00:31 2,2 C 73 % 1019,9 hPa 0,0 l/m 27,5 kts (7 Bft) W-SW 243 0 min 0,0 UV-I 0 W/m -2,1 C -14,4 C 34,8 kts (8 Bft) 100,00 %
20.01.2022 00:30 2,2 C 73 % 1019,7 hPa 0,0 l/m 24,3 kts (6 Bft) W-SW 250 0 min 0,0 UV-I 0 W/m -2,1 C -13,6 C 30,4 kts (7 Bft) 100,00 %
20.01.2022 00:29 2,2 C 73 % 1019,8 hPa 0,0 l/m 17,8 kts (5 Bft) W-SW 242 0 min 0,0 UV-I 0 W/m -2,1 C -11,1 C 24,4 kts (6 Bft) 100,00 %
20.01.2022 00:28 2,2 C 73 % 1019,6 hPa 0,0 l/m 21,4 kts (6 Bft) W-SW 246 0 min 0,0 UV-I 0 W/m -2,1 C -12,6 C 26,1 kts (6 Bft) 100,00 %
20.01.2022 00:27 2,2 C 73 % 1019,6 hPa 0,0 l/m 26,0 kts (6 Bft) W-SW 250 0 min 0,0 UV-I 0 W/m -2,1 C -14,0 C 33,9 kts (8 Bft) 96,61 %
20.01.2022 00:25 2,2 C 73 % 1019,5 hPa 0,0 l/m 21,6 kts (6 Bft) SW 225 0 min 0,0 UV-I 0 W/m -2,1 C -12,7 C 31,3 kts (7 Bft) 100,00 %
20.01.2022 00:24 2,2 C 73 % 1019,5 hPa 0,0 l/m 27,4 kts (7 Bft) SW 220 0 min 0,0 UV-I 0 W/m -2,1 C -14,4 C 32,1 kts (7 Bft) 100,00 %
20.01.2022 00:23 2,2 C 72 % 1019,5 hPa 0,0 l/m 33,3 kts (7 Bft) W 261 0 min 0,0 UV-I 0 W/m -2,3 C -15,5 C 39,1 kts (8 Bft) 92,86 %
20.01.2022 00:22 2,2 C 72 % 1019,2 hPa 0,0 l/m 28,7 kts (7 Bft) W-SW 246 0 min 0,0 UV-I 0 W/m -2,3 C -14,7 C 37,4 kts (8 Bft) 100,00 %
20.01.2022 00:21 2,2 C 72 % 1019,2 hPa 0,0 l/m 28,1 kts (7 Bft) SW 229 0 min 0,0 UV-I 0 W/m -2,3 C -14,5 C 33,9 kts (8 Bft) 95,65 %
20.01.2022 00:20 2,2 C 72 % 1019,4 hPa 0,0 l/m 26,6 kts (6 Bft) SW 229 0 min 0,0 UV-I 0 W/m -2,3 C -14,2 C 34,8 kts (8 Bft) 100,00 %
20.01.2022 00:19 2,2 C 73 % 1019,3 hPa 0,0 l/m 24,6 kts (6 Bft) SW 225 0 min 0,0 UV-I 0 W/m -2,1 C -13,6 C 31,3 kts (7 Bft) 95,65 %
20.01.2022 00:18 2,3 C 72 % 1019,3 hPa 0,0 l/m 26,7 kts (6 Bft) SW 225 0 min 0,0 UV-I 0 W/m -2,2 C -14,1 C 29,5 kts (7 Bft) 100,00 %
20.01.2022 00:17 2,3 C 72 % 1019,3 hPa 0,0 l/m 28,1 kts (7 Bft) W-SW 238 0 min 0,0 UV-I 0 W/m -2,2 C -14,4 C 33,9 kts (8 Bft) 96,15 %
20.01.2022 00:16 2,3 C 72 % 1019,3 hPa 0,0 l/m 27,2 kts (7 Bft) W-SW 242 0 min 0,0 UV-I 0 W/m -2,2 C -14,2 C 31,3 kts (7 Bft) 97,37 %
20.01.2022 00:15 2,3 C 72 % 1019,5 hPa 0,0 l/m 30,5 kts (7 Bft) SW 235 0 min 0,0 UV-I 0 W/m -2,2 C -14,9 C 33,9 kts (8 Bft) 100,00 %
20.01.2022 00:14 2,3 C 72 % 1019,4 hPa 0,0 l/m 27,2 kts (7 Bft) SW 236 0 min 0,0 UV-I 0 W/m -2,2 C -14,2 C 37,4 kts (8 Bft) 100,00 %
20.01.2022 00:13 2,3 C 73 % 1019,5 hPa 0,0 l/m 28,7 kts (7 Bft) W-SW 239 0 min 0,0 UV-I 0 W/m -2,0 C -14,5 C 35,6 kts (8 Bft) 95,83 %
20.01.2022 00:12 2,3 C 72 % 1019,5 hPa 0,0 l/m 26,0 kts (6 Bft) SW 225 0 min 0,0 UV-I 0 W/m -2,2 C -13,9 C 32,1 kts (7 Bft) 100,00 %
20.01.2022 00:11 2,3 C 72 % 1019,5 hPa 0,0 l/m 23,7 kts (6 Bft) W-SW 237 0 min 0,0 UV-I 0 W/m -2,2 C -13,2 C 26,9 kts (6 Bft) 95,83 %
20.01.2022 00:10 2,3 C 72 % 1019,6 hPa 0,0 l/m 27,0 kts (6 Bft) W-SW 247 0 min 0,0 UV-I 0 W/m -2,2 C -14,1 C 32,1 kts (7 Bft) 100,00 %
20.01.2022 00:09 2,3 C 73 % 1019,6 hPa 0,0 l/m 32,8 kts (7 Bft) W-SW 240 0 min 0,0 UV-I 0 W/m -2,0 C -15,3 C 38,2 kts (8 Bft) 95,83 %
20.01.2022 00:08 2,3 C 72 % 1019,7 hPa 0,0 l/m 26,2 kts (6 Bft) W-SW 248 0 min 0,0 UV-I 0 W/m -2,2 C -13,9 C 33,9 kts (8 Bft) 100,00 %
20.01.2022 00:07 2,3 C 72 % 1019,7 hPa 0,0 l/m 26,7 kts (6 Bft) W-SW 242 0 min 0,0 UV-I 0 W/m -2,2 C -14,1 C 39,1 kts (8 Bft) 100,00 %
20.01.2022 00:05 2,3 C 73 % 1019,7 hPa 0,0 l/m 29,7 kts (7 Bft) W-SW 238 0 min 0,0 UV-I 0 W/m -2,0 C -14,7 C 35,6 kts (8 Bft) 100,00 %
20.01.2022 00:04 2,3 C 73 % 1019,7 hPa 0,0 l/m 24,6 kts (6 Bft) SW 233 0 min 0,0 UV-I 0 W/m -2,0 C -13,5 C 29,5 kts (7 Bft) 100,00 %
20.01.2022 00:03 2,3 C 73 % 1019,7 hPa 0,0 l/m 31,2 kts (7 Bft) W-SW 249 0 min 0,0 UV-I 0 W/m -2,0 C -15,0 C 33,0 kts (7 Bft) 100,00 %
20.01.2022 00:02 2,3 C 73 % 1019,6 hPa 0,0 l/m 26,8 kts (6 Bft) SW 236 0 min 0,0 UV-I 0 W/m -2,0 C -14,1 C 33,0 kts (7 Bft) 100,00 %
20.01.2022 00:01 2,3 C 72 % 1019,7 hPa 0,0 l/m 26,7 kts (6 Bft) W 268 0 min 0,0 UV-I 0 W/m -2,2 C -14,1 C 29,5 kts (7 Bft) 95,24 %
20.01.2022 00:00 2,3 C 73 % 1019,7 hPa 0,0 l/m 28,2 kts (7 Bft) W-SW 248 0 min 0,0 UV-I 0 W/m -2,0 C -14,4 C 35,6 kts (8 Bft) 100,00 %
19.01.2022 23:59 2,2 C 73 % 1019,7 hPa 0,0 l/m 29,4 kts (7 Bft) SW 232 0 min 0,0 UV-I 0 W/m -2,1 C -14,8 C 37,4 kts (8 Bft) 92,59 %
19.01.2022 23:58 2,3 C 73 % 1019,7 hPa 0,0 l/m 26,1 kts (6 Bft) W-SW 242 0 min 0,0 UV-I 0 W/m -2,0 C -13,9 C 31,3 kts (7 Bft) 100,00 %
19.01.2022 23:57 2,3 C 73 % 1019,8 hPa 0,0 l/m 24,0 kts (6 Bft) SW 232 0 min 0,0 UV-I 0 W/m -2,0 C -13,3 C 27,8 kts (7 Bft) 100,00 %
19.01.2022 23:56 2,3 C 73 % 1019,9 hPa 0,0 l/m 21,1 kts (6 Bft) W-SW 242 0 min 0,0 UV-I 0 W/m -2,0 C -12,3 C 27,8 kts (7 Bft) 100,00 %
19.01.2022 23:55 2,3 C 73 % 1019,9 hPa 0,0 l/m 24,0 kts (6 Bft) W-SW 250 0 min 0,0 UV-I 0 W/m -2,0 C -13,3 C 26,1 kts (6 Bft) 95,24 %
19.01.2022 23:54 2,3 C 73 % 1019,8 hPa 0,0 l/m 21,5 kts (6 Bft) W 269 0 min 0,0 UV-I 0 W/m -2,0 C -12,5 C 26,9 kts (6 Bft) 100,00 %
19.01.2022 23:53 2,3 C 73 % 1019,8 hPa 0,0 l/m 24,3 kts (6 Bft) SW 236 0 min 0,0 UV-I 0 W/m -2,0 C -13,4 C 27,8 kts (7 Bft) 100,00 %
19.01.2022 23:52 2,3 C 73 % 1019,9 hPa 0,0 l/m 20,8 kts (5 Bft) W-SW 242 0 min 0,0 UV-I 0 W/m -2,0 C -12,2 C 26,1 kts (6 Bft) 96,15 %
19.01.2022 23:51 2,3 C 73 % 1019,9 hPa 0,0 l/m 17,9 kts (5 Bft) W-SW 251 0 min 0,0 UV-I 0 W/m -2,0 C -11,0 C 21,7 kts (6 Bft) 100,00 %
19.01.2022 23:50 2,3 C 73 % 1019,9 hPa 0,0 l/m 16,8 kts (5 Bft) SW 236 0 min 0,0 UV-I 0 W/m -2,0 C -10,5 C 21,7 kts (6 Bft) 100,00 %
19.01.2022 23:49 2,3 C 73 % 1019,9 hPa 0,0 l/m 20,7 kts (5 Bft) SW 230 0 min 0,0 UV-I 0 W/m -2,0 C -12,2 C 25,2 kts (6 Bft) 100,00 %
19.01.2022 23:48 2,3 C 73 % 1020,0 hPa 0,0 l/m 25,5 kts (6 Bft) W-SW 238 0 min 0,0 UV-I 0 W/m -2,0 C -13,7 C 30,4 kts (7 Bft) 100,00 %
19.01.2022 23:47 2,3 C 73 % 1020,0 hPa 0,0 l/m 23,5 kts (6 Bft) W 277 0 min 0,0 UV-I 0 W/m -2,0 C -13,2 C 31,3 kts (7 Bft) 100,00 %
19.01.2022 23:46 2,3 C 73 % 1020,0 hPa 0,0 l/m 29,5 kts (7 Bft) W-SW 252 0 min 0,0 UV-I 0 W/m -2,0 C -14,7 C 34,8 kts (8 Bft) 100,00 %
19.01.2022 23:45 2,3 C 73 % 1020,0 hPa 0,0 l/m 25,2 kts (6 Bft) W-SW 238 0 min 0,0 UV-I 0 W/m -2,0 C -13,7 C 35,6 kts (8 Bft) 97,56 %
19.01.2022 23:44 2,3 C 73 % 1019,9 hPa 0,0 l/m 26,6 kts (6 Bft) W-SW 244 0 min 0,0 UV-I 0 W/m -2,0 C -14,0 C 32,1 kts (7 Bft) 100,00 %
19.01.2022 23:43 2,3 C 73 % 1019,9 hPa 0,0 l/m 25,0 kts (6 Bft) W-SW 252 0 min 0,0 UV-I 0 W/m -2,0 C -13,6 C 31,3 kts (7 Bft) 100,00 %
19.01.2022 23:42 2,3 C 73 % 1019,9 hPa 0,0 l/m 21,5 kts (6 Bft) W-SW 240 0 min 0,0 UV-I 0 W/m -2,0 C -12,5 C 26,9 kts (6 Bft) 100,00 %
19.01.2022 23:41 2,3 C 73 % 1020,0 hPa 0,0 l/m 23,5 kts (6 Bft) W-SW 245 0 min 0,0 UV-I 0 W/m -2,0 C -13,2 C 33,0 kts (7 Bft) 95,83 %
19.01.2022 23:40 2,3 C 73 % 1020,0 hPa 0,0 l/m 19,8 kts (5 Bft) W-SW 256 0 min 0,0 UV-I 0 W/m -2,0 C -11,8 C 24,4 kts (6 Bft) 96,15 %
19.01.2022 23:39 2,3 C 73 % 1020,0 hPa 0,0 l/m 25,4 kts (6 Bft) W-SW 238 0 min 0,0 UV-I 0 W/m -2,0 C -13,7 C 30,4 kts (7 Bft) 100,00 %
19.01.2022 23:38 2,3 C 73 % 1020,0 hPa 0,0 l/m 22,7 kts (6 Bft) SW 236 0 min 0,0 UV-I 0 W/m -2,0 C -12,9 C 32,1 kts (7 Bft) 100,00 %
19.01.2022 23:37 2,3 C 73 % 1020,0 hPa 0,0 l/m 24,0 kts (6 Bft) W-SW 246 0 min 0,0 UV-I 0 W/m -2,0 C -13,3 C 34,8 kts (8 Bft) 100,00 %
19.01.2022 23:35 2,3 C 73 % 1020,0 hPa 0,0 l/m 24,1 kts (6 Bft) W-SW 246 0 min 0,0 UV-I 0 W/m -2,0 C -13,4 C 29,5 kts (7 Bft) 96,30 %
19.01.2022 23:34 2,3 C 73 % 1020,0 hPa 0,0 l/m 26,6 kts (6 Bft) W-SW 244 0 min 0,0 UV-I 0 W/m -2,0 C -14,0 C 31,3 kts (7 Bft) 100,00 %
19.01.2022 23:33 2,3 C 73 % 1020,1 hPa 0,0 l/m 24,6 kts (6 Bft) W-SW 239 0 min 0,0 UV-I 0 W/m -2,0 C -13,5 C 29,5 kts (7 Bft) 100,00 %
19.01.2022 23:32 2,3 C 73 % 1020,1 hPa 0,0 l/m 19,2 kts (5 Bft) W-SW 254 0 min 0,0 UV-I 0 W/m -2,0 C -11,6 C 21,7 kts (6 Bft) 100,00 %
19.01.2022 23:31 2,3 C 73 % 1020,1 hPa 0,0 l/m 20,3 kts (5 Bft) SW 221 0 min 0,0 UV-I 0 W/m -2,0 C -12,0 C 25,2 kts (6 Bft) 98,90 %
19.01.2022 23:30 2,3 C 73 % 1020,1 hPa 0,0 l/m 20,0 kts (5 Bft) W-SW 246 0 min 0,0 UV-I 0 W/m -2,0 C -11,9 C 26,9 kts (6 Bft) 100,00 %
19.01.2022 23:29 2,2 C 73 % 1020,2 hPa 0,0 l/m 17,9 kts (5 Bft) W-SW 257 0 min 0,0 UV-I 0 W/m -2,1 C -11,2 C 21,7 kts (6 Bft) 96,55 %
19.01.2022 23:28 2,2 C 73 % 1020,2 hPa 0,0 l/m 22,1 kts (6 Bft) SW 234 0 min 0,0 UV-I 0 W/m -2,1 C -12,8 C 30,4 kts (7 Bft) 100,00 %
19.01.2022 23:27 2,2 C 74 % 1020,2 hPa 0,0 l/m 22,4 kts (6 Bft) SW 229 0 min 0,0 UV-I 0 W/m -1,9 C -12,9 C 31,3 kts (7 Bft) 98,31 %
19.01.2022 23:25 2,2 C 74 % 1020,3 hPa 0,0 l/m 17,7 kts (5 Bft) SW 222 0 min 0,0 UV-I 0 W/m -1,9 C -11,1 C 21,7 kts (6 Bft) 100,00 %
19.01.2022 23:24 2,2 C 74 % 1020,2 hPa 0,0 l/m 21,0 kts (5 Bft) W-SW 246 0 min 0,0 UV-I 0 W/m -1,9 C -12,4 C 25,2 kts (6 Bft) 100,00 %
19.01.2022 23:23 2,2 C 74 % 1020,3 hPa 0,0 l/m 21,7 kts (6 Bft) SW 233 0 min 0,0 UV-I 0 W/m -1,9 C -12,7 C 26,9 kts (6 Bft) 100,00 %
19.01.2022 23:22 2,1 C 74 % 1020,3 hPa 0,0 l/m 26,8 kts (6 Bft) W-SW 242 0 min 0,0 UV-I 0 W/m -2,0 C -14,4 C 33,0 kts (7 Bft) 100,00 %
19.01.2022 23:21 2,1 C 75 % 1020,1 hPa 0,0 l/m 21,3 kts (6 Bft) SW 234 0 min 0,0 UV-I 0 W/m -1,9 C -12,7 C 25,2 kts (6 Bft) 97,14 %
19.01.2022 23:20 2,1 C 74 % 1020,3 hPa 0,0 l/m 26,0 kts (6 Bft) SW 229 0 min 0,0 UV-I 0 W/m -2,0 C -14,2 C 30,4 kts (7 Bft) 100,00 %
19.01.2022 23:19 2,1 C 75 % 1020,3 hPa 0,0 l/m 26,9 kts (6 Bft) W-SW 242 0 min 0,0 UV-I 0 W/m -1,9 C -14,4 C 32,1 kts (7 Bft) 100,00 %
19.01.2022 23:18 2,0 C 75 % 1020,3 hPa 0,0 l/m 23,3 kts (6 Bft) W-SW 243 0 min 0,0 UV-I 0 W/m -2,0 C -13,6 C 32,1 kts (7 Bft) 100,00 %
19.01.2022 23:17 2,0 C 75 % 1020,3 hPa 0,0 l/m 23,2 kts (6 Bft) SW 221 0 min 0,0 UV-I 0 W/m -2,0 C -13,5 C 26,1 kts (6 Bft) 100,00 %
19.01.2022 23:16 2,0 C 75 % 1020,1 hPa 0,0 l/m 20,0 kts (5 Bft) SW 230 0 min 0,0 UV-I 0 W/m -2,0 C -12,4 C 26,1 kts (6 Bft) 100,00 %
19.01.2022 23:15 2,0 C 75 % 1020,3 hPa 0,0 l/m 19,1 kts (5 Bft) W 262 0 min 0,0 UV-I 0 W/m -2,0 C -12,0 C 24,4 kts (6 Bft) 100,00 %
19.01.2022 23:14 1,9 C 75 % 1020,3 hPa 0,0 l/m 16,1 kts (5 Bft) SW 232 0 min 0,0 UV-I 0 W/m -2,1 C -10,7 C 20,0 kts (5 Bft) 100,00 %
19.01.2022 23:13 1,9 C 75 % 1020,2 hPa 0,0 l/m 14,6 kts (4 Bft) SW 226 0 min 0,0 UV-I 0 W/m -2,1 C -9,8 C 16,5 kts (5 Bft) 100,00 %
19.01.2022 23:12 1,9 C 75 % 1020,2 hPa 0,0 l/m 16,7 kts (5 Bft) W-SW 244 0 min 0,0 UV-I 0 W/m -2,1 C -11,0 C 20,8 kts (5 Bft) 100,00 %
19.01.2022 23:11 1,9 C 75 % 1020,2 hPa 0,0 l/m 20,4 kts (5 Bft) W-SW 239 0 min 0,0 UV-I 0 W/m -2,1 C -12,6 C 26,9 kts (6 Bft) 93,10 %
19.01.2022 23:10 1,8 C 75 % 1020,3 hPa 0,0 l/m 24,6 kts (6 Bft) SW 234 0 min 0,0 UV-I 0 W/m -2,1 C -14,3 C 29,5 kts (7 Bft) 100,00 %
19.01.2022 23:09 1,9 C 75 % 1020,2 hPa 0,0 l/m 19,7 kts (5 Bft) SW 235 0 min 0,0 UV-I 0 W/m -2,1 C -12,4 C 23,5 kts (6 Bft) 92,86 %
19.01.2022 23:08 1,8 C 76 % 1020,3 hPa 0,0 l/m 21,7 kts (6 Bft) SW 224 0 min 0,0 UV-I 0 W/m -2,0 C -13,3 C 27,8 kts (7 Bft) 100,00 %
19.01.2022 23:07 1,8 C 76 % 1020,3 hPa 0,0 l/m 23,3 kts (6 Bft) SW 220 0 min 0,0 UV-I 0 W/m -2,0 C -13,9 C 26,9 kts (6 Bft) 96,55 %
19.01.2022 23:06 1,7 C 76 % 1020,2 hPa 0,0 l/m 19,7 kts (5 Bft) SW 232 0 min 0,0 UV-I 0 W/m -2,1 C -12,7 C 22,6 kts (6 Bft) 100,00 %
19.01.2022 23:05 1,7 C 76 % 1020,2 hPa 0,0 l/m 19,1 kts (5 Bft) W-SW 253 0 min 0,0 UV-I 0 W/m -2,1 C -12,4 C 22,6 kts (6 Bft) 94,44 %
19.01.2022 23:04 1,7 C 76 % 1020,2 hPa 0,0 l/m 21,0 kts (5 Bft) S-SW 208 0 min 0,0 UV-I 0 W/m -2,1 C -13,2 C 25,2 kts (6 Bft) 96,15 %
19.01.2022 23:03 1,7 C 76 % 1020,3 hPa 0,0 l/m 17,7 kts (5 Bft) W-SW 254 0 min 0,0 UV-I 0 W/m -2,1 C -11,8 C 23,5 kts (6 Bft) 96,97 %
19.01.2022 23:02 1,7 C 76 % 1020,3 hPa 0,0 l/m 18,7 kts (5 Bft) SW 220 0 min 0,0 UV-I 0 W/m -2,1 C -12,3 C 22,6 kts (6 Bft) 100,00 %
19.01.2022 23:01 1,7 C 76 % 1020,3 hPa 0,0 l/m 18,7 kts (5 Bft) SW 232 0 min 0,0 UV-I 0 W/m -2,1 C -12,2 C 24,4 kts (6 Bft) 96,30 %
19.01.2022 23:00 1,7 C 76 % 1020,3 hPa 0,0 l/m 19,0 kts (5 Bft) SW 222 0 min 0,0 UV-I 0 W/m -2,1 C -12,4 C 21,7 kts (6 Bft) 97,14 %
_ Min-Zeit 18:38 12:40 13:17 - 16:40 - - - - - 17:57 18:54 16:21 15:45
Minimum _ -2,2 C 65 % 1015,9 hPa - 8,1 kts (3 Bft) - - - - - -6,5 C -19,7 C 9,6 kts (3 Bft) 88,24 %
_ Max-Zeit 11:25 14:14 23:00 23:00 00:23 - - 09:23 11:49 11:51 10:40 10:38 00:07 23:02
Maximum _ 3,5 C 86 % 1020,3 hPa 0,0 l/m 33,3 kts
W (7 Bft)
- - 1 min 0,8 UV-I 478 W/m -1,3 C -6,0 C 39,1 kts
W-SW (8 Bft)
100,00 %
Durchschnitt _ 0,8 C 76 % 1018,6 hPa #0,0 l/m 17,9 kts (5 Bft) W-SW - #2:02 h 0,6 UV-I 107 W/m -3,0 C -12,9 C 22,0 kts (6 Bft) 98,79 %